<?xml version='1.0' encoding='UTF-8'?><gpx version="1.1" creator="JPX - https://github.com/jenetics/jpx" xmlns="http://www.topografix.com/GPX/1/1"><trk><trkseg><trkpt lat="43.9625171" lon="12.686033"><ele>23.0</ele><time>2026-04-30T11:58:40.177Z</time></trkpt><trkpt lat="43.9625607" lon="12.6859581"><ele>23.0</ele><time>2026-04-30T11:59:08.16Z</time></trkpt><trkpt lat="43.9626013" lon="12.6858906"><ele>23.0</ele><time>2026-04-30T11:59:16.17Z</time></trkpt><trkpt lat="43.9625714" lon="12.6859788"><ele>23.0</ele><time>2026-04-30T11:59:26.281Z</time></trkpt><trkpt lat="43.9625094" lon="12.6860001"><ele>23.0</ele><time>2026-04-30T11:59:30.641Z</time></trkpt><trkpt lat="43.9625" lon="12.6860933"><ele>23.0</ele><time>2026-04-30T12:06:12.16Z</time></trkpt><trkpt lat="43.9624633" lon="12.6861717"><ele>23.0</ele><time>2026-04-30T12:06:14.159Z</time></trkpt><trkpt lat="43.9624233" lon="12.6862517"><ele>23.0</ele><time>2026-04-30T12:06:16.158Z</time></trkpt><trkpt lat="43.96238" lon="12.68634"><ele>23.0</ele><time>2026-04-30T12:06:19.158Z</time></trkpt><trkpt lat="43.9623317" lon="12.6864183"><ele>23.0</ele><time>2026-04-30T12:06:23.159Z</time></trkpt><trkpt lat="43.9623833" lon="12.6863517"><ele>23.0</ele><time>2026-04-30T12:06:47.16Z</time></trkpt><trkpt lat="43.9623983" lon="12.6862517"><ele>23.0</ele><time>2026-04-30T12:06:49.161Z</time></trkpt><trkpt lat="43.9623667" lon="12.68614"><ele>23.0</ele><time>2026-04-30T12:06:51.159Z</time></trkpt><trkpt lat="43.9623033" lon="12.6860467"><ele>23.0</ele><time>2026-04-30T12:06:53.16Z</time></trkpt><trkpt lat="43.9622533" lon="12.6859933"><ele>23.0</ele><time>2026-04-30T12:06:55.16Z</time></trkpt><trkpt lat="43.962185" lon="12.68593"><ele>23.0</ele><time>2026-04-30T12:06:58.16Z</time></trkpt><trkpt lat="43.9621083" lon="12.6858717"><ele>23.0</ele><time>2026-04-30T12:07:01.159Z</time></trkpt><trkpt lat="43.962055" lon="12.6858217"><ele>23.0</ele><time>2026-04-30T12:07:03.159Z</time></trkpt><trkpt lat="43.9620167" lon="12.6857317"><ele>23.0</ele><time>2026-04-30T12:07:06.159Z</time></trkpt><trkpt lat="43.9619717" lon="12.68566"><ele>23.0</ele><time>2026-04-30T12:07:10.159Z</time></trkpt><trkpt lat="43.961875" lon="12.685575"><ele>23.0</ele><time>2026-04-30T12:10:09.158Z</time></trkpt><trkpt lat="43.96179" lon="12.685635"><ele>23.0</ele><time>2026-04-30T12:10:11.16Z</time></trkpt><trkpt lat="43.9617183" lon="12.6857033"><ele>23.0</ele><time>2026-04-30T12:10:13.161Z</time></trkpt><trkpt lat="43.961625" lon="12.685775"><ele>23.0</ele><time>2026-04-30T12:10:28.159Z</time></trkpt><trkpt lat="43.96157" lon="12.6858383"><ele>23.0</ele><time>2026-04-30T12:10:31.162Z</time></trkpt><trkpt lat="43.9615217" lon="12.6858983"><ele>23.0</ele><time>2026-04-30T12:10:34.159Z</time></trkpt><trkpt lat="43.961465" lon="12.6859567"><ele>23.166666666666668</ele><time>2026-04-30T12:10:37.159Z</time></trkpt><trkpt lat="43.9614117" lon="12.6860383"><ele>23.333333333333336</ele><time>2026-04-30T12:10:40.158Z</time></trkpt><trkpt lat="43.961365" lon="12.68613"><ele>23.5</ele><time>2026-04-30T12:10:42.16Z</time></trkpt><trkpt lat="43.9613133" lon="12.6861917"><ele>23.666666666666668</ele><time>2026-04-30T12:10:45.159Z</time></trkpt><trkpt lat="43.961255" lon="12.6862333"><ele>23.833333333333332</ele><time>2026-04-30T12:10:47.159Z</time></trkpt><trkpt lat="43.9611667" lon="12.6863217"><ele>24.0</ele><time>2026-04-30T12:10:49.158Z</time></trkpt><trkpt lat="43.9611217" lon="12.6863967"><ele>24.0</ele><time>2026-04-30T12:10:50.159Z</time></trkpt><trkpt lat="43.961075" lon="12.68648"><ele>24.0</ele><time>2026-04-30T12:10:51.159Z</time></trkpt><trkpt lat="43.96102" lon="12.6865667"><ele>24.0</ele><time>2026-04-30T12:10:52.158Z</time></trkpt><trkpt lat="43.96096" lon="12.6866433"><ele>24.0</ele><time>2026-04-30T12:10:53.16Z</time></trkpt><trkpt lat="43.9608983" lon="12.6867167"><ele>24.0</ele><time>2026-04-30T12:10:54.158Z</time></trkpt><trkpt lat="43.9608383" lon="12.6867933"><ele>24.0</ele><time>2026-04-30T12:10:55.16Z</time></trkpt><trkpt lat="43.9607783" lon="12.68687"><ele>24.333333333333332</ele><time>2026-04-30T12:10:56.159Z</time></trkpt><trkpt lat="43.96072" lon="12.686935"><ele>24.666666666666664</ele><time>2026-04-30T12:10:57.158Z</time></trkpt><trkpt lat="43.96066" lon="12.6870117"><ele>25.0</ele><time>2026-04-30T12:10:58.158Z</time></trkpt><trkpt lat="43.9606017" lon="12.6870933"><ele>25.333333333333332</ele><time>2026-04-30T12:10:59.158Z</time></trkpt><trkpt lat="43.9605517" lon="12.68717"><ele>25.666666666666664</ele><time>2026-04-30T12:11:00.159Z</time></trkpt><trkpt lat="43.9605083" lon="12.6872467"><ele>26.0</ele><time>2026-04-30T12:11:01.158Z</time></trkpt><trkpt lat="43.96047" lon="12.687335"><ele>25.999999999999996</ele><time>2026-04-30T12:11:02.159Z</time></trkpt><trkpt lat="43.9604317" lon="12.6874267"><ele>26.0</ele><time>2026-04-30T12:11:03.158Z</time></trkpt><trkpt lat="43.960385" lon="12.6874967"><ele>26.0</ele><time>2026-04-30T12:11:04.158Z</time></trkpt><trkpt lat="43.9602783" lon="12.6875933"><ele>26.0</ele><time>2026-04-30T12:11:06.158Z</time></trkpt><trkpt lat="43.96023" lon="12.68767"><ele>25.999999999999996</ele><time>2026-04-30T12:11:07.158Z</time></trkpt><trkpt lat="43.9601883" lon="12.6877567"><ele>26.0</ele><time>2026-04-30T12:11:08.159Z</time></trkpt><trkpt lat="43.9601467" lon="12.687835"><ele>25.999999999999996</ele><time>2026-04-30T12:11:09.16Z</time></trkpt><trkpt lat="43.9600967" lon="12.68789"><ele>26.0</ele><time>2026-04-30T12:11:10.16Z</time></trkpt><trkpt lat="43.9600317" lon="12.6879267"><ele>26.0</ele><time>2026-04-30T12:11:11.158Z</time></trkpt><trkpt lat="43.95996" lon="12.68794"><ele>26.0</ele><time>2026-04-30T12:11:12.159Z</time></trkpt><trkpt lat="43.95988" lon="12.6879183"><ele>25.999999999999996</ele><time>2026-04-30T12:11:13.159Z</time></trkpt><trkpt lat="43.9597933" lon="12.6878633"><ele>26.0</ele><time>2026-04-30T12:11:14.159Z</time></trkpt><trkpt lat="43.9597067" lon="12.6877883"><ele>25.8</ele><time>2026-04-30T12:11:15.159Z</time></trkpt><trkpt lat="43.9596317" lon="12.687705"><ele>25.6</ele><time>2026-04-30T12:11:16.158Z</time></trkpt><trkpt lat="43.959565" lon="12.6876217"><ele>25.4</ele><time>2026-04-30T12:11:17.159Z</time></trkpt><trkpt lat="43.9595017" lon="12.68754"><ele>25.2</ele><time>2026-04-30T12:11:18.16Z</time></trkpt><trkpt lat="43.9594333" lon="12.6874567"><ele>25.0</ele><time>2026-04-30T12:11:19.16Z</time></trkpt><trkpt lat="43.9593633" lon="12.6873717"><ele>25.0</ele><time>2026-04-30T12:11:20.161Z</time></trkpt><trkpt lat="43.95929" lon="12.6872817"><ele>25.0</ele><time>2026-04-30T12:11:21.16Z</time></trkpt><trkpt lat="43.95921" lon="12.6871783"><ele>25.0</ele><time>2026-04-30T12:11:22.159Z</time></trkpt><trkpt lat="43.959125" lon="12.68707"><ele>25.0</ele><time>2026-04-30T12:11:23.162Z</time></trkpt><trkpt lat="43.959035" lon="12.6869583"><ele>25.0</ele><time>2026-04-30T12:11:24.159Z</time></trkpt><trkpt lat="43.95894" lon="12.6868417"><ele>25.0</ele><time>2026-04-30T12:11:25.16Z</time></trkpt><trkpt lat="43.9588417" lon="12.68672"><ele>25.0</ele><time>2026-04-30T12:11:26.159Z</time></trkpt><trkpt lat="43.9587367" lon="12.6865917"><ele>25.0</ele><time>2026-04-30T12:11:27.159Z</time></trkpt><trkpt lat="43.9586283" lon="12.6864583"><ele>25.0</ele><time>2026-04-30T12:11:28.157Z</time></trkpt><trkpt lat="43.9585167" lon="12.6863233"><ele>25.0</ele><time>2026-04-30T12:11:29.158Z</time></trkpt><trkpt lat="43.9584017" lon="12.68619"><ele>25.0</ele><time>2026-04-30T12:11:30.159Z</time></trkpt><trkpt lat="43.9582867" lon="12.6860567"><ele>25.0</ele><time>2026-04-30T12:11:31.159Z</time></trkpt><trkpt lat="43.9581733" lon="12.6859217"><ele>25.0</ele><time>2026-04-30T12:11:32.159Z</time></trkpt><trkpt lat="43.95806" lon="12.6857867"><ele>25.333333333333336</ele><time>2026-04-30T12:11:33.159Z</time></trkpt><trkpt lat="43.957945" lon="12.6856467"><ele>25.666666666666664</ele><time>2026-04-30T12:11:34.158Z</time></trkpt><trkpt lat="43.9578283" lon="12.6855017"><ele>26.0</ele><time>2026-04-30T12:11:35.158Z</time></trkpt><trkpt lat="43.9577083" lon="12.6853533"><ele>26.0</ele><time>2026-04-30T12:11:36.158Z</time></trkpt><trkpt lat="43.9575817" lon="12.685205"><ele>26.0</ele><time>2026-04-30T12:11:37.158Z</time></trkpt><trkpt lat="43.9574583" lon="12.685055"><ele>26.0</ele><time>2026-04-30T12:11:38.158Z</time></trkpt><trkpt lat="43.957335" lon="12.684905"><ele>26.666666666666664</ele><time>2026-04-30T12:11:39.158Z</time></trkpt><trkpt lat="43.95721" lon="12.6847533"><ele>27.333333333333336</ele><time>2026-04-30T12:11:40.158Z</time></trkpt><trkpt lat="43.9570867" lon="12.6846017"><ele>28.0</ele><time>2026-04-30T12:11:41.159Z</time></trkpt><trkpt lat="43.9569617" lon="12.6844483"><ele>28.0</ele><time>2026-04-30T12:11:42.158Z</time></trkpt><trkpt lat="43.9568383" lon="12.684295"><ele>28.0</ele><time>2026-04-30T12:11:43.158Z</time></trkpt><trkpt lat="43.9567217" lon="12.6841417"><ele>28.0</ele><time>2026-04-30T12:11:44.158Z</time></trkpt><trkpt lat="43.95661" lon="12.6839983"><ele>28.25</ele><time>2026-04-30T12:11:45.158Z</time></trkpt><trkpt lat="43.9565067" lon="12.6838733"><ele>28.5</ele><time>2026-04-30T12:11:46.156Z</time></trkpt><trkpt lat="43.956415" lon="12.6837633"><ele>28.75</ele><time>2026-04-30T12:11:47.16Z</time></trkpt><trkpt lat="43.95633" lon="12.683665"><ele>29.0</ele><time>2026-04-30T12:11:48.161Z</time></trkpt><trkpt lat="43.956255" lon="12.6835667"><ele>28.999999999999996</ele><time>2026-04-30T12:11:49.16Z</time></trkpt><trkpt lat="43.9561883" lon="12.6834567"><ele>29.0</ele><time>2026-04-30T12:11:50.161Z</time></trkpt><trkpt lat="43.95614" lon="12.683345"><ele>29.0</ele><time>2026-04-30T12:11:51.159Z</time></trkpt><trkpt lat="43.9561" lon="12.68324"><ele>29.0</ele><time>2026-04-30T12:11:52.159Z</time></trkpt><trkpt lat="43.9560617" lon="12.6831533"><ele>28.999999999999996</ele><time>2026-04-30T12:11:53.159Z</time></trkpt><trkpt lat="43.956005" lon="12.6830867"><ele>29.0</ele><time>2026-04-30T12:11:54.158Z</time></trkpt><trkpt lat="43.9559317" lon="12.683045"><ele>29.0</ele><time>2026-04-30T12:11:55.157Z</time></trkpt><trkpt lat="43.9558383" lon="12.6830067"><ele>29.0</ele><time>2026-04-30T12:11:56.158Z</time></trkpt><trkpt lat="43.95574" lon="12.68294"><ele>29.0</ele><time>2026-04-30T12:11:57.158Z</time></trkpt><trkpt lat="43.9556417" lon="12.6828417"><ele>29.0</ele><time>2026-04-30T12:11:58.159Z</time></trkpt><trkpt lat="43.9555433" lon="12.6827233"><ele>29.0</ele><time>2026-04-30T12:11:59.158Z</time></trkpt><trkpt lat="43.95544" lon="12.68259"><ele>29.0</ele><time>2026-04-30T12:12:00.158Z</time></trkpt><trkpt lat="43.95533" lon="12.68245"><ele>29.0</ele><time>2026-04-30T12:12:01.156Z</time></trkpt><trkpt lat="43.95521" lon="12.6823083"><ele>29.0</ele><time>2026-04-30T12:12:02.16Z</time></trkpt><trkpt lat="43.9550867" lon="12.6821633"><ele>29.0</ele><time>2026-04-30T12:12:03.159Z</time></trkpt><trkpt lat="43.954965" lon="12.6820117"><ele>29.0</ele><time>2026-04-30T12:12:04.158Z</time></trkpt><trkpt lat="43.95484" lon="12.68186"><ele>29.0</ele><time>2026-04-30T12:12:05.158Z</time></trkpt><trkpt lat="43.9547167" lon="12.6817083"><ele>29.333333333333332</ele><time>2026-04-30T12:12:06.157Z</time></trkpt><trkpt lat="43.9545933" lon="12.681555"><ele>29.666666666666664</ele><time>2026-04-30T12:12:07.158Z</time></trkpt><trkpt lat="43.9544717" lon="12.6814017"><ele>30.0</ele><time>2026-04-30T12:12:08.159Z</time></trkpt><trkpt lat="43.9543517" lon="12.68125"><ele>30.0</ele><time>2026-04-30T12:12:09.158Z</time></trkpt><trkpt lat="43.9542283" lon="12.6810967"><ele>30.0</ele><time>2026-04-30T12:12:10.158Z</time></trkpt><trkpt lat="43.9541083" lon="12.680935"><ele>30.0</ele><time>2026-04-30T12:12:11.158Z</time></trkpt><trkpt lat="43.9539917" lon="12.68077"><ele>30.333333333333336</ele><time>2026-04-30T12:12:12.159Z</time></trkpt><trkpt lat="43.9538717" lon="12.6806017"><ele>30.666666666666668</ele><time>2026-04-30T12:12:13.158Z</time></trkpt><trkpt lat="43.9537633" lon="12.68043"><ele>31.0</ele><time>2026-04-30T12:12:14.158Z</time></trkpt><trkpt lat="43.9536617" lon="12.6802583"><ele>31.0</ele><time>2026-04-30T12:12:15.158Z</time></trkpt><trkpt lat="43.9535583" lon="12.6800933"><ele>31.0</ele><time>2026-04-30T12:12:16.157Z</time></trkpt><trkpt lat="43.9534467" lon="12.6799367"><ele>31.0</ele><time>2026-04-30T12:12:17.16Z</time></trkpt><trkpt lat="43.953325" lon="12.6797883"><ele>31.333333333333336</ele><time>2026-04-30T12:12:18.159Z</time></trkpt><trkpt lat="43.9531867" lon="12.6796383"><ele>31.666666666666664</ele><time>2026-04-30T12:12:19.159Z</time></trkpt><trkpt lat="43.953035" lon="12.6794883"><ele>32.0</ele><time>2026-04-30T12:12:20.159Z</time></trkpt><trkpt lat="43.9528867" lon="12.6793467"><ele>32.0</ele><time>2026-04-30T12:12:21.158Z</time></trkpt><trkpt lat="43.9527433" lon="12.6792117"><ele>32.0</ele><time>2026-04-30T12:12:22.159Z</time></trkpt><trkpt lat="43.952605" lon="12.6790817"><ele>32.0</ele><time>2026-04-30T12:12:23.16Z</time></trkpt><trkpt lat="43.952475" lon="12.6789533"><ele>32.33333333333333</ele><time>2026-04-30T12:12:24.159Z</time></trkpt><trkpt lat="43.9523467" lon="12.6788133"><ele>32.666666666666664</ele><time>2026-04-30T12:12:25.158Z</time></trkpt><trkpt lat="43.95222" lon="12.678665"><ele>33.0</ele><time>2026-04-30T12:12:26.158Z</time></trkpt><trkpt lat="43.9520883" lon="12.6785083"><ele>33.333333333333336</ele><time>2026-04-30T12:12:27.158Z</time></trkpt><trkpt lat="43.9519567" lon="12.6783467"><ele>33.66666666666667</ele><time>2026-04-30T12:12:28.157Z</time></trkpt><trkpt lat="43.9518217" lon="12.67818"><ele>34.0</ele><time>2026-04-30T12:12:29.159Z</time></trkpt><trkpt lat="43.9516833" lon="12.67801"><ele>34.0</ele><time>2026-04-30T12:12:30.158Z</time></trkpt><trkpt lat="43.951545" lon="12.6778383"><ele>34.0</ele><time>2026-04-30T12:12:31.158Z</time></trkpt><trkpt lat="43.9514167" lon="12.6776767"><ele>34.0</ele><time>2026-04-30T12:12:32.159Z</time></trkpt><trkpt lat="43.9512967" lon="12.6775267"><ele>34.0</ele><time>2026-04-30T12:12:33.16Z</time></trkpt><trkpt lat="43.9511767" lon="12.6773867"><ele>34.0</ele><time>2026-04-30T12:12:34.158Z</time></trkpt><trkpt lat="43.95106" lon="12.6772533"><ele>34.0</ele><time>2026-04-30T12:12:35.16Z</time></trkpt><trkpt lat="43.9509533" lon="12.6771283"><ele>34.0</ele><time>2026-04-30T12:12:36.158Z</time></trkpt><trkpt lat="43.9508567" lon="12.6770083"><ele>33.833333333333336</ele><time>2026-04-30T12:12:37.159Z</time></trkpt><trkpt lat="43.950775" lon="12.6768967"><ele>33.66666666666667</ele><time>2026-04-30T12:12:38.159Z</time></trkpt><trkpt lat="43.9507183" lon="12.6768017"><ele>33.5</ele><time>2026-04-30T12:12:39.157Z</time></trkpt><trkpt lat="43.950685" lon="12.6767167"><ele>33.333333333333336</ele><time>2026-04-30T12:12:40.159Z</time></trkpt><trkpt lat="43.9506767" lon="12.676625"><ele>33.166666666666664</ele><time>2026-04-30T12:12:41.158Z</time></trkpt><trkpt lat="43.9506983" lon="12.6765183"><ele>33.0</ele><time>2026-04-30T12:12:42.158Z</time></trkpt><trkpt lat="43.9507467" lon="12.6764133"><ele>33.0</ele><time>2026-04-30T12:12:43.159Z</time></trkpt><trkpt lat="43.9508233" lon="12.67629"><ele>33.0</ele><time>2026-04-30T12:12:44.159Z</time></trkpt><trkpt lat="43.9509117" lon="12.67615"><ele>33.0</ele><time>2026-04-30T12:12:45.158Z</time></trkpt><trkpt lat="43.9510033" lon="12.6759933"><ele>33.0</ele><time>2026-04-30T12:12:46.158Z</time></trkpt><trkpt lat="43.9511033" lon="12.6758283"><ele>33.0</ele><time>2026-04-30T12:12:47.159Z</time></trkpt><trkpt lat="43.9512017" lon="12.6756633"><ele>33.0</ele><time>2026-04-30T12:12:48.158Z</time></trkpt><trkpt lat="43.9513" lon="12.6754967"><ele>33.0</ele><time>2026-04-30T12:12:49.159Z</time></trkpt><trkpt lat="43.95139" lon="12.6753383"><ele>33.5</ele><time>2026-04-30T12:12:50.159Z</time></trkpt><trkpt lat="43.9514667" lon="12.67518"><ele>34.0</ele><time>2026-04-30T12:12:51.159Z</time></trkpt><trkpt lat="43.9515283" lon="12.675015"><ele>34.5</ele><time>2026-04-30T12:12:52.158Z</time></trkpt><trkpt lat="43.951575" lon="12.6748383"><ele>35.0</ele><time>2026-04-30T12:12:53.16Z</time></trkpt><trkpt lat="43.951615" lon="12.674645"><ele>35.0</ele><time>2026-04-30T12:12:54.158Z</time></trkpt><trkpt lat="43.951645" lon="12.6744567"><ele>35.0</ele><time>2026-04-30T12:12:55.158Z</time></trkpt><trkpt lat="43.9516683" lon="12.6742833"><ele>35.0</ele><time>2026-04-30T12:12:56.159Z</time></trkpt><trkpt lat="43.9516867" lon="12.6741283"><ele>35.0</ele><time>2026-04-30T12:12:57.158Z</time></trkpt><trkpt lat="43.9517067" lon="12.6739933"><ele>34.83333333333333</ele><time>2026-04-30T12:12:58.159Z</time></trkpt><trkpt lat="43.951725" lon="12.6738883"><ele>34.666666666666664</ele><time>2026-04-30T12:12:59.159Z</time></trkpt><trkpt lat="43.9517417" lon="12.6738017"><ele>34.5</ele><time>2026-04-30T12:13:00.158Z</time></trkpt><trkpt lat="43.95177" lon="12.6736883"><ele>34.333333333333336</ele><time>2026-04-30T12:13:02.159Z</time></trkpt><trkpt lat="43.9518" lon="12.6735317"><ele>34.16666666666667</ele><time>2026-04-30T12:13:04.161Z</time></trkpt><trkpt lat="43.9517833" lon="12.673415"><ele>34.0</ele><time>2026-04-30T12:13:05.158Z</time></trkpt><trkpt lat="43.951765" lon="12.6732683"><ele>34.0</ele><time>2026-04-30T12:13:06.158Z</time></trkpt><trkpt lat="43.9517633" lon="12.6730933"><ele>34.0</ele><time>2026-04-30T12:13:07.159Z</time></trkpt><trkpt lat="43.9517733" lon="12.6729017"><ele>34.0</ele><time>2026-04-30T12:13:08.161Z</time></trkpt><trkpt lat="43.9517833" lon="12.6727117"><ele>34.0</ele><time>2026-04-30T12:13:09.159Z</time></trkpt><trkpt lat="43.95179" lon="12.6725367"><ele>34.25</ele><time>2026-04-30T12:13:10.158Z</time></trkpt><trkpt lat="43.951795" lon="12.6723733"><ele>34.5</ele><time>2026-04-30T12:13:11.16Z</time></trkpt><trkpt lat="43.9517983" lon="12.6722233"><ele>34.75</ele><time>2026-04-30T12:13:12.159Z</time></trkpt><trkpt lat="43.9518067" lon="12.672075"><ele>35.0</ele><time>2026-04-30T12:13:13.159Z</time></trkpt><trkpt lat="43.9518333" lon="12.6719117"><ele>35.0</ele><time>2026-04-30T12:13:14.158Z</time></trkpt><trkpt lat="43.9518683" lon="12.671725"><ele>35.0</ele><time>2026-04-30T12:13:15.158Z</time></trkpt><trkpt lat="43.9519133" lon="12.671515"><ele>35.0</ele><time>2026-04-30T12:13:16.159Z</time></trkpt><trkpt lat="43.951955" lon="12.6712983"><ele>35.0</ele><time>2026-04-30T12:13:17.16Z</time></trkpt><trkpt lat="43.952005" lon="12.671065"><ele>35.0</ele><time>2026-04-30T12:13:18.158Z</time></trkpt><trkpt lat="43.9520633" lon="12.67082"><ele>35.0</ele><time>2026-04-30T12:13:19.16Z</time></trkpt><trkpt lat="43.9521167" lon="12.6705667"><ele>35.0</ele><time>2026-04-30T12:13:20.159Z</time></trkpt><trkpt lat="43.9521683" lon="12.670305"><ele>35.0</ele><time>2026-04-30T12:13:21.161Z</time></trkpt><trkpt lat="43.95222" lon="12.6700383"><ele>35.0</ele><time>2026-04-30T12:13:22.158Z</time></trkpt><trkpt lat="43.9522733" lon="12.669765"><ele>35.33333333333333</ele><time>2026-04-30T12:13:23.159Z</time></trkpt><trkpt lat="43.9523267" lon="12.6695017"><ele>35.666666666666664</ele><time>2026-04-30T12:13:24.159Z</time></trkpt><trkpt lat="43.9523783" lon="12.66924"><ele>36.0</ele><time>2026-04-30T12:13:25.161Z</time></trkpt><trkpt lat="43.9524283" lon="12.668985"><ele>36.333333333333336</ele><time>2026-04-30T12:13:26.159Z</time></trkpt><trkpt lat="43.9524783" lon="12.6687283"><ele>36.66666666666667</ele><time>2026-04-30T12:13:27.16Z</time></trkpt><trkpt lat="43.95253" lon="12.6684733"><ele>37.0</ele><time>2026-04-30T12:13:28.159Z</time></trkpt><trkpt lat="43.9525833" lon="12.6682183"><ele>39.333333333333336</ele><time>2026-04-30T12:13:29.16Z</time></trkpt><trkpt lat="43.9526367" lon="12.6679617"><ele>41.666666666666664</ele><time>2026-04-30T12:13:30.159Z</time></trkpt><trkpt lat="43.952685" lon="12.66771"><ele>44.0</ele><time>2026-04-30T12:13:31.158Z</time></trkpt><trkpt lat="43.9527417" lon="12.6674567"><ele>44.33333333333333</ele><time>2026-04-30T12:13:32.159Z</time></trkpt><trkpt lat="43.952795" lon="12.6672033"><ele>44.666666666666664</ele><time>2026-04-30T12:13:33.159Z</time></trkpt><trkpt lat="43.9528467" lon="12.6669433"><ele>45.0</ele><time>2026-04-30T12:13:34.158Z</time></trkpt><trkpt lat="43.9529" lon="12.6666767"><ele>46.33333333333333</ele><time>2026-04-30T12:13:35.158Z</time></trkpt><trkpt lat="43.952955" lon="12.66641"><ele>47.666666666666664</ele><time>2026-04-30T12:13:36.157Z</time></trkpt><trkpt lat="43.9530083" lon="12.6661483"><ele>49.0</ele><time>2026-04-30T12:13:37.158Z</time></trkpt><trkpt lat="43.9530633" lon="12.6658933"><ele>50.0</ele><time>2026-04-30T12:13:38.158Z</time></trkpt><trkpt lat="43.953125" lon="12.6656417"><ele>51.0</ele><time>2026-04-30T12:13:39.161Z</time></trkpt><trkpt lat="43.9531983" lon="12.665405"><ele>52.0</ele><time>2026-04-30T12:13:40.158Z</time></trkpt><trkpt lat="43.9532833" lon="12.6651883"><ele>50.666666666666664</ele><time>2026-04-30T12:13:41.159Z</time></trkpt><trkpt lat="43.9533833" lon="12.664985"><ele>49.33333333333333</ele><time>2026-04-30T12:13:42.159Z</time></trkpt><trkpt lat="43.9534967" lon="12.6647967"><ele>48.0</ele><time>2026-04-30T12:13:43.158Z</time></trkpt><trkpt lat="43.9536217" lon="12.6646167"><ele>48.66666666666667</ele><time>2026-04-30T12:13:44.158Z</time></trkpt><trkpt lat="43.95376" lon="12.66444"><ele>49.333333333333336</ele><time>2026-04-30T12:13:45.16Z</time></trkpt><trkpt lat="43.9539017" lon="12.66426"><ele>50.0</ele><time>2026-04-30T12:13:46.159Z</time></trkpt><trkpt lat="43.95404" lon="12.6640833"><ele>50.0</ele><time>2026-04-30T12:13:47.158Z</time></trkpt><trkpt lat="43.9541767" lon="12.6639117"><ele>50.0</ele><time>2026-04-30T12:13:48.159Z</time></trkpt><trkpt lat="43.9543183" lon="12.6637467"><ele>50.0</ele><time>2026-04-30T12:13:49.159Z</time></trkpt><trkpt lat="43.954465" lon="12.6635883"><ele>50.333333333333336</ele><time>2026-04-30T12:13:50.158Z</time></trkpt><trkpt lat="43.9546067" lon="12.66343"><ele>50.66666666666667</ele><time>2026-04-30T12:13:51.158Z</time></trkpt><trkpt lat="43.9547417" lon="12.6632683"><ele>51.0</ele><time>2026-04-30T12:13:52.158Z</time></trkpt><trkpt lat="43.9548767" lon="12.663105"><ele>51.0</ele><time>2026-04-30T12:13:53.159Z</time></trkpt><trkpt lat="43.9550117" lon="12.662935"><ele>51.0</ele><time>2026-04-30T12:13:54.16Z</time></trkpt><trkpt lat="43.95515" lon="12.662765"><ele>51.0</ele><time>2026-04-30T12:13:55.158Z</time></trkpt><trkpt lat="43.9552917" lon="12.6625933"><ele>52.33333333333333</ele><time>2026-04-30T12:13:56.158Z</time></trkpt><trkpt lat="43.955435" lon="12.6624183"><ele>53.666666666666664</ele><time>2026-04-30T12:13:57.159Z</time></trkpt><trkpt lat="43.95558" lon="12.6622433"><ele>55.0</ele><time>2026-04-30T12:13:58.158Z</time></trkpt><trkpt lat="43.9557217" lon="12.66207"><ele>56.0</ele><time>2026-04-30T12:13:59.159Z</time></trkpt><trkpt lat="43.95585" lon="12.6619017"><ele>57.0</ele><time>2026-04-30T12:14:00.159Z</time></trkpt><trkpt lat="43.955955" lon="12.6617367"><ele>58.0</ele><time>2026-04-30T12:14:01.158Z</time></trkpt><trkpt lat="43.956035" lon="12.66158"><ele>58.0</ele><time>2026-04-30T12:14:02.159Z</time></trkpt><trkpt lat="43.9560917" lon="12.661435"><ele>58.0</ele><time>2026-04-30T12:14:03.158Z</time></trkpt><trkpt lat="43.9561233" lon="12.6613"><ele>58.0</ele><time>2026-04-30T12:14:04.158Z</time></trkpt><trkpt lat="43.9561283" lon="12.66116"><ele>58.0</ele><time>2026-04-30T12:14:05.159Z</time></trkpt><trkpt lat="43.956105" lon="12.66102"><ele>58.0</ele><time>2026-04-30T12:14:06.158Z</time></trkpt><trkpt lat="43.9560533" lon="12.6608883"><ele>59.0</ele><time>2026-04-30T12:14:07.158Z</time></trkpt><trkpt lat="43.95597" lon="12.66077"><ele>60.0</ele><time>2026-04-30T12:14:08.159Z</time></trkpt><trkpt lat="43.9558683" lon="12.660655"><ele>61.0</ele><time>2026-04-30T12:14:09.158Z</time></trkpt><trkpt lat="43.9557633" lon="12.6605317"><ele>62.0</ele><time>2026-04-30T12:14:10.159Z</time></trkpt><trkpt lat="43.9556783" lon="12.6603983"><ele>63.5</ele><time>2026-04-30T12:14:11.159Z</time></trkpt><trkpt lat="43.9556217" lon="12.6602433"><ele>65.0</ele><time>2026-04-30T12:14:12.159Z</time></trkpt><trkpt lat="43.955595" lon="12.66008"><ele>66.5</ele><time>2026-04-30T12:14:13.157Z</time></trkpt><trkpt lat="43.955595" lon="12.6599183"><ele>68.0</ele><time>2026-04-30T12:14:14.158Z</time></trkpt><trkpt lat="43.9556267" lon="12.6597567"><ele>68.0</ele><time>2026-04-30T12:14:15.158Z</time></trkpt><trkpt lat="43.9556867" lon="12.6596017"><ele>68.0</ele><time>2026-04-30T12:14:16.158Z</time></trkpt><trkpt lat="43.95577" lon="12.6594683"><ele>68.0</ele><time>2026-04-30T12:14:17.158Z</time></trkpt><trkpt lat="43.9558767" lon="12.6593667"><ele>68.0</ele><time>2026-04-30T12:14:18.158Z</time></trkpt><trkpt lat="43.9560067" lon="12.6592883"><ele>70.33333333333334</ele><time>2026-04-30T12:14:19.158Z</time></trkpt><trkpt lat="43.9561567" lon="12.6592367"><ele>72.66666666666667</ele><time>2026-04-30T12:14:20.16Z</time></trkpt><trkpt lat="43.9563267" lon="12.65919"><ele>75.0</ele><time>2026-04-30T12:14:21.158Z</time></trkpt><trkpt lat="43.9565067" lon="12.6591467"><ele>75.0</ele><time>2026-04-30T12:14:22.158Z</time></trkpt><trkpt lat="43.956695" lon="12.6590983"><ele>75.0</ele><time>2026-04-30T12:14:23.158Z</time></trkpt><trkpt lat="43.9568867" lon="12.6590483"><ele>75.0</ele><time>2026-04-30T12:14:24.158Z</time></trkpt><trkpt lat="43.9570817" lon="12.6590017"><ele>75.0</ele><time>2026-04-30T12:14:25.159Z</time></trkpt><trkpt lat="43.9572817" lon="12.6589533"><ele>75.0</ele><time>2026-04-30T12:14:26.159Z</time></trkpt><trkpt lat="43.9574717" lon="12.658905"><ele>75.0</ele><time>2026-04-30T12:14:27.157Z</time></trkpt><trkpt lat="43.9576367" lon="12.6588633"><ele>76.25</ele><time>2026-04-30T12:14:28.158Z</time></trkpt><trkpt lat="43.9577833" lon="12.6588217"><ele>77.5</ele><time>2026-04-30T12:14:29.16Z</time></trkpt><trkpt lat="43.9579067" lon="12.6587833"><ele>78.75</ele><time>2026-04-30T12:14:30.159Z</time></trkpt><trkpt lat="43.9580133" lon="12.6587317"><ele>80.0</ele><time>2026-04-30T12:14:31.158Z</time></trkpt><trkpt lat="43.9581017" lon="12.658655"><ele>80.8</ele><time>2026-04-30T12:14:32.161Z</time></trkpt><trkpt lat="43.9581583" lon="12.6585567"><ele>81.6</ele><time>2026-04-30T12:14:33.157Z</time></trkpt><trkpt lat="43.9581867" lon="12.6584433"><ele>82.4</ele><time>2026-04-30T12:14:34.158Z</time></trkpt><trkpt lat="43.9581883" lon="12.6583317"><ele>83.2</ele><time>2026-04-30T12:14:35.158Z</time></trkpt><trkpt lat="43.9581533" lon="12.6582217"><ele>84.0</ele><time>2026-04-30T12:14:36.158Z</time></trkpt><trkpt lat="43.9580633" lon="12.65813"><ele>84.0</ele><time>2026-04-30T12:14:37.159Z</time></trkpt><trkpt lat="43.9579633" lon="12.6580533"><ele>84.0</ele><time>2026-04-30T12:14:38.159Z</time></trkpt><trkpt lat="43.9578483" lon="12.65797"><ele>84.0</ele><time>2026-04-30T12:14:39.159Z</time></trkpt><trkpt lat="43.9577267" lon="12.65788"><ele>84.0</ele><time>2026-04-30T12:14:40.16Z</time></trkpt><trkpt lat="43.957595" lon="12.657785"><ele>86.0</ele><time>2026-04-30T12:14:41.158Z</time></trkpt><trkpt lat="43.9574683" lon="12.65769"><ele>88.0</ele><time>2026-04-30T12:14:42.158Z</time></trkpt><trkpt lat="43.9573533" lon="12.6576067"><ele>90.0</ele><time>2026-04-30T12:14:43.158Z</time></trkpt><trkpt lat="43.957265" lon="12.6575183"><ele>92.0</ele><time>2026-04-30T12:14:44.159Z</time></trkpt><trkpt lat="43.9572067" lon="12.6574267"><ele>92.0</ele><time>2026-04-30T12:14:45.158Z</time></trkpt><trkpt lat="43.9571683" lon="12.65733"><ele>92.0</ele><time>2026-04-30T12:14:46.158Z</time></trkpt><trkpt lat="43.9571567" lon="12.6572233"><ele>92.0</ele><time>2026-04-30T12:14:47.158Z</time></trkpt><trkpt lat="43.9571717" lon="12.6571017"><ele>92.0</ele><time>2026-04-30T12:14:48.158Z</time></trkpt><trkpt lat="43.9572033" lon="12.6569517"><ele>92.0</ele><time>2026-04-30T12:14:49.158Z</time></trkpt><trkpt lat="43.95726" lon="12.6567917"><ele>93.25</ele><time>2026-04-30T12:14:50.161Z</time></trkpt><trkpt lat="43.9573267" lon="12.65663"><ele>94.5</ele><time>2026-04-30T12:14:51.159Z</time></trkpt><trkpt lat="43.9574017" lon="12.6564783"><ele>95.75</ele><time>2026-04-30T12:14:52.159Z</time></trkpt><trkpt lat="43.957485" lon="12.6563467"><ele>97.0</ele><time>2026-04-30T12:14:53.16Z</time></trkpt><trkpt lat="43.9575617" lon="12.656255"><ele>97.39999999999999</ele><time>2026-04-30T12:14:54.16Z</time></trkpt><trkpt lat="43.9576317" lon="12.6561783"><ele>97.8</ele><time>2026-04-30T12:14:55.158Z</time></trkpt><trkpt lat="43.9577067" lon="12.656105"><ele>98.2</ele><time>2026-04-30T12:14:56.159Z</time></trkpt><trkpt lat="43.9577833" lon="12.6560317"><ele>98.6</ele><time>2026-04-30T12:14:57.159Z</time></trkpt><trkpt lat="43.95787" lon="12.6559583"><ele>99.0</ele><time>2026-04-30T12:14:58.158Z</time></trkpt><trkpt lat="43.9579667" lon="12.6558833"><ele>100.25</ele><time>2026-04-30T12:14:59.159Z</time></trkpt><trkpt lat="43.9580633" lon="12.655795"><ele>101.5</ele><time>2026-04-30T12:15:00.159Z</time></trkpt><trkpt lat="43.9581633" lon="12.65571"><ele>102.75</ele><time>2026-04-30T12:15:01.159Z</time></trkpt><trkpt lat="43.958265" lon="12.6556117"><ele>104.0</ele><time>2026-04-30T12:15:02.158Z</time></trkpt><trkpt lat="43.958365" lon="12.6555233"><ele>103.80000000000001</ele><time>2026-04-30T12:15:03.158Z</time></trkpt><trkpt lat="43.958465" lon="12.6554283"><ele>103.60000000000001</ele><time>2026-04-30T12:15:04.158Z</time></trkpt><trkpt lat="43.958555" lon="12.6553383"><ele>103.4</ele><time>2026-04-30T12:15:05.158Z</time></trkpt><trkpt lat="43.9586433" lon="12.655255"><ele>103.2</ele><time>2026-04-30T12:15:06.158Z</time></trkpt><trkpt lat="43.9587417" lon="12.655185"><ele>103.0</ele><time>2026-04-30T12:15:07.159Z</time></trkpt><trkpt lat="43.9588533" lon="12.6551267"><ele>103.0</ele><time>2026-04-30T12:15:08.159Z</time></trkpt><trkpt lat="43.95897" lon="12.6550683"><ele>103.0</ele><time>2026-04-30T12:15:09.158Z</time></trkpt><trkpt lat="43.9590967" lon="12.6550333"><ele>103.0</ele><time>2026-04-30T12:15:10.159Z</time></trkpt><trkpt lat="43.9592367" lon="12.6550083"><ele>103.0</ele><time>2026-04-30T12:15:11.159Z</time></trkpt><trkpt lat="43.9593883" lon="12.6549817"><ele>102.33333333333334</ele><time>2026-04-30T12:15:12.159Z</time></trkpt><trkpt lat="43.95955" lon="12.6549567"><ele>101.66666666666666</ele><time>2026-04-30T12:15:13.158Z</time></trkpt><trkpt lat="43.95971" lon="12.654945"><ele>101.0</ele><time>2026-04-30T12:15:14.159Z</time></trkpt><trkpt lat="43.9598767" lon="12.6549317"><ele>100.66666666666666</ele><time>2026-04-30T12:15:15.159Z</time></trkpt><trkpt lat="43.9600383" lon="12.6549"><ele>100.33333333333334</ele><time>2026-04-30T12:15:16.158Z</time></trkpt><trkpt lat="43.9601983" lon="12.654885"><ele>100.0</ele><time>2026-04-30T12:15:17.16Z</time></trkpt><trkpt lat="43.960375" lon="12.654845"><ele>100.0</ele><time>2026-04-30T12:15:18.16Z</time></trkpt><trkpt lat="43.96056" lon="12.654805"><ele>100.0</ele><time>2026-04-30T12:15:19.158Z</time></trkpt><trkpt lat="43.9607433" lon="12.654755"><ele>100.0</ele><time>2026-04-30T12:15:20.159Z</time></trkpt><trkpt lat="43.960915" lon="12.6547067"><ele>99.0</ele><time>2026-04-30T12:15:21.158Z</time></trkpt><trkpt lat="43.9610833" lon="12.6546567"><ele>98.0</ele><time>2026-04-30T12:15:22.16Z</time></trkpt><trkpt lat="43.9612333" lon="12.6546"><ele>97.0</ele><time>2026-04-30T12:15:23.159Z</time></trkpt><trkpt lat="43.961375" lon="12.654545"><ele>97.0</ele><time>2026-04-30T12:15:24.161Z</time></trkpt><trkpt lat="43.96152" lon="12.6544867"><ele>97.0</ele><time>2026-04-30T12:15:25.159Z</time></trkpt><trkpt lat="43.96167" lon="12.6544267"><ele>97.0</ele><time>2026-04-30T12:15:26.159Z</time></trkpt><trkpt lat="43.961825" lon="12.6543667"><ele>98.66666666666667</ele><time>2026-04-30T12:15:27.159Z</time></trkpt><trkpt lat="43.9619833" lon="12.6543217"><ele>100.33333333333334</ele><time>2026-04-30T12:15:28.159Z</time></trkpt><trkpt lat="43.9621483" lon="12.6542833"><ele>102.0</ele><time>2026-04-30T12:15:29.159Z</time></trkpt><trkpt lat="43.9623217" lon="12.6542383"><ele>102.0</ele><time>2026-04-30T12:15:30.158Z</time></trkpt><trkpt lat="43.96251" lon="12.6541917"><ele>102.0</ele><time>2026-04-30T12:15:31.158Z</time></trkpt><trkpt lat="43.9627017" lon="12.65414"><ele>102.0</ele><time>2026-04-30T12:15:32.159Z</time></trkpt><trkpt lat="43.962885" lon="12.6540883"><ele>100.66666666666666</ele><time>2026-04-30T12:15:33.159Z</time></trkpt><trkpt lat="43.9630533" lon="12.654045"><ele>99.33333333333333</ele><time>2026-04-30T12:15:34.159Z</time></trkpt><trkpt lat="43.963205" lon="12.6540017"><ele>98.0</ele><time>2026-04-30T12:15:35.159Z</time></trkpt><trkpt lat="43.9633417" lon="12.6539583"><ele>99.0</ele><time>2026-04-30T12:15:36.159Z</time></trkpt><trkpt lat="43.9634667" lon="12.6539033"><ele>100.0</ele><time>2026-04-30T12:15:37.159Z</time></trkpt><trkpt lat="43.9635883" lon="12.6538233"><ele>101.0</ele><time>2026-04-30T12:15:38.159Z</time></trkpt><trkpt lat="43.9636967" lon="12.65372"><ele>102.0</ele><time>2026-04-30T12:15:39.159Z</time></trkpt><trkpt lat="43.9637917" lon="12.6535817"><ele>102.0</ele><time>2026-04-30T12:15:40.158Z</time></trkpt><trkpt lat="43.9638717" lon="12.653415"><ele>102.0</ele><time>2026-04-30T12:15:41.159Z</time></trkpt><trkpt lat="43.96394" lon="12.6532183"><ele>102.0</ele><time>2026-04-30T12:15:42.159Z</time></trkpt><trkpt lat="43.9639983" lon="12.6530017"><ele>102.0</ele><time>2026-04-30T12:15:43.159Z</time></trkpt><trkpt lat="43.9640533" lon="12.6527867"><ele>102.0</ele><time>2026-04-30T12:15:44.159Z</time></trkpt><trkpt lat="43.964115" lon="12.6526017"><ele>102.0</ele><time>2026-04-30T12:15:45.158Z</time></trkpt><trkpt lat="43.96419" lon="12.6524533"><ele>102.0</ele><time>2026-04-30T12:15:46.158Z</time></trkpt><trkpt lat="43.96429" lon="12.6523617"><ele>102.0</ele><time>2026-04-30T12:15:47.158Z</time></trkpt><trkpt lat="43.9644133" lon="12.6523117"><ele>102.0</ele><time>2026-04-30T12:15:48.158Z</time></trkpt><trkpt lat="43.96456" lon="12.6523017"><ele>102.0</ele><time>2026-04-30T12:15:49.159Z</time></trkpt><trkpt lat="43.964725" lon="12.6523183"><ele>102.0</ele><time>2026-04-30T12:15:50.159Z</time></trkpt><trkpt lat="43.9649033" lon="12.6523383"><ele>102.33333333333334</ele><time>2026-04-30T12:15:51.16Z</time></trkpt><trkpt lat="43.9650867" lon="12.6523417"><ele>102.66666666666667</ele><time>2026-04-30T12:15:52.159Z</time></trkpt><trkpt lat="43.96526" lon="12.6523317"><ele>103.0</ele><time>2026-04-30T12:15:53.159Z</time></trkpt><trkpt lat="43.9654183" lon="12.6523183"><ele>103.0</ele><time>2026-04-30T12:15:54.16Z</time></trkpt><trkpt lat="43.96556" lon="12.6523017"><ele>103.0</ele><time>2026-04-30T12:15:55.159Z</time></trkpt><trkpt lat="43.96568" lon="12.6522817"><ele>103.0</ele><time>2026-04-30T12:15:56.159Z</time></trkpt><trkpt lat="43.9657783" lon="12.65227"><ele>103.0</ele><time>2026-04-30T12:15:57.159Z</time></trkpt><trkpt lat="43.9658583" lon="12.6522633"><ele>103.0</ele><time>2026-04-30T12:15:58.159Z</time></trkpt><trkpt lat="43.9659283" lon="12.652265"><ele>100.5</ele><time>2026-04-30T12:15:59.159Z</time></trkpt><trkpt lat="43.9660483" lon="12.6522933"><ele>98.0</ele><time>2026-04-30T12:16:01.158Z</time></trkpt><trkpt lat="43.966165" lon="12.6523467"><ele>95.5</ele><time>2026-04-30T12:16:03.161Z</time></trkpt><trkpt lat="43.9662767" lon="12.6524517"><ele>93.0</ele><time>2026-04-30T12:16:05.161Z</time></trkpt><trkpt lat="43.9663367" lon="12.6525333"><ele>93.0</ele><time>2026-04-30T12:16:06.159Z</time></trkpt><trkpt lat="43.9664" lon="12.65264"><ele>93.0</ele><time>2026-04-30T12:16:07.159Z</time></trkpt><trkpt lat="43.96647" lon="12.65277"><ele>93.0</ele><time>2026-04-30T12:16:08.16Z</time></trkpt><trkpt lat="43.9665433" lon="12.65291"><ele>93.0</ele><time>2026-04-30T12:16:09.159Z</time></trkpt><trkpt lat="43.9666233" lon="12.6530583"><ele>90.66666666666667</ele><time>2026-04-30T12:16:10.159Z</time></trkpt><trkpt lat="43.9667117" lon="12.6532217"><ele>88.33333333333334</ele><time>2026-04-30T12:16:11.159Z</time></trkpt><trkpt lat="43.9668033" lon="12.6533933"><ele>86.0</ele><time>2026-04-30T12:16:12.158Z</time></trkpt><trkpt lat="43.9668933" lon="12.653565"><ele>87.66666666666667</ele><time>2026-04-30T12:16:13.158Z</time></trkpt><trkpt lat="43.9669833" lon="12.653735"><ele>89.33333333333333</ele><time>2026-04-30T12:16:14.159Z</time></trkpt><trkpt lat="43.967075" lon="12.6538983"><ele>91.0</ele><time>2026-04-30T12:16:15.158Z</time></trkpt><trkpt lat="43.967175" lon="12.6540583"><ele>91.0</ele><time>2026-04-30T12:16:16.157Z</time></trkpt><trkpt lat="43.96729" lon="12.65421"><ele>91.0</ele><time>2026-04-30T12:16:17.159Z</time></trkpt><trkpt lat="43.967415" lon="12.6543583"><ele>91.0</ele><time>2026-04-30T12:16:18.158Z</time></trkpt><trkpt lat="43.9675517" lon="12.6545083"><ele>89.0</ele><time>2026-04-30T12:16:19.159Z</time></trkpt><trkpt lat="43.9676933" lon="12.6546617"><ele>87.0</ele><time>2026-04-30T12:16:20.16Z</time></trkpt><trkpt lat="43.9678283" lon="12.65481"><ele>85.0</ele><time>2026-04-30T12:16:21.159Z</time></trkpt><trkpt lat="43.9679583" lon="12.654945"><ele>85.0</ele><time>2026-04-30T12:16:22.159Z</time></trkpt><trkpt lat="43.9680867" lon="12.65506"><ele>85.0</ele><time>2026-04-30T12:16:23.161Z</time></trkpt><trkpt lat="43.9682183" lon="12.655145"><ele>85.0</ele><time>2026-04-30T12:16:24.16Z</time></trkpt><trkpt lat="43.9683533" lon="12.6552033"><ele>85.0</ele><time>2026-04-30T12:16:25.159Z</time></trkpt><trkpt lat="43.9684933" lon="12.6552317"><ele>82.66666666666666</ele><time>2026-04-30T12:16:26.159Z</time></trkpt><trkpt lat="43.9686483" lon="12.6552417"><ele>80.33333333333333</ele><time>2026-04-30T12:16:27.159Z</time></trkpt><trkpt lat="43.9688117" lon="12.6552433"><ele>78.0</ele><time>2026-04-30T12:16:28.159Z</time></trkpt><trkpt lat="43.96896" lon="12.6552467"><ele>78.0</ele><time>2026-04-30T12:16:29.159Z</time></trkpt><trkpt lat="43.9690883" lon="12.65525"><ele>78.0</ele><time>2026-04-30T12:16:30.159Z</time></trkpt><trkpt lat="43.969205" lon="12.6552667"><ele>78.0</ele><time>2026-04-30T12:16:31.158Z</time></trkpt><trkpt lat="43.96932" lon="12.6553017"><ele>78.0</ele><time>2026-04-30T12:16:32.158Z</time></trkpt><trkpt lat="43.9694333" lon="12.655345"><ele>77.8</ele><time>2026-04-30T12:16:33.16Z</time></trkpt><trkpt lat="43.9695417" lon="12.655375"><ele>77.6</ele><time>2026-04-30T12:16:34.159Z</time></trkpt><trkpt lat="43.9696467" lon="12.655375"><ele>77.4</ele><time>2026-04-30T12:16:35.158Z</time></trkpt><trkpt lat="43.9697517" lon="12.6553417"><ele>77.2</ele><time>2026-04-30T12:16:36.158Z</time></trkpt><trkpt lat="43.9698583" lon="12.6552967"><ele>77.0</ele><time>2026-04-30T12:16:37.159Z</time></trkpt><trkpt lat="43.9699767" lon="12.6552683"><ele>76.25</ele><time>2026-04-30T12:16:38.158Z</time></trkpt><trkpt lat="43.9701033" lon="12.6552633"><ele>75.5</ele><time>2026-04-30T12:16:39.159Z</time></trkpt><trkpt lat="43.9702383" lon="12.655275"><ele>74.75</ele><time>2026-04-30T12:16:40.158Z</time></trkpt><trkpt lat="43.9703833" lon="12.6552967"><ele>74.0</ele><time>2026-04-30T12:16:41.159Z</time></trkpt><trkpt lat="43.9705433" lon="12.6553183"><ele>73.66666666666667</ele><time>2026-04-30T12:16:42.158Z</time></trkpt><trkpt lat="43.97071" lon="12.65534"><ele>73.33333333333333</ele><time>2026-04-30T12:16:43.159Z</time></trkpt><trkpt lat="43.9708717" lon="12.6553633"><ele>73.0</ele><time>2026-04-30T12:16:44.16Z</time></trkpt><trkpt lat="43.9710383" lon="12.6553817"><ele>73.0</ele><time>2026-04-30T12:16:45.158Z</time></trkpt><trkpt lat="43.9712067" lon="12.6554033"><ele>73.0</ele><time>2026-04-30T12:16:46.158Z</time></trkpt><trkpt lat="43.9713733" lon="12.6554267"><ele>73.0</ele><time>2026-04-30T12:16:47.158Z</time></trkpt><trkpt lat="43.971535" lon="12.6554483"><ele>73.0</ele><time>2026-04-30T12:16:48.159Z</time></trkpt><trkpt lat="43.9716883" lon="12.6554717"><ele>73.0</ele><time>2026-04-30T12:16:49.159Z</time></trkpt><trkpt lat="43.9718283" lon="12.6555"><ele>73.0</ele><time>2026-04-30T12:16:50.159Z</time></trkpt><trkpt lat="43.97196" lon="12.6555283"><ele>73.0</ele><time>2026-04-30T12:16:51.159Z</time></trkpt><trkpt lat="43.972085" lon="12.6555517"><ele>73.25</ele><time>2026-04-30T12:16:52.16Z</time></trkpt><trkpt lat="43.97221" lon="12.6555667"><ele>73.5</ele><time>2026-04-30T12:16:53.16Z</time></trkpt><trkpt lat="43.972335" lon="12.6555733"><ele>73.75</ele><time>2026-04-30T12:16:54.161Z</time></trkpt><trkpt lat="43.9724633" lon="12.6555833"><ele>74.0</ele><time>2026-04-30T12:16:55.159Z</time></trkpt><trkpt lat="43.97259" lon="12.6555917"><ele>73.5</ele><time>2026-04-30T12:16:56.158Z</time></trkpt><trkpt lat="43.9727133" lon="12.6556033"><ele>73.0</ele><time>2026-04-30T12:16:57.16Z</time></trkpt><trkpt lat="43.9728317" lon="12.6556117"><ele>72.5</ele><time>2026-04-30T12:16:58.159Z</time></trkpt><trkpt lat="43.9729533" lon="12.6556167"><ele>72.0</ele><time>2026-04-30T12:16:59.159Z</time></trkpt><trkpt lat="43.9730783" lon="12.65562"><ele>72.0</ele><time>2026-04-30T12:17:00.158Z</time></trkpt><trkpt lat="43.9732067" lon="12.655625"><ele>72.0</ele><time>2026-04-30T12:17:01.159Z</time></trkpt><trkpt lat="43.9733383" lon="12.6556383"><ele>72.0</ele><time>2026-04-30T12:17:02.159Z</time></trkpt><trkpt lat="43.97347" lon="12.6556517"><ele>72.0</ele><time>2026-04-30T12:17:03.158Z</time></trkpt><trkpt lat="43.9736" lon="12.655665"><ele>71.5</ele><time>2026-04-30T12:17:04.16Z</time></trkpt><trkpt lat="43.973725" lon="12.6556767"><ele>71.0</ele><time>2026-04-30T12:17:05.159Z</time></trkpt><trkpt lat="43.97385" lon="12.6556917"><ele>70.5</ele><time>2026-04-30T12:17:06.158Z</time></trkpt><trkpt lat="43.9739767" lon="12.6557033"><ele>70.0</ele><time>2026-04-30T12:17:07.157Z</time></trkpt><trkpt lat="43.9740983" lon="12.6557117"><ele>70.2</ele><time>2026-04-30T12:17:08.158Z</time></trkpt><trkpt lat="43.9742117" lon="12.6557217"><ele>70.4</ele><time>2026-04-30T12:17:09.158Z</time></trkpt><trkpt lat="43.9743233" lon="12.655725"><ele>70.6</ele><time>2026-04-30T12:17:10.158Z</time></trkpt><trkpt lat="43.97443" lon="12.65572"><ele>70.8</ele><time>2026-04-30T12:17:11.158Z</time></trkpt><trkpt lat="43.9745317" lon="12.6557167"><ele>71.0</ele><time>2026-04-30T12:17:12.158Z</time></trkpt><trkpt lat="43.97463" lon="12.6556983"><ele>71.0</ele><time>2026-04-30T12:17:13.158Z</time></trkpt><trkpt lat="43.9747233" lon="12.65568"><ele>71.0</ele><time>2026-04-30T12:17:14.158Z</time></trkpt><trkpt lat="43.97481" lon="12.6556617"><ele>71.0</ele><time>2026-04-30T12:17:15.157Z</time></trkpt><trkpt lat="43.9748867" lon="12.6556567"><ele>71.0</ele><time>2026-04-30T12:17:16.158Z</time></trkpt><trkpt lat="43.97495" lon="12.6556533"><ele>71.0</ele><time>2026-04-30T12:17:17.16Z</time></trkpt><trkpt lat="43.9750433" lon="12.6556783"><ele>71.0</ele><time>2026-04-30T12:17:19.159Z</time></trkpt><trkpt lat="43.97509" lon="12.6557533"><ele>70.8</ele><time>2026-04-30T12:17:21.158Z</time></trkpt><trkpt lat="43.975085" lon="12.655915"><ele>70.6</ele><time>2026-04-30T12:17:23.159Z</time></trkpt><trkpt lat="43.97507" lon="12.6560383"><ele>70.4</ele><time>2026-04-30T12:17:24.159Z</time></trkpt><trkpt lat="43.9750483" lon="12.6561783"><ele>70.2</ele><time>2026-04-30T12:17:25.159Z</time></trkpt><trkpt lat="43.9750183" lon="12.6563283"><ele>70.0</ele><time>2026-04-30T12:17:26.159Z</time></trkpt><trkpt lat="43.97498" lon="12.6564933"><ele>70.0</ele><time>2026-04-30T12:17:27.159Z</time></trkpt><trkpt lat="43.974935" lon="12.656665"><ele>70.0</ele><time>2026-04-30T12:17:28.159Z</time></trkpt><trkpt lat="43.9748867" lon="12.656825"><ele>70.0</ele><time>2026-04-30T12:17:29.159Z</time></trkpt><trkpt lat="43.9748367" lon="12.6569783"><ele>70.0</ele><time>2026-04-30T12:17:30.158Z</time></trkpt><trkpt lat="43.9747767" lon="12.6571267"><ele>68.75</ele><time>2026-04-30T12:17:31.158Z</time></trkpt><trkpt lat="43.974715" lon="12.6572817"><ele>67.5</ele><time>2026-04-30T12:17:32.159Z</time></trkpt><trkpt lat="43.9746317" lon="12.657435"><ele>66.25</ele><time>2026-04-30T12:17:33.159Z</time></trkpt><trkpt lat="43.974525" lon="12.6575917"><ele>65.0</ele><time>2026-04-30T12:17:34.159Z</time></trkpt><trkpt lat="43.9744117" lon="12.6577467"><ele>63.75</ele><time>2026-04-30T12:17:35.159Z</time></trkpt><trkpt lat="43.9743033" lon="12.6578967"><ele>62.5</ele><time>2026-04-30T12:17:36.158Z</time></trkpt><trkpt lat="43.974205" lon="12.6580417"><ele>61.25</ele><time>2026-04-30T12:17:37.16Z</time></trkpt><trkpt lat="43.97411" lon="12.6581683"><ele>60.0</ele><time>2026-04-30T12:17:38.159Z</time></trkpt><trkpt lat="43.97403" lon="12.6582783"><ele>60.0</ele><time>2026-04-30T12:17:39.16Z</time></trkpt><trkpt lat="43.9739633" lon="12.6583817"><ele>60.0</ele><time>2026-04-30T12:17:40.16Z</time></trkpt><trkpt lat="43.9739133" lon="12.65849"><ele>60.0</ele><time>2026-04-30T12:17:41.159Z</time></trkpt><trkpt lat="43.9738833" lon="12.6586217"><ele>60.0</ele><time>2026-04-30T12:17:42.158Z</time></trkpt><trkpt lat="43.9738733" lon="12.65878"><ele>60.0</ele><time>2026-04-30T12:17:43.159Z</time></trkpt><trkpt lat="43.9738583" lon="12.6589533"><ele>58.75</ele><time>2026-04-30T12:17:44.16Z</time></trkpt><trkpt lat="43.97383" lon="12.659135"><ele>57.5</ele><time>2026-04-30T12:17:45.158Z</time></trkpt><trkpt lat="43.973785" lon="12.6593183"><ele>56.25</ele><time>2026-04-30T12:17:46.159Z</time></trkpt><trkpt lat="43.973725" lon="12.6595067"><ele>55.0</ele><time>2026-04-30T12:17:47.16Z</time></trkpt><trkpt lat="43.973655" lon="12.659685"><ele>53.25</ele><time>2026-04-30T12:17:48.159Z</time></trkpt><trkpt lat="43.9735733" lon="12.65985"><ele>51.5</ele><time>2026-04-30T12:17:49.159Z</time></trkpt><trkpt lat="43.9734733" lon="12.6599983"><ele>49.75</ele><time>2026-04-30T12:17:50.158Z</time></trkpt><trkpt lat="43.97336" lon="12.66013"><ele>48.0</ele><time>2026-04-30T12:17:51.159Z</time></trkpt><trkpt lat="43.97325" lon="12.6602617"><ele>46.333333333333336</ele><time>2026-04-30T12:17:52.159Z</time></trkpt><trkpt lat="43.9731467" lon="12.660405"><ele>44.66666666666667</ele><time>2026-04-30T12:17:53.159Z</time></trkpt><trkpt lat="43.973055" lon="12.66057"><ele>43.0</ele><time>2026-04-30T12:17:54.158Z</time></trkpt><trkpt lat="43.9729767" lon="12.6607583"><ele>43.0</ele><time>2026-04-30T12:17:55.159Z</time></trkpt><trkpt lat="43.9729" lon="12.6609467"><ele>43.0</ele><time>2026-04-30T12:17:56.159Z</time></trkpt><trkpt lat="43.9728233" lon="12.6611333"><ele>43.0</ele><time>2026-04-30T12:17:57.158Z</time></trkpt><trkpt lat="43.9727483" lon="12.66132"><ele>42.333333333333336</ele><time>2026-04-30T12:17:58.159Z</time></trkpt><trkpt lat="43.9726733" lon="12.6615067"><ele>41.666666666666664</ele><time>2026-04-30T12:17:59.158Z</time></trkpt><trkpt lat="43.9725967" lon="12.6616983"><ele>41.0</ele><time>2026-04-30T12:18:00.158Z</time></trkpt><trkpt lat="43.9725217" lon="12.66189"><ele>39.666666666666664</ele><time>2026-04-30T12:18:01.16Z</time></trkpt><trkpt lat="43.9724517" lon="12.6620817"><ele>38.333333333333336</ele><time>2026-04-30T12:18:02.16Z</time></trkpt><trkpt lat="43.9723883" lon="12.6622767"><ele>37.0</ele><time>2026-04-30T12:18:03.159Z</time></trkpt><trkpt lat="43.9723367" lon="12.66248"><ele>37.0</ele><time>2026-04-30T12:18:04.159Z</time></trkpt><trkpt lat="43.9722933" lon="12.66269"><ele>37.0</ele><time>2026-04-30T12:18:05.16Z</time></trkpt><trkpt lat="43.972255" lon="12.6629067"><ele>37.0</ele><time>2026-04-30T12:18:06.159Z</time></trkpt><trkpt lat="43.9722233" lon="12.6631267"><ele>35.66666666666667</ele><time>2026-04-30T12:18:07.16Z</time></trkpt><trkpt lat="43.9721917" lon="12.6633483"><ele>34.333333333333336</ele><time>2026-04-30T12:18:08.159Z</time></trkpt><trkpt lat="43.97216" lon="12.6635667"><ele>33.0</ele><time>2026-04-30T12:18:09.158Z</time></trkpt><trkpt lat="43.9721283" lon="12.663775"><ele>32.5</ele><time>2026-04-30T12:18:10.158Z</time></trkpt><trkpt lat="43.972095" lon="12.66398"><ele>32.0</ele><time>2026-04-30T12:18:11.158Z</time></trkpt><trkpt lat="43.9720617" lon="12.6641783"><ele>31.5</ele><time>2026-04-30T12:18:12.159Z</time></trkpt><trkpt lat="43.9720283" lon="12.6643633"><ele>31.0</ele><time>2026-04-30T12:18:13.157Z</time></trkpt><trkpt lat="43.971995" lon="12.6645317"><ele>31.0</ele><time>2026-04-30T12:18:14.16Z</time></trkpt><trkpt lat="43.9719583" lon="12.6646833"><ele>31.0</ele><time>2026-04-30T12:18:15.157Z</time></trkpt><trkpt lat="43.971915" lon="12.6648167"><ele>31.0</ele><time>2026-04-30T12:18:16.159Z</time></trkpt><trkpt lat="43.971865" lon="12.664935"><ele>31.0</ele><time>2026-04-30T12:18:17.159Z</time></trkpt><trkpt lat="43.971815" lon="12.6650383"><ele>31.0</ele><time>2026-04-30T12:18:18.159Z</time></trkpt><trkpt lat="43.9717817" lon="12.66513"><ele>31.000000000000004</ele><time>2026-04-30T12:18:19.157Z</time></trkpt><trkpt lat="43.97178" lon="12.66522"><ele>31.0</ele><time>2026-04-30T12:18:20.16Z</time></trkpt><trkpt lat="43.971815" lon="12.6653133"><ele>31.0</ele><time>2026-04-30T12:18:21.159Z</time></trkpt><trkpt lat="43.9718583" lon="12.66542"><ele>31.0</ele><time>2026-04-30T12:18:22.158Z</time></trkpt><trkpt lat="43.9719" lon="12.6655433"><ele>31.000000000000004</ele><time>2026-04-30T12:18:23.159Z</time></trkpt><trkpt lat="43.97194" lon="12.6656667"><ele>31.0</ele><time>2026-04-30T12:18:24.159Z</time></trkpt><trkpt lat="43.9719733" lon="12.665855"><ele>31.666666666666668</ele><time>2026-04-30T12:18:25.158Z</time></trkpt><trkpt lat="43.9719967" lon="12.666065"><ele>32.333333333333336</ele><time>2026-04-30T12:18:26.159Z</time></trkpt><trkpt lat="43.97203" lon="12.666285"><ele>33.0</ele><time>2026-04-30T12:18:27.159Z</time></trkpt><trkpt lat="43.9720367" lon="12.666475"><ele>33.0</ele><time>2026-04-30T12:18:28.158Z</time></trkpt><trkpt lat="43.972015" lon="12.666645"><ele>33.0</ele><time>2026-04-30T12:18:29.158Z</time></trkpt><trkpt lat="43.97198" lon="12.6668133"><ele>33.0</ele><time>2026-04-30T12:18:30.158Z</time></trkpt><trkpt lat="43.9719367" lon="12.6669717"><ele>33.0</ele><time>2026-04-30T12:18:31.158Z</time></trkpt><trkpt lat="43.9719" lon="12.66713"><ele>33.0</ele><time>2026-04-30T12:18:32.158Z</time></trkpt><trkpt lat="43.9718783" lon="12.66728"><ele>33.0</ele><time>2026-04-30T12:18:33.158Z</time></trkpt><trkpt lat="43.971865" lon="12.6674133"><ele>33.0</ele><time>2026-04-30T12:18:34.159Z</time></trkpt><trkpt lat="43.9718567" lon="12.6675167"><ele>33.0</ele><time>2026-04-30T12:18:35.158Z</time></trkpt><trkpt lat="43.97185" lon="12.6676333"><ele>33.0</ele><time>2026-04-30T12:18:37.157Z</time></trkpt><trkpt lat="43.9718617" lon="12.6677317"><ele>33.0</ele><time>2026-04-30T12:18:40.159Z</time></trkpt><trkpt lat="43.9719383" lon="12.66774"><ele>33.0</ele><time>2026-04-30T12:18:42.158Z</time></trkpt><trkpt lat="43.972" lon="12.6677067"><ele>33.0</ele><time>2026-04-30T12:18:43.159Z</time></trkpt><trkpt lat="43.972065" lon="12.6676567"><ele>33.0</ele><time>2026-04-30T12:18:44.159Z</time></trkpt><trkpt lat="43.9721383" lon="12.6675933"><ele>33.0</ele><time>2026-04-30T12:18:45.158Z</time></trkpt><trkpt lat="43.9722183" lon="12.6675217"><ele>33.0</ele><time>2026-04-30T12:18:46.159Z</time></trkpt><trkpt lat="43.9723033" lon="12.6674417"><ele>33.0</ele><time>2026-04-30T12:18:47.159Z</time></trkpt><trkpt lat="43.9723983" lon="12.66735"><ele>33.0</ele><time>2026-04-30T12:18:48.159Z</time></trkpt><trkpt lat="43.9725067" lon="12.6672517"><ele>33.0</ele><time>2026-04-30T12:18:49.158Z</time></trkpt><trkpt lat="43.97262" lon="12.6671583"><ele>33.0</ele><time>2026-04-30T12:18:50.159Z</time></trkpt><trkpt lat="43.9727367" lon="12.66707"><ele>33.0</ele><time>2026-04-30T12:18:51.158Z</time></trkpt><trkpt lat="43.97286" lon="12.66699"><ele>34.5</ele><time>2026-04-30T12:18:52.159Z</time></trkpt><trkpt lat="43.972995" lon="12.6669183"><ele>36.0</ele><time>2026-04-30T12:18:53.158Z</time></trkpt><trkpt lat="43.9731333" lon="12.6668583"><ele>37.5</ele><time>2026-04-30T12:18:54.158Z</time></trkpt><trkpt lat="43.9732767" lon="12.6668017"><ele>39.0</ele><time>2026-04-30T12:18:55.158Z</time></trkpt><trkpt lat="43.9734167" lon="12.6667483"><ele>40.25</ele><time>2026-04-30T12:18:56.158Z</time></trkpt><trkpt lat="43.9735483" lon="12.6667017"><ele>41.5</ele><time>2026-04-30T12:18:57.158Z</time></trkpt><trkpt lat="43.9736767" lon="12.6666633"><ele>42.75</ele><time>2026-04-30T12:18:58.159Z</time></trkpt><trkpt lat="43.9738133" lon="12.6666467"><ele>44.0</ele><time>2026-04-30T12:18:59.157Z</time></trkpt><trkpt lat="43.9739567" lon="12.666665"><ele>44.0</ele><time>2026-04-30T12:19:00.158Z</time></trkpt><trkpt lat="43.9741" lon="12.6667167"><ele>44.0</ele><time>2026-04-30T12:19:01.159Z</time></trkpt><trkpt lat="43.97424" lon="12.6667583"><ele>44.0</ele><time>2026-04-30T12:19:02.159Z</time></trkpt><trkpt lat="43.9743733" lon="12.6667567"><ele>44.0</ele><time>2026-04-30T12:19:03.158Z</time></trkpt><trkpt lat="43.974495" lon="12.6667133"><ele>45.5</ele><time>2026-04-30T12:19:04.158Z</time></trkpt><trkpt lat="43.974615" lon="12.666635"><ele>47.0</ele><time>2026-04-30T12:19:05.158Z</time></trkpt><trkpt lat="43.9747383" lon="12.6665367"><ele>48.5</ele><time>2026-04-30T12:19:06.158Z</time></trkpt><trkpt lat="43.97486" lon="12.666425"><ele>50.0</ele><time>2026-04-30T12:19:07.159Z</time></trkpt><trkpt lat="43.9749817" lon="12.6663117"><ele>50.75</ele><time>2026-04-30T12:19:08.159Z</time></trkpt><trkpt lat="43.9751" lon="12.6662017"><ele>51.5</ele><time>2026-04-30T12:19:09.157Z</time></trkpt><trkpt lat="43.9752117" lon="12.6661"><ele>52.25</ele><time>2026-04-30T12:19:10.158Z</time></trkpt><trkpt lat="43.975325" lon="12.6659967"><ele>53.0</ele><time>2026-04-30T12:19:11.158Z</time></trkpt><trkpt lat="43.9754367" lon="12.66589"><ele>55.0</ele><time>2026-04-30T12:19:12.158Z</time></trkpt><trkpt lat="43.9755517" lon="12.6657783"><ele>57.0</ele><time>2026-04-30T12:19:13.158Z</time></trkpt><trkpt lat="43.97567" lon="12.6656617"><ele>59.0</ele><time>2026-04-30T12:19:14.158Z</time></trkpt><trkpt lat="43.97579" lon="12.6655383"><ele>61.0</ele><time>2026-04-30T12:19:15.158Z</time></trkpt><trkpt lat="43.9759117" lon="12.6654183"><ele>61.0</ele><time>2026-04-30T12:19:16.16Z</time></trkpt><trkpt lat="43.9760317" lon="12.6653"><ele>61.0</ele><time>2026-04-30T12:19:17.158Z</time></trkpt><trkpt lat="43.9761567" lon="12.6651933"><ele>61.0</ele><time>2026-04-30T12:19:18.157Z</time></trkpt><trkpt lat="43.9762867" lon="12.6650983"><ele>61.0</ele><time>2026-04-30T12:19:19.159Z</time></trkpt><trkpt lat="43.9764333" lon="12.6650067"><ele>63.0</ele><time>2026-04-30T12:19:20.159Z</time></trkpt><trkpt lat="43.9765883" lon="12.6649217"><ele>65.0</ele><time>2026-04-30T12:19:21.158Z</time></trkpt><trkpt lat="43.976735" lon="12.664845"><ele>67.0</ele><time>2026-04-30T12:19:22.158Z</time></trkpt><trkpt lat="43.9768767" lon="12.6647733"><ele>67.0</ele><time>2026-04-30T12:19:23.159Z</time></trkpt><trkpt lat="43.977015" lon="12.6647017"><ele>67.0</ele><time>2026-04-30T12:19:24.158Z</time></trkpt><trkpt lat="43.9771417" lon="12.66463"><ele>67.0</ele><time>2026-04-30T12:19:25.158Z</time></trkpt><trkpt lat="43.9772617" lon="12.6645683"><ele>67.0</ele><time>2026-04-30T12:19:26.159Z</time></trkpt><trkpt lat="43.977375" lon="12.6645117"><ele>67.0</ele><time>2026-04-30T12:19:27.158Z</time></trkpt><trkpt lat="43.9774917" lon="12.6644517"><ele>67.0</ele><time>2026-04-30T12:19:28.159Z</time></trkpt><trkpt lat="43.97761" lon="12.6643933"><ele>67.0</ele><time>2026-04-30T12:19:29.159Z</time></trkpt><trkpt lat="43.9777383" lon="12.6643333"><ele>67.0</ele><time>2026-04-30T12:19:30.158Z</time></trkpt><trkpt lat="43.977875" lon="12.6642833"><ele>67.5</ele><time>2026-04-30T12:19:31.159Z</time></trkpt><trkpt lat="43.9780117" lon="12.6642483"><ele>68.0</ele><time>2026-04-30T12:19:32.16Z</time></trkpt><trkpt lat="43.9781433" lon="12.66423"><ele>68.5</ele><time>2026-04-30T12:19:33.16Z</time></trkpt><trkpt lat="43.978275" lon="12.664225"><ele>69.0</ele><time>2026-04-30T12:19:34.159Z</time></trkpt><trkpt lat="43.9784083" lon="12.6642333"><ele>69.0</ele><time>2026-04-30T12:19:35.16Z</time></trkpt><trkpt lat="43.9785383" lon="12.6642733"><ele>69.0</ele><time>2026-04-30T12:19:36.159Z</time></trkpt><trkpt lat="43.97867" lon="12.6643433"><ele>69.0</ele><time>2026-04-30T12:19:37.161Z</time></trkpt><trkpt lat="43.978805" lon="12.6644217"><ele>69.0</ele><time>2026-04-30T12:19:38.16Z</time></trkpt><trkpt lat="43.978945" lon="12.6645"><ele>69.0</ele><time>2026-04-30T12:19:39.158Z</time></trkpt><trkpt lat="43.9790883" lon="12.6645633"><ele>69.0</ele><time>2026-04-30T12:19:40.159Z</time></trkpt><trkpt lat="43.9792383" lon="12.6646117"><ele>69.0</ele><time>2026-04-30T12:19:41.158Z</time></trkpt><trkpt lat="43.9793817" lon="12.66465"><ele>69.25</ele><time>2026-04-30T12:19:42.159Z</time></trkpt><trkpt lat="43.9795133" lon="12.664685"><ele>69.5</ele><time>2026-04-30T12:19:43.158Z</time></trkpt><trkpt lat="43.9796333" lon="12.664705"><ele>69.75</ele><time>2026-04-30T12:19:44.16Z</time></trkpt><trkpt lat="43.979745" lon="12.664715"><ele>70.0</ele><time>2026-04-30T12:19:45.158Z</time></trkpt><trkpt lat="43.9798417" lon="12.6647233"><ele>70.0</ele><time>2026-04-30T12:19:46.159Z</time></trkpt><trkpt lat="43.9799383" lon="12.6647217"><ele>70.0</ele><time>2026-04-30T12:19:47.158Z</time></trkpt><trkpt lat="43.9800367" lon="12.6647117"><ele>70.0</ele><time>2026-04-30T12:19:48.158Z</time></trkpt><trkpt lat="43.9801367" lon="12.664695"><ele>70.0</ele><time>2026-04-30T12:19:49.158Z</time></trkpt><trkpt lat="43.9802433" lon="12.6646667"><ele>70.0</ele><time>2026-04-30T12:19:50.158Z</time></trkpt><trkpt lat="43.9803567" lon="12.6646233"><ele>69.5</ele><time>2026-04-30T12:19:51.158Z</time></trkpt><trkpt lat="43.9804683" lon="12.6645667"><ele>69.0</ele><time>2026-04-30T12:19:52.158Z</time></trkpt><trkpt lat="43.98058" lon="12.6644967"><ele>68.5</ele><time>2026-04-30T12:19:53.159Z</time></trkpt><trkpt lat="43.9806867" lon="12.6644233"><ele>68.0</ele><time>2026-04-30T12:19:54.159Z</time></trkpt><trkpt lat="43.9807883" lon="12.6643533"><ele>66.6</ele><time>2026-04-30T12:19:55.158Z</time></trkpt><trkpt lat="43.9808883" lon="12.664295"><ele>65.19999999999999</ele><time>2026-04-30T12:19:56.158Z</time></trkpt><trkpt lat="43.9809867" lon="12.6642233"><ele>63.8</ele><time>2026-04-30T12:19:57.158Z</time></trkpt><trkpt lat="43.98108" lon="12.6641633"><ele>62.4</ele><time>2026-04-30T12:19:58.158Z</time></trkpt><trkpt lat="43.9811667" lon="12.6640817"><ele>61.0</ele><time>2026-04-30T12:19:59.159Z</time></trkpt><trkpt lat="43.98125" lon="12.663985"><ele>61.0</ele><time>2026-04-30T12:20:00.159Z</time></trkpt><trkpt lat="43.9813317" lon="12.6638817"><ele>61.0</ele><time>2026-04-30T12:20:01.159Z</time></trkpt><trkpt lat="43.9814083" lon="12.6637667"><ele>61.0</ele><time>2026-04-30T12:20:02.161Z</time></trkpt><trkpt lat="43.9814817" lon="12.663645"><ele>61.0</ele><time>2026-04-30T12:20:03.158Z</time></trkpt><trkpt lat="43.981555" lon="12.663515"><ele>60.199999999999996</ele><time>2026-04-30T12:20:04.158Z</time></trkpt><trkpt lat="43.9816267" lon="12.6633833"><ele>59.39999999999999</ele><time>2026-04-30T12:20:05.158Z</time></trkpt><trkpt lat="43.9816983" lon="12.663255"><ele>58.6</ele><time>2026-04-30T12:20:06.159Z</time></trkpt><trkpt lat="43.9817683" lon="12.6631433"><ele>57.8</ele><time>2026-04-30T12:20:07.158Z</time></trkpt><trkpt lat="43.981845" lon="12.6630417"><ele>57.0</ele><time>2026-04-30T12:20:08.159Z</time></trkpt><trkpt lat="43.98193" lon="12.66295"><ele>57.0</ele><time>2026-04-30T12:20:09.158Z</time></trkpt><trkpt lat="43.98202" lon="12.6628717"><ele>57.0</ele><time>2026-04-30T12:20:10.158Z</time></trkpt><trkpt lat="43.982105" lon="12.6628017"><ele>57.0</ele><time>2026-04-30T12:20:11.159Z</time></trkpt><trkpt lat="43.982175" lon="12.6627417"><ele>57.0</ele><time>2026-04-30T12:20:12.158Z</time></trkpt><trkpt lat="43.982235" lon="12.6626933"><ele>57.0</ele><time>2026-04-30T12:20:13.158Z</time></trkpt><trkpt lat="43.98233" lon="12.662615"><ele>57.8</ele><time>2026-04-30T12:20:15.158Z</time></trkpt><trkpt lat="43.9824217" lon="12.6625667"><ele>58.6</ele><time>2026-04-30T12:20:17.159Z</time></trkpt><trkpt lat="43.9824867" lon="12.6625217"><ele>59.39999999999999</ele><time>2026-04-30T12:20:18.158Z</time></trkpt><trkpt lat="43.98256" lon="12.66247"><ele>60.199999999999996</ele><time>2026-04-30T12:20:19.158Z</time></trkpt><trkpt lat="43.9826483" lon="12.6624017"><ele>61.0</ele><time>2026-04-30T12:20:20.159Z</time></trkpt><trkpt lat="43.9827467" lon="12.6623167"><ele>61.0</ele><time>2026-04-30T12:20:21.158Z</time></trkpt><trkpt lat="43.98285" lon="12.6622217"><ele>61.0</ele><time>2026-04-30T12:20:22.159Z</time></trkpt><trkpt lat="43.9829517" lon="12.66213"><ele>61.0</ele><time>2026-04-30T12:20:23.159Z</time></trkpt><trkpt lat="43.98305" lon="12.66204"><ele>61.0</ele><time>2026-04-30T12:20:24.157Z</time></trkpt><trkpt lat="43.9831433" lon="12.6619583"><ele>62.0</ele><time>2026-04-30T12:20:25.158Z</time></trkpt><trkpt lat="43.983225" lon="12.6618883"><ele>62.99999999999999</ele><time>2026-04-30T12:20:26.16Z</time></trkpt><trkpt lat="43.9833067" lon="12.6618217"><ele>63.99999999999999</ele><time>2026-04-30T12:20:27.158Z</time></trkpt><trkpt lat="43.98339" lon="12.6617567"><ele>65.0</ele><time>2026-04-30T12:20:28.159Z</time></trkpt><trkpt lat="43.9834717" lon="12.6616983"><ele>66.0</ele><time>2026-04-30T12:20:29.157Z</time></trkpt><trkpt lat="43.9835533" lon="12.6616467"><ele>66.0</ele><time>2026-04-30T12:20:30.157Z</time></trkpt><trkpt lat="43.983635" lon="12.6615983"><ele>66.0</ele><time>2026-04-30T12:20:31.158Z</time></trkpt><trkpt lat="43.9837217" lon="12.6615467"><ele>66.0</ele><time>2026-04-30T12:20:32.16Z</time></trkpt><trkpt lat="43.9838133" lon="12.6614867"><ele>66.0</ele><time>2026-04-30T12:20:33.158Z</time></trkpt><trkpt lat="43.983905" lon="12.661425"><ele>66.0</ele><time>2026-04-30T12:20:34.159Z</time></trkpt><trkpt lat="43.9839933" lon="12.6613667"><ele>66.0</ele><time>2026-04-30T12:20:35.158Z</time></trkpt><trkpt lat="43.9840767" lon="12.661315"><ele>66.0</ele><time>2026-04-30T12:20:36.158Z</time></trkpt><trkpt lat="43.98415" lon="12.661275"><ele>66.0</ele><time>2026-04-30T12:20:37.159Z</time></trkpt><trkpt lat="43.9842167" lon="12.6612433"><ele>66.0</ele><time>2026-04-30T12:20:38.159Z</time></trkpt><trkpt lat="43.98433" lon="12.66129"><ele>66.0</ele><time>2026-04-30T12:20:40.159Z</time></trkpt><trkpt lat="43.98438" lon="12.6613517"><ele>66.0</ele><time>2026-04-30T12:20:41.16Z</time></trkpt><trkpt lat="43.9844083" lon="12.66152"><ele>64.0</ele><time>2026-04-30T12:20:42.158Z</time></trkpt><trkpt lat="43.984435" lon="12.661675"><ele>62.0</ele><time>2026-04-30T12:20:43.159Z</time></trkpt><trkpt lat="43.984445" lon="12.6618667"><ele>60.0</ele><time>2026-04-30T12:20:44.159Z</time></trkpt><trkpt lat="43.9844483" lon="12.6620883"><ele>58.0</ele><time>2026-04-30T12:20:45.159Z</time></trkpt><trkpt lat="43.9844383" lon="12.6623383"><ele>57.33333333333333</ele><time>2026-04-30T12:20:46.159Z</time></trkpt><trkpt lat="43.984435" lon="12.6625867"><ele>56.66666666666667</ele><time>2026-04-30T12:20:47.157Z</time></trkpt><trkpt lat="43.9844383" lon="12.6628283"><ele>56.0</ele><time>2026-04-30T12:20:48.159Z</time></trkpt><trkpt lat="43.9844467" lon="12.663065"><ele>54.66666666666667</ele><time>2026-04-30T12:20:49.159Z</time></trkpt><trkpt lat="43.9844567" lon="12.6632983"><ele>53.33333333333333</ele><time>2026-04-30T12:20:50.158Z</time></trkpt><trkpt lat="43.9844717" lon="12.66352"><ele>52.0</ele><time>2026-04-30T12:20:51.159Z</time></trkpt><trkpt lat="43.9844867" lon="12.6637333"><ele>51.33333333333333</ele><time>2026-04-30T12:20:52.158Z</time></trkpt><trkpt lat="43.984505" lon="12.6639583"><ele>50.66666666666667</ele><time>2026-04-30T12:20:53.159Z</time></trkpt><trkpt lat="43.9845217" lon="12.66418"><ele>50.0</ele><time>2026-04-30T12:20:54.16Z</time></trkpt><trkpt lat="43.9845467" lon="12.66441"><ele>50.333333333333336</ele><time>2026-04-30T12:20:55.158Z</time></trkpt><trkpt lat="43.9845817" lon="12.66465"><ele>50.66666666666667</ele><time>2026-04-30T12:20:56.16Z</time></trkpt><trkpt lat="43.9846233" lon="12.6648983"><ele>51.0</ele><time>2026-04-30T12:20:57.16Z</time></trkpt><trkpt lat="43.9846683" lon="12.6651367"><ele>50.66666666666667</ele><time>2026-04-30T12:20:58.159Z</time></trkpt><trkpt lat="43.9847067" lon="12.66536"><ele>50.333333333333336</ele><time>2026-04-30T12:20:59.16Z</time></trkpt><trkpt lat="43.984745" lon="12.6655733"><ele>50.0</ele><time>2026-04-30T12:21:00.159Z</time></trkpt><trkpt lat="43.9847783" lon="12.6657733"><ele>50.0</ele><time>2026-04-30T12:21:01.159Z</time></trkpt><trkpt lat="43.984815" lon="12.6659633"><ele>50.0</ele><time>2026-04-30T12:21:02.159Z</time></trkpt><trkpt lat="43.9848517" lon="12.6661383"><ele>50.0</ele><time>2026-04-30T12:21:03.157Z</time></trkpt><trkpt lat="43.984885" lon="12.666305"><ele>50.0</ele><time>2026-04-30T12:21:04.158Z</time></trkpt><trkpt lat="43.9849217" lon="12.6664683"><ele>48.8</ele><time>2026-04-30T12:21:05.16Z</time></trkpt><trkpt lat="43.98496" lon="12.666625"><ele>47.6</ele><time>2026-04-30T12:21:06.159Z</time></trkpt><trkpt lat="43.9850017" lon="12.6667633"><ele>46.400000000000006</ele><time>2026-04-30T12:21:07.157Z</time></trkpt><trkpt lat="43.98505" lon="12.6668867"><ele>45.2</ele><time>2026-04-30T12:21:08.161Z</time></trkpt><trkpt lat="43.985115" lon="12.66699"><ele>44.0</ele><time>2026-04-30T12:21:09.158Z</time></trkpt><trkpt lat="43.9851917" lon="12.667065"><ele>41.400000000000006</ele><time>2026-04-30T12:21:10.159Z</time></trkpt><trkpt lat="43.9852817" lon="12.6671067"><ele>38.800000000000004</ele><time>2026-04-30T12:21:11.159Z</time></trkpt><trkpt lat="43.9853733" lon="12.66711"><ele>36.2</ele><time>2026-04-30T12:21:12.159Z</time></trkpt><trkpt lat="43.9854683" lon="12.6670917"><ele>33.6</ele><time>2026-04-30T12:21:13.159Z</time></trkpt><trkpt lat="43.9855667" lon="12.667015"><ele>31.0</ele><time>2026-04-30T12:21:14.161Z</time></trkpt><trkpt lat="43.98565" lon="12.66691"><ele>31.0</ele><time>2026-04-30T12:21:15.159Z</time></trkpt><trkpt lat="43.9857267" lon="12.6667567"><ele>31.0</ele><time>2026-04-30T12:21:16.158Z</time></trkpt><trkpt lat="43.985795" lon="12.6665967"><ele>31.0</ele><time>2026-04-30T12:21:17.158Z</time></trkpt><trkpt lat="43.98585" lon="12.666455"><ele>31.0</ele><time>2026-04-30T12:21:18.157Z</time></trkpt><trkpt lat="43.9859017" lon="12.6663333"><ele>29.666666666666668</ele><time>2026-04-30T12:21:19.159Z</time></trkpt><trkpt lat="43.9859517" lon="12.6662383"><ele>28.333333333333336</ele><time>2026-04-30T12:21:20.16Z</time></trkpt><trkpt lat="43.986005" lon="12.6661683"><ele>27.0</ele><time>2026-04-30T12:21:21.159Z</time></trkpt><trkpt lat="43.98606" lon="12.6661133"><ele>25.666666666666668</ele><time>2026-04-30T12:21:22.158Z</time></trkpt><trkpt lat="43.9861233" lon="12.6660767"><ele>24.333333333333336</ele><time>2026-04-30T12:21:23.158Z</time></trkpt><trkpt lat="43.9861983" lon="12.666115"><ele>23.0</ele><time>2026-04-30T12:21:24.158Z</time></trkpt><trkpt lat="43.9862617" lon="12.6662"><ele>23.0</ele><time>2026-04-30T12:21:25.158Z</time></trkpt><trkpt lat="43.9862917" lon="12.6663317"><ele>23.0</ele><time>2026-04-30T12:21:26.159Z</time></trkpt><trkpt lat="43.9863083" lon="12.6664883"><ele>23.0</ele><time>2026-04-30T12:21:27.157Z</time></trkpt><trkpt lat="43.9863133" lon="12.6666717"><ele>23.0</ele><time>2026-04-30T12:21:28.158Z</time></trkpt><trkpt lat="43.9863183" lon="12.6668733"><ele>23.25</ele><time>2026-04-30T12:21:29.158Z</time></trkpt><trkpt lat="43.986325" lon="12.6670717"><ele>23.5</ele><time>2026-04-30T12:21:30.157Z</time></trkpt><trkpt lat="43.9863317" lon="12.6672517"><ele>23.75</ele><time>2026-04-30T12:21:31.156Z</time></trkpt><trkpt lat="43.986345" lon="12.6674067"><ele>24.0</ele><time>2026-04-30T12:21:32.158Z</time></trkpt><trkpt lat="43.9863633" lon="12.667545"><ele>24.0</ele><time>2026-04-30T12:21:33.157Z</time></trkpt><trkpt lat="43.9863883" lon="12.6676817"><ele>24.0</ele><time>2026-04-30T12:21:34.156Z</time></trkpt><trkpt lat="43.9864233" lon="12.6678117"><ele>24.0</ele><time>2026-04-30T12:21:35.16Z</time></trkpt><trkpt lat="43.9864633" lon="12.66793"><ele>24.0</ele><time>2026-04-30T12:21:36.158Z</time></trkpt><trkpt lat="43.9865" lon="12.6680217"><ele>24.0</ele><time>2026-04-30T12:21:37.16Z</time></trkpt><trkpt lat="43.9865783" lon="12.6681383"><ele>23.799999999999997</ele><time>2026-04-30T12:21:39.158Z</time></trkpt><trkpt lat="43.986625" lon="12.6681983"><ele>23.599999999999998</ele><time>2026-04-30T12:21:40.159Z</time></trkpt><trkpt lat="43.986685" lon="12.66828"><ele>23.4</ele><time>2026-04-30T12:21:41.159Z</time></trkpt><trkpt lat="43.9867567" lon="12.6683817"><ele>23.2</ele><time>2026-04-30T12:21:42.158Z</time></trkpt><trkpt lat="43.9868417" lon="12.6684933"><ele>23.0</ele><time>2026-04-30T12:21:43.158Z</time></trkpt><trkpt lat="43.9869317" lon="12.66861"><ele>21.5</ele><time>2026-04-30T12:21:44.158Z</time></trkpt><trkpt lat="43.98701" lon="12.6687283"><ele>20.0</ele><time>2026-04-30T12:21:45.16Z</time></trkpt><trkpt lat="43.987095" lon="12.66885"><ele>18.5</ele><time>2026-04-30T12:21:46.159Z</time></trkpt><trkpt lat="43.9871833" lon="12.6689683"><ele>17.0</ele><time>2026-04-30T12:21:47.158Z</time></trkpt><trkpt lat="43.9872667" lon="12.66908"><ele>17.0</ele><time>2026-04-30T12:21:48.158Z</time></trkpt><trkpt lat="43.987355" lon="12.669185"><ele>17.0</ele><time>2026-04-30T12:21:49.16Z</time></trkpt><trkpt lat="43.9874367" lon="12.6692833"><ele>17.0</ele><time>2026-04-30T12:21:50.158Z</time></trkpt><trkpt lat="43.9875117" lon="12.6693717"><ele>17.0</ele><time>2026-04-30T12:21:51.158Z</time></trkpt><trkpt lat="43.9875867" lon="12.66945"><ele>17.0</ele><time>2026-04-30T12:21:52.158Z</time></trkpt><trkpt lat="43.9876567" lon="12.6695283"><ele>15.8</ele><time>2026-04-30T12:21:53.158Z</time></trkpt><trkpt lat="43.9877267" lon="12.6696"><ele>14.6</ele><time>2026-04-30T12:21:54.157Z</time></trkpt><trkpt lat="43.9878033" lon="12.6696767"><ele>13.4</ele><time>2026-04-30T12:21:55.158Z</time></trkpt><trkpt lat="43.9878833" lon="12.669755"><ele>12.200000000000001</ele><time>2026-04-30T12:21:56.158Z</time></trkpt><trkpt lat="43.9879633" lon="12.6698317"><ele>11.0</ele><time>2026-04-30T12:21:57.158Z</time></trkpt><trkpt lat="43.988045" lon="12.6699167"><ele>11.0</ele><time>2026-04-30T12:21:58.159Z</time></trkpt><trkpt lat="43.98813" lon="12.6699983"><ele>11.0</ele><time>2026-04-30T12:21:59.16Z</time></trkpt><trkpt lat="43.9882083" lon="12.6700767"><ele>11.0</ele><time>2026-04-30T12:22:00.159Z</time></trkpt><trkpt lat="43.9882783" lon="12.670145"><ele>11.0</ele><time>2026-04-30T12:22:01.159Z</time></trkpt><trkpt lat="43.9883333" lon="12.670205"><ele>11.0</ele><time>2026-04-30T12:22:02.159Z</time></trkpt><trkpt lat="43.98842" lon="12.6702967"><ele>10.333333333333332</ele><time>2026-04-30T12:22:04.158Z</time></trkpt><trkpt lat="43.9885" lon="12.67038"><ele>9.666666666666666</ele><time>2026-04-30T12:22:15.158Z</time></trkpt><trkpt lat="43.98856" lon="12.6704417"><ele>9.0</ele><time>2026-04-30T12:22:17.158Z</time></trkpt><trkpt lat="43.98863" lon="12.67051"><ele>8.333333333333334</ele><time>2026-04-30T12:22:19.158Z</time></trkpt><trkpt lat="43.988675" lon="12.6706083"><ele>7.666666666666667</ele><time>2026-04-30T12:22:21.158Z</time></trkpt><trkpt lat="43.988665" lon="12.6707367"><ele>7.0</ele><time>2026-04-30T12:22:23.16Z</time></trkpt><trkpt lat="43.988635" lon="12.67082"><ele>7.0</ele><time>2026-04-30T12:22:24.159Z</time></trkpt><trkpt lat="43.988575" lon="12.67092"><ele>7.0</ele><time>2026-04-30T12:22:25.158Z</time></trkpt><trkpt lat="43.988505" lon="12.6710333"><ele>7.0</ele><time>2026-04-30T12:22:26.158Z</time></trkpt><trkpt lat="43.9884183" lon="12.6711617"><ele>7.0</ele><time>2026-04-30T12:22:27.159Z</time></trkpt><trkpt lat="43.9883317" lon="12.6713"><ele>7.5</ele><time>2026-04-30T12:22:28.159Z</time></trkpt><trkpt lat="43.988245" lon="12.6714433"><ele>8.0</ele><time>2026-04-30T12:22:29.159Z</time></trkpt><trkpt lat="43.9881683" lon="12.6715783"><ele>8.5</ele><time>2026-04-30T12:22:30.159Z</time></trkpt><trkpt lat="43.988095" lon="12.6716967"><ele>9.0</ele><time>2026-04-30T12:22:31.158Z</time></trkpt><trkpt lat="43.9880267" lon="12.6718033"><ele>9.0</ele><time>2026-04-30T12:22:32.158Z</time></trkpt><trkpt lat="43.987965" lon="12.6718983"><ele>9.0</ele><time>2026-04-30T12:22:33.158Z</time></trkpt><trkpt lat="43.9878967" lon="12.6719717"><ele>9.0</ele><time>2026-04-30T12:22:34.157Z</time></trkpt><trkpt lat="43.9878183" lon="12.6720283"><ele>9.0</ele><time>2026-04-30T12:22:35.158Z</time></trkpt><trkpt lat="43.9877267" lon="12.672065"><ele>9.0</ele><time>2026-04-30T12:22:36.159Z</time></trkpt><trkpt lat="43.9876183" lon="12.6720883"><ele>9.5</ele><time>2026-04-30T12:22:37.16Z</time></trkpt><trkpt lat="43.9874967" lon="12.6721183"><ele>10.0</ele><time>2026-04-30T12:22:38.159Z</time></trkpt><trkpt lat="43.9873767" lon="12.6721567"><ele>10.5</ele><time>2026-04-30T12:22:39.159Z</time></trkpt><trkpt lat="43.987255" lon="12.6722033"><ele>11.0</ele><time>2026-04-30T12:22:40.159Z</time></trkpt><trkpt lat="43.9871317" lon="12.6722667"><ele>11.0</ele><time>2026-04-30T12:22:41.158Z</time></trkpt><trkpt lat="43.9869917" lon="12.6723433"><ele>11.0</ele><time>2026-04-30T12:22:42.158Z</time></trkpt><trkpt lat="43.986855" lon="12.6724233"><ele>11.0</ele><time>2026-04-30T12:22:43.159Z</time></trkpt><trkpt lat="43.9867133" lon="12.6725"><ele>11.666666666666666</ele><time>2026-04-30T12:22:44.159Z</time></trkpt><trkpt lat="43.9865683" lon="12.6725767"><ele>12.333333333333332</ele><time>2026-04-30T12:22:45.159Z</time></trkpt><trkpt lat="43.9864167" lon="12.672655"><ele>13.0</ele><time>2026-04-30T12:22:46.159Z</time></trkpt><trkpt lat="43.9862633" lon="12.67274"><ele>12.666666666666666</ele><time>2026-04-30T12:22:47.159Z</time></trkpt><trkpt lat="43.9861083" lon="12.6728183"><ele>12.333333333333332</ele><time>2026-04-30T12:22:48.16Z</time></trkpt><trkpt lat="43.98595" lon="12.6728933"><ele>12.0</ele><time>2026-04-30T12:22:49.159Z</time></trkpt><trkpt lat="43.9857917" lon="12.6729717"><ele>12.0</ele><time>2026-04-30T12:22:50.158Z</time></trkpt><trkpt lat="43.985635" lon="12.6730517"><ele>12.0</ele><time>2026-04-30T12:22:51.159Z</time></trkpt><trkpt lat="43.9854767" lon="12.6731333"><ele>12.0</ele><time>2026-04-30T12:22:52.159Z</time></trkpt><trkpt lat="43.9853167" lon="12.6732117"><ele>12.0</ele><time>2026-04-30T12:22:53.159Z</time></trkpt><trkpt lat="43.9851533" lon="12.67329"><ele>12.0</ele><time>2026-04-30T12:22:54.158Z</time></trkpt><trkpt lat="43.9849917" lon="12.673365"><ele>12.0</ele><time>2026-04-30T12:22:55.157Z</time></trkpt><trkpt lat="43.9848233" lon="12.6734367"><ele>12.0</ele><time>2026-04-30T12:22:56.158Z</time></trkpt><trkpt lat="43.98465" lon="12.6735033"><ele>12.0</ele><time>2026-04-30T12:22:57.158Z</time></trkpt><trkpt lat="43.98448" lon="12.67357"><ele>12.0</ele><time>2026-04-30T12:22:58.159Z</time></trkpt><trkpt lat="43.984305" lon="12.6736333"><ele>12.666666666666668</ele><time>2026-04-30T12:22:59.159Z</time></trkpt><trkpt lat="43.98413" lon="12.6736883"><ele>13.333333333333334</ele><time>2026-04-30T12:23:00.158Z</time></trkpt><trkpt lat="43.983955" lon="12.6737417"><ele>14.0</ele><time>2026-04-30T12:23:01.158Z</time></trkpt><trkpt lat="43.98378" lon="12.6737933"><ele>14.0</ele><time>2026-04-30T12:23:02.159Z</time></trkpt><trkpt lat="43.9836083" lon="12.6738383"><ele>14.0</ele><time>2026-04-30T12:23:03.159Z</time></trkpt><trkpt lat="43.9834367" lon="12.6738833"><ele>14.0</ele><time>2026-04-30T12:23:04.159Z</time></trkpt><trkpt lat="43.9832683" lon="12.6739267"><ele>14.0</ele><time>2026-04-30T12:23:05.16Z</time></trkpt><trkpt lat="43.9831017" lon="12.6739667"><ele>14.0</ele><time>2026-04-30T12:23:06.159Z</time></trkpt><trkpt lat="43.9829367" lon="12.6739967"><ele>14.0</ele><time>2026-04-30T12:23:07.158Z</time></trkpt><trkpt lat="43.9827683" lon="12.6740233"><ele>14.0</ele><time>2026-04-30T12:23:08.159Z</time></trkpt><trkpt lat="43.9826" lon="12.6740517"><ele>14.0</ele><time>2026-04-30T12:23:09.16Z</time></trkpt><trkpt lat="43.98243" lon="12.674075"><ele>14.0</ele><time>2026-04-30T12:23:10.158Z</time></trkpt><trkpt lat="43.9822583" lon="12.6740917"><ele>14.333333333333334</ele><time>2026-04-30T12:23:11.16Z</time></trkpt><trkpt lat="43.9820867" lon="12.6741083"><ele>14.666666666666668</ele><time>2026-04-30T12:23:12.161Z</time></trkpt><trkpt lat="43.981915" lon="12.6741217"><ele>15.0</ele><time>2026-04-30T12:23:13.159Z</time></trkpt><trkpt lat="43.98174" lon="12.6741317"><ele>14.666666666666668</ele><time>2026-04-30T12:23:14.159Z</time></trkpt><trkpt lat="43.98156" lon="12.6741367"><ele>14.333333333333334</ele><time>2026-04-30T12:23:15.158Z</time></trkpt><trkpt lat="43.9813817" lon="12.6741383"><ele>14.0</ele><time>2026-04-30T12:23:16.158Z</time></trkpt><trkpt lat="43.9812017" lon="12.6741383"><ele>14.0</ele><time>2026-04-30T12:23:17.159Z</time></trkpt><trkpt lat="43.9810183" lon="12.674135"><ele>14.0</ele><time>2026-04-30T12:23:18.159Z</time></trkpt><trkpt lat="43.980835" lon="12.6741283"><ele>14.0</ele><time>2026-04-30T12:23:19.159Z</time></trkpt><trkpt lat="43.98065" lon="12.67412"><ele>14.333333333333334</ele><time>2026-04-30T12:23:20.158Z</time></trkpt><trkpt lat="43.980465" lon="12.6741117"><ele>14.666666666666668</ele><time>2026-04-30T12:23:21.161Z</time></trkpt><trkpt lat="43.9802783" lon="12.6741017"><ele>15.0</ele><time>2026-04-30T12:23:22.159Z</time></trkpt><trkpt lat="43.9800933" lon="12.67409"><ele>14.666666666666668</ele><time>2026-04-30T12:23:23.16Z</time></trkpt><trkpt lat="43.9799067" lon="12.6740783"><ele>14.333333333333334</ele><time>2026-04-30T12:23:24.159Z</time></trkpt><trkpt lat="43.9797183" lon="12.6740667"><ele>14.0</ele><time>2026-04-30T12:23:25.16Z</time></trkpt><trkpt lat="43.9795183" lon="12.674055"><ele>14.0</ele><time>2026-04-30T12:23:26.159Z</time></trkpt><trkpt lat="43.979315" lon="12.6740433"><ele>14.0</ele><time>2026-04-30T12:23:27.159Z</time></trkpt><trkpt lat="43.9791133" lon="12.6740317"><ele>14.0</ele><time>2026-04-30T12:23:28.158Z</time></trkpt><trkpt lat="43.9789083" lon="12.674015"><ele>14.333333333333334</ele><time>2026-04-30T12:23:29.159Z</time></trkpt><trkpt lat="43.978695" lon="12.673995"><ele>14.666666666666668</ele><time>2026-04-30T12:23:30.158Z</time></trkpt><trkpt lat="43.9784767" lon="12.6739767"><ele>15.0</ele><time>2026-04-30T12:23:31.157Z</time></trkpt><trkpt lat="43.9782617" lon="12.6739617"><ele>15.0</ele><time>2026-04-30T12:23:32.159Z</time></trkpt><trkpt lat="43.978065" lon="12.6739467"><ele>15.0</ele><time>2026-04-30T12:23:33.158Z</time></trkpt><trkpt lat="43.97788" lon="12.6739283"><ele>15.0</ele><time>2026-04-30T12:23:34.158Z</time></trkpt><trkpt lat="43.9776983" lon="12.67391"><ele>15.0</ele><time>2026-04-30T12:23:35.158Z</time></trkpt><trkpt lat="43.97752" lon="12.6739017"><ele>15.0</ele><time>2026-04-30T12:23:36.158Z</time></trkpt><trkpt lat="43.977345" lon="12.6738933"><ele>15.0</ele><time>2026-04-30T12:23:37.159Z</time></trkpt><trkpt lat="43.9771733" lon="12.67389"><ele>16.0</ele><time>2026-04-30T12:23:38.159Z</time></trkpt><trkpt lat="43.977" lon="12.673885"><ele>17.0</ele><time>2026-04-30T12:23:39.158Z</time></trkpt><trkpt lat="43.9768283" lon="12.6738733"><ele>18.0</ele><time>2026-04-30T12:23:40.157Z</time></trkpt><trkpt lat="43.9766533" lon="12.6738567"><ele>18.0</ele><time>2026-04-30T12:23:41.158Z</time></trkpt><trkpt lat="43.9764717" lon="12.67384"><ele>18.0</ele><time>2026-04-30T12:23:42.157Z</time></trkpt><trkpt lat="43.9762833" lon="12.6738233"><ele>18.0</ele><time>2026-04-30T12:23:43.157Z</time></trkpt><trkpt lat="43.9760967" lon="12.67381"><ele>18.0</ele><time>2026-04-30T12:23:44.158Z</time></trkpt><trkpt lat="43.97592" lon="12.6738017"><ele>18.0</ele><time>2026-04-30T12:23:45.158Z</time></trkpt><trkpt lat="43.975755" lon="12.6737933"><ele>18.0</ele><time>2026-04-30T12:23:46.159Z</time></trkpt><trkpt lat="43.9756033" lon="12.6737833"><ele>18.0</ele><time>2026-04-30T12:23:47.158Z</time></trkpt><trkpt lat="43.9754683" lon="12.6737733"><ele>18.0</ele><time>2026-04-30T12:23:48.159Z</time></trkpt><trkpt lat="43.9753517" lon="12.6737583"><ele>18.0</ele><time>2026-04-30T12:23:49.161Z</time></trkpt><trkpt lat="43.9752517" lon="12.6737283"><ele>18.0</ele><time>2026-04-30T12:23:50.159Z</time></trkpt><trkpt lat="43.975165" lon="12.6736667"><ele>18.0</ele><time>2026-04-30T12:23:51.16Z</time></trkpt><trkpt lat="43.9750733" lon="12.6735817"><ele>18.0</ele><time>2026-04-30T12:23:52.158Z</time></trkpt><trkpt lat="43.9749683" lon="12.67349"><ele>18.0</ele><time>2026-04-30T12:23:53.16Z</time></trkpt><trkpt lat="43.9748617" lon="12.67337"><ele>18.0</ele><time>2026-04-30T12:23:54.158Z</time></trkpt><trkpt lat="43.9747583" lon="12.6731983"><ele>18.0</ele><time>2026-04-30T12:23:55.159Z</time></trkpt><trkpt lat="43.974655" lon="12.672985"><ele>18.0</ele><time>2026-04-30T12:23:56.16Z</time></trkpt><trkpt lat="43.9745483" lon="12.672765"><ele>18.0</ele><time>2026-04-30T12:23:57.157Z</time></trkpt><trkpt lat="43.974435" lon="12.6725633"><ele>18.666666666666668</ele><time>2026-04-30T12:23:58.158Z</time></trkpt><trkpt lat="43.9743067" lon="12.6723783"><ele>19.333333333333336</ele><time>2026-04-30T12:23:59.158Z</time></trkpt><trkpt lat="43.9741617" lon="12.67221"><ele>20.0</ele><time>2026-04-30T12:24:00.158Z</time></trkpt><trkpt lat="43.9739967" lon="12.6720783"><ele>20.0</ele><time>2026-04-30T12:24:01.159Z</time></trkpt><trkpt lat="43.973815" lon="12.6719883"><ele>20.0</ele><time>2026-04-30T12:24:02.158Z</time></trkpt><trkpt lat="43.9736133" lon="12.6719367"><ele>20.0</ele><time>2026-04-30T12:24:03.16Z</time></trkpt><trkpt lat="43.9733917" lon="12.6719133"><ele>20.5</ele><time>2026-04-30T12:24:04.158Z</time></trkpt><trkpt lat="43.9731567" lon="12.671905"><ele>21.0</ele><time>2026-04-30T12:24:05.158Z</time></trkpt><trkpt lat="43.9729367" lon="12.6719017"><ele>21.0</ele><time>2026-04-30T12:24:06.159Z</time></trkpt><trkpt lat="43.97274" lon="12.6718933"><ele>21.0</ele><time>2026-04-30T12:24:07.158Z</time></trkpt><trkpt lat="43.97256" lon="12.671885"><ele>21.0</ele><time>2026-04-30T12:24:08.158Z</time></trkpt><trkpt lat="43.97239" lon="12.6718783"><ele>20.333333333333332</ele><time>2026-04-30T12:24:09.158Z</time></trkpt><trkpt lat="43.97223" lon="12.671875"><ele>19.666666666666664</ele><time>2026-04-30T12:24:10.159Z</time></trkpt><trkpt lat="43.9720783" lon="12.6718717"><ele>19.0</ele><time>2026-04-30T12:24:11.158Z</time></trkpt><trkpt lat="43.97194" lon="12.6718683"><ele>19.0</ele><time>2026-04-30T12:24:12.158Z</time></trkpt><trkpt lat="43.971815" lon="12.671865"><ele>19.0</ele><time>2026-04-30T12:24:13.158Z</time></trkpt><trkpt lat="43.9717067" lon="12.67186"><ele>19.0</ele><time>2026-04-30T12:24:14.158Z</time></trkpt><trkpt lat="43.971615" lon="12.671855"><ele>19.0</ele><time>2026-04-30T12:24:15.158Z</time></trkpt><trkpt lat="43.9715417" lon="12.67185"><ele>19.0</ele><time>2026-04-30T12:24:16.158Z</time></trkpt><trkpt lat="43.971445" lon="12.67183"><ele>19.4</ele><time>2026-04-30T12:24:18.158Z</time></trkpt><trkpt lat="43.9713667" lon="12.6717783"><ele>19.799999999999997</ele><time>2026-04-30T12:24:21.158Z</time></trkpt><trkpt lat="43.9712983" lon="12.671675"><ele>20.200000000000003</ele><time>2026-04-30T12:24:23.158Z</time></trkpt><trkpt lat="43.971205" lon="12.6715467"><ele>20.6</ele><time>2026-04-30T12:24:25.159Z</time></trkpt><trkpt lat="43.971145" lon="12.6715017"><ele>21.0</ele><time>2026-04-30T12:24:26.159Z</time></trkpt><trkpt lat="43.9710833" lon="12.6714817"><ele>21.0</ele><time>2026-04-30T12:24:27.157Z</time></trkpt><trkpt lat="43.971015" lon="12.6714883"><ele>21.0</ele><time>2026-04-30T12:24:28.158Z</time></trkpt><trkpt lat="43.9709383" lon="12.6715333"><ele>21.0</ele><time>2026-04-30T12:24:29.159Z</time></trkpt><trkpt lat="43.97087" lon="12.6716067"><ele>21.0</ele><time>2026-04-30T12:24:30.158Z</time></trkpt><trkpt lat="43.9707967" lon="12.6716767"><ele>21.0</ele><time>2026-04-30T12:24:31.157Z</time></trkpt><trkpt lat="43.9707083" lon="12.6717267"><ele>21.0</ele><time>2026-04-30T12:24:32.158Z</time></trkpt><trkpt lat="43.9705933" lon="12.6717367"><ele>20.75</ele><time>2026-04-30T12:24:33.158Z</time></trkpt><trkpt lat="43.9704633" lon="12.6717167"><ele>20.5</ele><time>2026-04-30T12:24:34.158Z</time></trkpt><trkpt lat="43.9703183" lon="12.6716867"><ele>20.25</ele><time>2026-04-30T12:24:35.16Z</time></trkpt><trkpt lat="43.9701717" lon="12.6716583"><ele>20.0</ele><time>2026-04-30T12:24:36.159Z</time></trkpt><trkpt lat="43.9700317" lon="12.671635"><ele>20.0</ele><time>2026-04-30T12:24:37.158Z</time></trkpt><trkpt lat="43.9699017" lon="12.6716083"><ele>20.0</ele><time>2026-04-30T12:24:38.16Z</time></trkpt><trkpt lat="43.9697817" lon="12.6715833"><ele>20.0</ele><time>2026-04-30T12:24:39.158Z</time></trkpt><trkpt lat="43.969665" lon="12.67156"><ele>20.0</ele><time>2026-04-30T12:24:40.158Z</time></trkpt><trkpt lat="43.9695517" lon="12.671535"><ele>20.0</ele><time>2026-04-30T12:24:41.157Z</time></trkpt><trkpt lat="43.9694467" lon="12.6715117"><ele>20.0</ele><time>2026-04-30T12:24:42.158Z</time></trkpt><trkpt lat="43.969345" lon="12.67149"><ele>20.0</ele><time>2026-04-30T12:24:43.158Z</time></trkpt><trkpt lat="43.96925" lon="12.67147"><ele>20.0</ele><time>2026-04-30T12:24:44.159Z</time></trkpt><trkpt lat="43.9691567" lon="12.6714517"><ele>20.0</ele><time>2026-04-30T12:24:45.157Z</time></trkpt><trkpt lat="43.969065" lon="12.6714317"><ele>20.2</ele><time>2026-04-30T12:24:46.159Z</time></trkpt><trkpt lat="43.9689667" lon="12.67141"><ele>20.4</ele><time>2026-04-30T12:24:47.159Z</time></trkpt><trkpt lat="43.9688667" lon="12.67139"><ele>20.6</ele><time>2026-04-30T12:24:48.158Z</time></trkpt><trkpt lat="43.9687633" lon="12.671375"><ele>20.8</ele><time>2026-04-30T12:24:49.159Z</time></trkpt><trkpt lat="43.9686567" lon="12.6713617"><ele>21.0</ele><time>2026-04-30T12:24:50.16Z</time></trkpt><trkpt lat="43.9685467" lon="12.671355"><ele>21.0</ele><time>2026-04-30T12:24:51.16Z</time></trkpt><trkpt lat="43.968435" lon="12.6713633"><ele>21.0</ele><time>2026-04-30T12:24:52.16Z</time></trkpt><trkpt lat="43.9683217" lon="12.6713917"><ele>21.0</ele><time>2026-04-30T12:24:53.161Z</time></trkpt><trkpt lat="43.96821" lon="12.67144"><ele>21.0</ele><time>2026-04-30T12:24:54.159Z</time></trkpt><trkpt lat="43.9681" lon="12.6715117"><ele>20.75</ele><time>2026-04-30T12:24:55.158Z</time></trkpt><trkpt lat="43.9679883" lon="12.67161"><ele>20.5</ele><time>2026-04-30T12:24:56.159Z</time></trkpt><trkpt lat="43.9678767" lon="12.6717167"><ele>20.25</ele><time>2026-04-30T12:24:57.159Z</time></trkpt><trkpt lat="43.9677733" lon="12.6718217"><ele>20.0</ele><time>2026-04-30T12:24:58.157Z</time></trkpt><trkpt lat="43.967675" lon="12.6719217"><ele>20.0</ele><time>2026-04-30T12:24:59.159Z</time></trkpt><trkpt lat="43.9675833" lon="12.67202"><ele>20.0</ele><time>2026-04-30T12:25:00.158Z</time></trkpt><trkpt lat="43.96749" lon="12.67212"><ele>20.0</ele><time>2026-04-30T12:25:01.159Z</time></trkpt><trkpt lat="43.9673867" lon="12.6722367"><ele>20.0</ele><time>2026-04-30T12:25:02.158Z</time></trkpt><trkpt lat="43.9672717" lon="12.67237"><ele>20.5</ele><time>2026-04-30T12:25:03.158Z</time></trkpt><trkpt lat="43.9671567" lon="12.6724983"><ele>21.0</ele><time>2026-04-30T12:25:04.157Z</time></trkpt><trkpt lat="43.96705" lon="12.6726067"><ele>21.5</ele><time>2026-04-30T12:25:05.158Z</time></trkpt><trkpt lat="43.9669567" lon="12.6726933"><ele>22.0</ele><time>2026-04-30T12:25:06.158Z</time></trkpt><trkpt lat="43.9668783" lon="12.6727567"><ele>22.0</ele><time>2026-04-30T12:25:07.157Z</time></trkpt><trkpt lat="43.96681" lon="12.672795"><ele>22.0</ele><time>2026-04-30T12:25:08.158Z</time></trkpt><trkpt lat="43.966745" lon="12.672805"><ele>22.0</ele><time>2026-04-30T12:25:09.158Z</time></trkpt><trkpt lat="43.96667" lon="12.6728033"><ele>22.0</ele><time>2026-04-30T12:25:10.157Z</time></trkpt><trkpt lat="43.9665933" lon="12.67281"><ele>22.0</ele><time>2026-04-30T12:25:11.159Z</time></trkpt><trkpt lat="43.9665133" lon="12.6728567"><ele>22.0</ele><time>2026-04-30T12:25:12.159Z</time></trkpt><trkpt lat="43.9664383" lon="12.6729317"><ele>21.75</ele><time>2026-04-30T12:25:13.158Z</time></trkpt><trkpt lat="43.9663517" lon="12.6729967"><ele>21.5</ele><time>2026-04-30T12:25:14.158Z</time></trkpt><trkpt lat="43.96624" lon="12.67303"><ele>21.25</ele><time>2026-04-30T12:25:15.159Z</time></trkpt><trkpt lat="43.9660917" lon="12.673035"><ele>21.0</ele><time>2026-04-30T12:25:16.158Z</time></trkpt><trkpt lat="43.965915" lon="12.6730267"><ele>21.666666666666668</ele><time>2026-04-30T12:25:17.158Z</time></trkpt><trkpt lat="43.96574" lon="12.673015"><ele>22.333333333333336</ele><time>2026-04-30T12:25:18.159Z</time></trkpt><trkpt lat="43.9655733" lon="12.673"><ele>23.0</ele><time>2026-04-30T12:25:19.159Z</time></trkpt><trkpt lat="43.965405" lon="12.672985"><ele>23.0</ele><time>2026-04-30T12:25:20.159Z</time></trkpt><trkpt lat="43.9652417" lon="12.6729717"><ele>23.0</ele><time>2026-04-30T12:25:21.16Z</time></trkpt><trkpt lat="43.9650867" lon="12.6729583"><ele>23.0</ele><time>2026-04-30T12:25:22.158Z</time></trkpt><trkpt lat="43.9649317" lon="12.67295"><ele>23.5</ele><time>2026-04-30T12:25:23.158Z</time></trkpt><trkpt lat="43.9647867" lon="12.6729433"><ele>24.0</ele><time>2026-04-30T12:25:24.158Z</time></trkpt><trkpt lat="43.9646467" lon="12.6729383"><ele>24.5</ele><time>2026-04-30T12:25:25.158Z</time></trkpt><trkpt lat="43.9645133" lon="12.6729283"><ele>25.0</ele><time>2026-04-30T12:25:26.159Z</time></trkpt><trkpt lat="43.9643867" lon="12.6729183"><ele>25.0</ele><time>2026-04-30T12:25:27.158Z</time></trkpt><trkpt lat="43.96426" lon="12.6729067"><ele>25.0</ele><time>2026-04-30T12:25:28.158Z</time></trkpt><trkpt lat="43.9641317" lon="12.672895"><ele>25.0</ele><time>2026-04-30T12:25:29.157Z</time></trkpt><trkpt lat="43.964" lon="12.672885"><ele>25.0</ele><time>2026-04-30T12:25:30.16Z</time></trkpt><trkpt lat="43.9638617" lon="12.6728733"><ele>25.25</ele><time>2026-04-30T12:25:31.157Z</time></trkpt><trkpt lat="43.9637117" lon="12.6728617"><ele>25.5</ele><time>2026-04-30T12:25:32.159Z</time></trkpt><trkpt lat="43.9635667" lon="12.6728517"><ele>25.75</ele><time>2026-04-30T12:25:33.158Z</time></trkpt><trkpt lat="43.9634233" lon="12.6728433"><ele>26.0</ele><time>2026-04-30T12:25:34.158Z</time></trkpt><trkpt lat="43.963285" lon="12.6728333"><ele>26.0</ele><time>2026-04-30T12:25:35.158Z</time></trkpt><trkpt lat="43.9631467" lon="12.6728217"><ele>26.0</ele><time>2026-04-30T12:25:36.159Z</time></trkpt><trkpt lat="43.9630083" lon="12.6728117"><ele>26.0</ele><time>2026-04-30T12:25:37.158Z</time></trkpt><trkpt lat="43.96287" lon="12.6727983"><ele>26.0</ele><time>2026-04-30T12:25:38.158Z</time></trkpt><trkpt lat="43.9627317" lon="12.6727867"><ele>26.0</ele><time>2026-04-30T12:25:39.158Z</time></trkpt><trkpt lat="43.9625983" lon="12.6727783"><ele>26.0</ele><time>2026-04-30T12:25:40.157Z</time></trkpt><trkpt lat="43.9624667" lon="12.67277"><ele>26.0</ele><time>2026-04-30T12:25:41.157Z</time></trkpt><trkpt lat="43.96234" lon="12.67276"><ele>26.0</ele><time>2026-04-30T12:25:42.158Z</time></trkpt><trkpt lat="43.96221" lon="12.67275"><ele>26.25</ele><time>2026-04-30T12:25:43.158Z</time></trkpt><trkpt lat="43.962075" lon="12.6727383"><ele>26.5</ele><time>2026-04-30T12:25:44.159Z</time></trkpt><trkpt lat="43.961945" lon="12.6727267"><ele>26.75</ele><time>2026-04-30T12:25:45.157Z</time></trkpt><trkpt lat="43.9618233" lon="12.67272"><ele>27.0</ele><time>2026-04-30T12:25:46.158Z</time></trkpt><trkpt lat="43.9617067" lon="12.672715"><ele>27.0</ele><time>2026-04-30T12:25:47.157Z</time></trkpt><trkpt lat="43.9615933" lon="12.67271"><ele>27.0</ele><time>2026-04-30T12:25:48.158Z</time></trkpt><trkpt lat="43.9614783" lon="12.6727083"><ele>27.0</ele><time>2026-04-30T12:25:49.158Z</time></trkpt><trkpt lat="43.9613633" lon="12.6727067"><ele>27.0</ele><time>2026-04-30T12:25:50.159Z</time></trkpt><trkpt lat="43.9612517" lon="12.6727083"><ele>27.0</ele><time>2026-04-30T12:25:51.158Z</time></trkpt><trkpt lat="43.96114" lon="12.6727117"><ele>27.0</ele><time>2026-04-30T12:25:52.157Z</time></trkpt><trkpt lat="43.9610283" lon="12.6727183"><ele>27.0</ele><time>2026-04-30T12:25:53.159Z</time></trkpt><trkpt lat="43.9609133" lon="12.6727267"><ele>27.0</ele><time>2026-04-30T12:25:54.158Z</time></trkpt><trkpt lat="43.9607917" lon="12.67274"><ele>27.200000000000003</ele><time>2026-04-30T12:25:55.158Z</time></trkpt><trkpt lat="43.96067" lon="12.6727533"><ele>27.400000000000002</ele><time>2026-04-30T12:25:56.158Z</time></trkpt><trkpt lat="43.9605617" lon="12.6727683"><ele>27.599999999999998</ele><time>2026-04-30T12:25:57.158Z</time></trkpt><trkpt lat="43.9604683" lon="12.672785"><ele>27.799999999999997</ele><time>2026-04-30T12:25:58.158Z</time></trkpt><trkpt lat="43.9603867" lon="12.6728"><ele>28.0</ele><time>2026-04-30T12:25:59.158Z</time></trkpt><trkpt lat="43.960315" lon="12.67281"><ele>28.000000000000004</ele><time>2026-04-30T12:26:00.158Z</time></trkpt><trkpt lat="43.9602467" lon="12.6728183"><ele>28.0</ele><time>2026-04-30T12:26:01.159Z</time></trkpt><trkpt lat="43.960175" lon="12.6728317"><ele>28.0</ele><time>2026-04-30T12:26:02.159Z</time></trkpt><trkpt lat="43.9600917" lon="12.6728467"><ele>28.0</ele><time>2026-04-30T12:26:03.159Z</time></trkpt><trkpt lat="43.9600017" lon="12.67286"><ele>28.000000000000004</ele><time>2026-04-30T12:26:04.158Z</time></trkpt><trkpt lat="43.9599017" lon="12.6728767"><ele>28.0</ele><time>2026-04-30T12:26:05.159Z</time></trkpt><trkpt lat="43.959795" lon="12.6728967"><ele>28.0</ele><time>2026-04-30T12:26:06.159Z</time></trkpt><trkpt lat="43.9596883" lon="12.6729167"><ele>27.999999999999996</ele><time>2026-04-30T12:26:07.159Z</time></trkpt><trkpt lat="43.9595833" lon="12.672935"><ele>27.999999999999996</ele><time>2026-04-30T12:26:08.16Z</time></trkpt><trkpt lat="43.9594867" lon="12.6729517"><ele>28.0</ele><time>2026-04-30T12:26:09.159Z</time></trkpt><trkpt lat="43.959395" lon="12.6729667"><ele>28.0</ele><time>2026-04-30T12:26:10.159Z</time></trkpt><trkpt lat="43.9593033" lon="12.6729833"><ele>28.0</ele><time>2026-04-30T12:26:11.158Z</time></trkpt><trkpt lat="43.959205" lon="12.673"><ele>27.999999999999996</ele><time>2026-04-30T12:26:12.158Z</time></trkpt><trkpt lat="43.9591017" lon="12.67302"><ele>27.999999999999996</ele><time>2026-04-30T12:26:13.159Z</time></trkpt><trkpt lat="43.9589917" lon="12.6730417"><ele>28.0</ele><time>2026-04-30T12:26:14.158Z</time></trkpt><trkpt lat="43.95888" lon="12.6730617"><ele>28.0</ele><time>2026-04-30T12:26:15.158Z</time></trkpt><trkpt lat="43.9587733" lon="12.6730817"><ele>28.4</ele><time>2026-04-30T12:26:16.159Z</time></trkpt><trkpt lat="43.958675" lon="12.6731"><ele>28.799999999999997</ele><time>2026-04-30T12:26:17.16Z</time></trkpt><trkpt lat="43.95858" lon="12.673115"><ele>29.2</ele><time>2026-04-30T12:26:18.158Z</time></trkpt><trkpt lat="43.958485" lon="12.67313"><ele>29.6</ele><time>2026-04-30T12:26:19.161Z</time></trkpt><trkpt lat="43.9583917" lon="12.673145"><ele>30.0</ele><time>2026-04-30T12:26:20.159Z</time></trkpt><trkpt lat="43.9583017" lon="12.6731633"><ele>30.0</ele><time>2026-04-30T12:26:21.158Z</time></trkpt><trkpt lat="43.9582183" lon="12.67318"><ele>30.0</ele><time>2026-04-30T12:26:22.158Z</time></trkpt><trkpt lat="43.9581433" lon="12.67319"><ele>30.0</ele><time>2026-04-30T12:26:23.16Z</time></trkpt><trkpt lat="43.95808" lon="12.6731967"><ele>30.0</ele><time>2026-04-30T12:26:24.159Z</time></trkpt><trkpt lat="43.9579967" lon="12.673215"><ele>30.0</ele><time>2026-04-30T12:26:26.16Z</time></trkpt><trkpt lat="43.9579067" lon="12.6732683"><ele>30.0</ele><time>2026-04-30T12:26:53.16Z</time></trkpt><trkpt lat="43.9579083" lon="12.6733867"><ele>30.0</ele><time>2026-04-30T12:26:55.158Z</time></trkpt><trkpt lat="43.9579783" lon="12.6735083"><ele>30.0</ele><time>2026-04-30T12:26:57.158Z</time></trkpt><trkpt lat="43.958035" lon="12.6735667"><ele>30.0</ele><time>2026-04-30T12:26:58.158Z</time></trkpt><trkpt lat="43.9581017" lon="12.6736267"><ele>30.0</ele><time>2026-04-30T12:26:59.159Z</time></trkpt><trkpt lat="43.9581683" lon="12.6737117"><ele>30.0</ele><time>2026-04-30T12:27:00.159Z</time></trkpt><trkpt lat="43.95823" lon="12.6738117"><ele>30.0</ele><time>2026-04-30T12:27:01.16Z</time></trkpt><trkpt lat="43.9582817" lon="12.6739133"><ele>29.6</ele><time>2026-04-30T12:27:02.158Z</time></trkpt><trkpt lat="43.9583233" lon="12.6740083"><ele>29.2</ele><time>2026-04-30T12:27:03.158Z</time></trkpt><trkpt lat="43.95835" lon="12.6740933"><ele>28.799999999999997</ele><time>2026-04-30T12:27:04.156Z</time></trkpt><trkpt lat="43.958325" lon="12.674275"><ele>28.4</ele><time>2026-04-30T12:27:06.157Z</time></trkpt><trkpt lat="43.9582567" lon="12.6743933"><ele>28.0</ele><time>2026-04-30T12:27:07.158Z</time></trkpt><trkpt lat="43.95817" lon="12.67454"><ele>27.75</ele><time>2026-04-30T12:27:08.158Z</time></trkpt><trkpt lat="43.9580933" lon="12.6746967"><ele>27.5</ele><time>2026-04-30T12:27:09.157Z</time></trkpt><trkpt lat="43.9580217" lon="12.6748767"><ele>27.25</ele><time>2026-04-30T12:27:10.157Z</time></trkpt><trkpt lat="43.957965" lon="12.6750783"><ele>27.0</ele><time>2026-04-30T12:27:11.159Z</time></trkpt><trkpt lat="43.9579183" lon="12.6753083"><ele>27.0</ele><time>2026-04-30T12:27:12.159Z</time></trkpt><trkpt lat="43.95787" lon="12.6755533"><ele>27.0</ele><time>2026-04-30T12:27:13.157Z</time></trkpt><trkpt lat="43.9578167" lon="12.675795"><ele>27.0</ele><time>2026-04-30T12:27:14.158Z</time></trkpt><trkpt lat="43.95776" lon="12.6760383"><ele>27.0</ele><time>2026-04-30T12:27:15.158Z</time></trkpt><trkpt lat="43.9577083" lon="12.6762817"><ele>27.0</ele><time>2026-04-30T12:27:16.158Z</time></trkpt><trkpt lat="43.9576567" lon="12.6765283"><ele>27.0</ele><time>2026-04-30T12:27:17.159Z</time></trkpt><trkpt lat="43.9576067" lon="12.6767817"><ele>27.333333333333336</ele><time>2026-04-30T12:27:18.159Z</time></trkpt><trkpt lat="43.9575583" lon="12.6770367"><ele>27.666666666666668</ele><time>2026-04-30T12:27:19.159Z</time></trkpt><trkpt lat="43.95751" lon="12.6772733"><ele>28.0</ele><time>2026-04-30T12:27:20.158Z</time></trkpt><trkpt lat="43.9574683" lon="12.6774883"><ele>28.25</ele><time>2026-04-30T12:27:21.16Z</time></trkpt><trkpt lat="43.9574283" lon="12.6776733"><ele>28.5</ele><time>2026-04-30T12:27:22.158Z</time></trkpt><trkpt lat="43.9573967" lon="12.677835"><ele>28.75</ele><time>2026-04-30T12:27:23.159Z</time></trkpt><trkpt lat="43.9573633" lon="12.67799"><ele>29.0</ele><time>2026-04-30T12:27:24.158Z</time></trkpt><trkpt lat="43.95733" lon="12.678155"><ele>29.0</ele><time>2026-04-30T12:27:25.161Z</time></trkpt><trkpt lat="43.957295" lon="12.6783233"><ele>29.0</ele><time>2026-04-30T12:27:26.161Z</time></trkpt><trkpt lat="43.95726" lon="12.6784783"><ele>29.0</ele><time>2026-04-30T12:27:27.159Z</time></trkpt><trkpt lat="43.9572267" lon="12.6786183"><ele>29.0</ele><time>2026-04-30T12:27:28.158Z</time></trkpt><trkpt lat="43.9571933" lon="12.67873"><ele>29.0</ele><time>2026-04-30T12:27:29.158Z</time></trkpt><trkpt lat="43.9571683" lon="12.678825"><ele>28.799999999999997</ele><time>2026-04-30T12:27:30.158Z</time></trkpt><trkpt lat="43.9571717" lon="12.678985"><ele>28.599999999999998</ele><time>2026-04-30T12:27:32.158Z</time></trkpt><trkpt lat="43.957225" lon="12.6790767"><ele>28.4</ele><time>2026-04-30T12:27:33.159Z</time></trkpt><trkpt lat="43.9572867" lon="12.679185"><ele>28.2</ele><time>2026-04-30T12:27:34.159Z</time></trkpt><trkpt lat="43.957355" lon="12.6793"><ele>28.0</ele><time>2026-04-30T12:27:35.159Z</time></trkpt><trkpt lat="43.957405" lon="12.6794233"><ele>28.0</ele><time>2026-04-30T12:27:36.158Z</time></trkpt><trkpt lat="43.957425" lon="12.6795467"><ele>27.999999999999996</ele><time>2026-04-30T12:27:37.158Z</time></trkpt><trkpt lat="43.95742" lon="12.6796783"><ele>27.999999999999996</ele><time>2026-04-30T12:27:38.159Z</time></trkpt><trkpt lat="43.9573733" lon="12.6798183"><ele>28.0</ele><time>2026-04-30T12:27:39.158Z</time></trkpt><trkpt lat="43.9573017" lon="12.6799683"><ele>28.0</ele><time>2026-04-30T12:27:40.158Z</time></trkpt><trkpt lat="43.9572117" lon="12.6801267"><ele>27.666666666666668</ele><time>2026-04-30T12:27:41.159Z</time></trkpt><trkpt lat="43.9571033" lon="12.6803083"><ele>27.333333333333336</ele><time>2026-04-30T12:27:42.159Z</time></trkpt><trkpt lat="43.9569767" lon="12.6805"><ele>27.0</ele><time>2026-04-30T12:27:43.158Z</time></trkpt><trkpt lat="43.9568533" lon="12.680685"><ele>27.0</ele><time>2026-04-30T12:27:44.159Z</time></trkpt><trkpt lat="43.9567383" lon="12.6808717"><ele>27.0</ele><time>2026-04-30T12:27:45.157Z</time></trkpt><trkpt lat="43.9566317" lon="12.6810817"><ele>27.0</ele><time>2026-04-30T12:27:46.156Z</time></trkpt><trkpt lat="43.95653" lon="12.68131"><ele>27.0</ele><time>2026-04-30T12:27:47.158Z</time></trkpt><trkpt lat="43.9564367" lon="12.681535"><ele>27.0</ele><time>2026-04-30T12:27:48.158Z</time></trkpt><trkpt lat="43.9563467" lon="12.6817517"><ele>27.0</ele><time>2026-04-30T12:27:49.158Z</time></trkpt><trkpt lat="43.9562617" lon="12.681955"><ele>27.5</ele><time>2026-04-30T12:27:50.158Z</time></trkpt><trkpt lat="43.9561833" lon="12.6821433"><ele>28.0</ele><time>2026-04-30T12:27:51.159Z</time></trkpt><trkpt lat="43.95611" lon="12.6823167"><ele>28.5</ele><time>2026-04-30T12:27:52.157Z</time></trkpt><trkpt lat="43.9560517" lon="12.6824733"><ele>29.0</ele><time>2026-04-30T12:27:53.158Z</time></trkpt><trkpt lat="43.9560133" lon="12.682615"><ele>28.999999999999996</ele><time>2026-04-30T12:27:54.158Z</time></trkpt><trkpt lat="43.9559933" lon="12.6827417"><ele>29.0</ele><time>2026-04-30T12:27:55.16Z</time></trkpt><trkpt lat="43.95598" lon="12.6828583"><ele>29.0</ele><time>2026-04-30T12:27:56.16Z</time></trkpt><trkpt lat="43.955955" lon="12.6829617"><ele>29.0</ele><time>2026-04-30T12:27:57.159Z</time></trkpt><trkpt lat="43.955925" lon="12.6830467"><ele>28.999999999999996</ele><time>2026-04-30T12:27:58.158Z</time></trkpt><trkpt lat="43.955895" lon="12.6832083"><ele>29.0</ele><time>2026-04-30T12:28:00.158Z</time></trkpt><trkpt lat="43.95595" lon="12.6833567"><ele>29.0</ele><time>2026-04-30T12:28:02.159Z</time></trkpt><trkpt lat="43.956025" lon="12.6834117"><ele>29.0</ele><time>2026-04-30T12:28:03.159Z</time></trkpt><trkpt lat="43.9561183" lon="12.683475"><ele>29.0</ele><time>2026-04-30T12:28:04.159Z</time></trkpt><trkpt lat="43.956215" lon="12.6835717"><ele>29.0</ele><time>2026-04-30T12:28:05.157Z</time></trkpt><trkpt lat="43.9563183" lon="12.6836933"><ele>29.0</ele><time>2026-04-30T12:28:06.159Z</time></trkpt><trkpt lat="43.9564333" lon="12.6838317"><ele>29.0</ele><time>2026-04-30T12:28:07.158Z</time></trkpt><trkpt lat="43.95656" lon="12.68399"><ele>29.0</ele><time>2026-04-30T12:28:08.159Z</time></trkpt><trkpt lat="43.9566967" lon="12.6841583"><ele>29.0</ele><time>2026-04-30T12:28:09.159Z</time></trkpt><trkpt lat="43.956835" lon="12.6843267"><ele>28.666666666666664</ele><time>2026-04-30T12:28:10.16Z</time></trkpt><trkpt lat="43.9569683" lon="12.6844867"><ele>28.333333333333336</ele><time>2026-04-30T12:28:11.158Z</time></trkpt><trkpt lat="43.9570967" lon="12.6846467"><ele>28.0</ele><time>2026-04-30T12:28:12.159Z</time></trkpt><trkpt lat="43.9572283" lon="12.6848083"><ele>28.0</ele><time>2026-04-30T12:28:13.159Z</time></trkpt><trkpt lat="43.9573617" lon="12.6849717"><ele>28.0</ele><time>2026-04-30T12:28:14.158Z</time></trkpt><trkpt lat="43.9574917" lon="12.6851317"><ele>28.0</ele><time>2026-04-30T12:28:15.158Z</time></trkpt><trkpt lat="43.9576233" lon="12.6852933"><ele>27.333333333333336</ele><time>2026-04-30T12:28:16.159Z</time></trkpt><trkpt lat="43.957755" lon="12.685455"><ele>26.666666666666664</ele><time>2026-04-30T12:28:17.157Z</time></trkpt><trkpt lat="43.95788" lon="12.6856083"><ele>26.0</ele><time>2026-04-30T12:28:18.159Z</time></trkpt><trkpt lat="43.9580017" lon="12.6857533"><ele>26.0</ele><time>2026-04-30T12:28:19.158Z</time></trkpt><trkpt lat="43.9581167" lon="12.68589"><ele>26.0</ele><time>2026-04-30T12:28:20.159Z</time></trkpt><trkpt lat="43.95823" lon="12.6860217"><ele>26.0</ele><time>2026-04-30T12:28:21.159Z</time></trkpt><trkpt lat="43.9583417" lon="12.686155"><ele>26.0</ele><time>2026-04-30T12:28:22.158Z</time></trkpt><trkpt lat="43.9584567" lon="12.686295"><ele>25.666666666666664</ele><time>2026-04-30T12:28:23.159Z</time></trkpt><trkpt lat="43.95857" lon="12.686435"><ele>25.333333333333336</ele><time>2026-04-30T12:28:24.16Z</time></trkpt><trkpt lat="43.9586817" lon="12.686575"><ele>25.0</ele><time>2026-04-30T12:28:25.158Z</time></trkpt><trkpt lat="43.9587983" lon="12.6867167"><ele>25.0</ele><time>2026-04-30T12:28:26.159Z</time></trkpt><trkpt lat="43.9589133" lon="12.68686"><ele>25.0</ele><time>2026-04-30T12:28:27.16Z</time></trkpt><trkpt lat="43.9590317" lon="12.6870083"><ele>25.0</ele><time>2026-04-30T12:28:28.159Z</time></trkpt><trkpt lat="43.9591517" lon="12.6871567"><ele>25.0</ele><time>2026-04-30T12:28:29.159Z</time></trkpt><trkpt lat="43.9592733" lon="12.68731"><ele>25.0</ele><time>2026-04-30T12:28:30.158Z</time></trkpt><trkpt lat="43.9593883" lon="12.687455"><ele>25.0</ele><time>2026-04-30T12:28:31.158Z</time></trkpt><trkpt lat="43.9594983" lon="12.6875867"><ele>25.0</ele><time>2026-04-30T12:28:32.16Z</time></trkpt><trkpt lat="43.9595967" lon="12.687705"><ele>25.0</ele><time>2026-04-30T12:28:33.157Z</time></trkpt><trkpt lat="43.9596817" lon="12.6878017"><ele>25.0</ele><time>2026-04-30T12:28:34.158Z</time></trkpt><trkpt lat="43.9597517" lon="12.6878767"><ele>25.0</ele><time>2026-04-30T12:28:35.158Z</time></trkpt><trkpt lat="43.9598133" lon="12.68794"><ele>25.0</ele><time>2026-04-30T12:28:36.157Z</time></trkpt><trkpt lat="43.9598717" lon="12.6880083"><ele>25.166666666666668</ele><time>2026-04-30T12:28:37.157Z</time></trkpt><trkpt lat="43.959925" lon="12.6880867"><ele>25.333333333333336</ele><time>2026-04-30T12:28:38.158Z</time></trkpt><trkpt lat="43.9599683" lon="12.688165"><ele>25.5</ele><time>2026-04-30T12:28:39.158Z</time></trkpt><trkpt lat="43.9600167" lon="12.6882283"><ele>25.666666666666664</ele><time>2026-04-30T12:28:40.159Z</time></trkpt><trkpt lat="43.9601083" lon="12.68827"><ele>25.833333333333332</ele><time>2026-04-30T12:28:42.159Z</time></trkpt><trkpt lat="43.96021" lon="12.6881617"><ele>26.0</ele><time>2026-04-30T12:28:44.159Z</time></trkpt><trkpt lat="43.960265" lon="12.68805"><ele>26.0</ele><time>2026-04-30T12:28:45.157Z</time></trkpt><trkpt lat="43.960335" lon="12.68794"><ele>26.0</ele><time>2026-04-30T12:28:46.158Z</time></trkpt><trkpt lat="43.960405" lon="12.687825"><ele>26.0</ele><time>2026-04-30T12:28:47.158Z</time></trkpt><trkpt lat="43.960475" lon="12.6877"><ele>26.0</ele><time>2026-04-30T12:28:48.159Z</time></trkpt><trkpt lat="43.9605583" lon="12.6875717"><ele>26.0</ele><time>2026-04-30T12:28:49.158Z</time></trkpt><trkpt lat="43.960655" lon="12.687425"><ele>26.0</ele><time>2026-04-30T12:28:50.158Z</time></trkpt><trkpt lat="43.9607567" lon="12.687275"><ele>26.0</ele><time>2026-04-30T12:28:51.159Z</time></trkpt><trkpt lat="43.9608433" lon="12.6871317"><ele>26.0</ele><time>2026-04-30T12:28:52.16Z</time></trkpt><trkpt lat="43.9609233" lon="12.686995"><ele>25.6</ele><time>2026-04-30T12:28:53.16Z</time></trkpt><trkpt lat="43.9610017" lon="12.686865"><ele>25.200000000000003</ele><time>2026-04-30T12:28:54.158Z</time></trkpt><trkpt lat="43.9610817" lon="12.6867533"><ele>24.799999999999997</ele><time>2026-04-30T12:28:55.16Z</time></trkpt><trkpt lat="43.961155" lon="12.68666"><ele>24.4</ele><time>2026-04-30T12:28:56.159Z</time></trkpt><trkpt lat="43.9612233" lon="12.6865817"><ele>24.0</ele><time>2026-04-30T12:28:57.16Z</time></trkpt><trkpt lat="43.96127" lon="12.6865"><ele>24.0</ele><time>2026-04-30T12:28:58.159Z</time></trkpt><trkpt lat="43.9613017" lon="12.68642"><ele>24.0</ele><time>2026-04-30T12:28:59.161Z</time></trkpt><trkpt lat="43.9613517" lon="12.6862917"><ele>24.0</ele><time>2026-04-30T12:29:01.159Z</time></trkpt><trkpt lat="43.9614033" lon="12.6862083"><ele>24.0</ele><time>2026-04-30T12:29:03.158Z</time></trkpt><trkpt lat="43.9614617" lon="12.6861383"><ele>24.0</ele><time>2026-04-30T12:29:06.158Z</time></trkpt><trkpt lat="43.96151" lon="12.6860783"><ele>24.0</ele><time>2026-04-30T12:29:08.158Z</time></trkpt><trkpt lat="43.9615933" lon="12.6859783"><ele>24.0</ele><time>2026-04-30T12:29:10.157Z</time></trkpt><trkpt lat="43.9616933" lon="12.6859083"><ele>24.0</ele><time>2026-04-30T12:29:12.158Z</time></trkpt><trkpt lat="43.96177" lon="12.68583"><ele>24.0</ele><time>2026-04-30T12:29:14.161Z</time></trkpt><trkpt lat="43.9618183" lon="12.68574"><ele>24.0</ele><time>2026-04-30T12:29:16.158Z</time></trkpt><trkpt lat="43.961785" lon="12.6856333"><ele>24.0</ele><time>2026-04-30T12:33:22.157Z</time></trkpt><trkpt lat="43.9617167" lon="12.6856583"><ele>24.0</ele><time>2026-04-30T12:33:24.157Z</time></trkpt><trkpt lat="43.9616633" lon="12.685715"><ele>24.0</ele><time>2026-04-30T12:33:25.157Z</time></trkpt><trkpt lat="43.9616017" lon="12.68579"><ele>24.0</ele><time>2026-04-30T12:33:26.159Z</time></trkpt><trkpt lat="43.9615483" lon="12.6858617"><ele>24.0</ele><time>2026-04-30T12:33:27.157Z</time></trkpt><trkpt lat="43.9614783" lon="12.6859633"><ele>24.0</ele><time>2026-04-30T12:33:29.158Z</time></trkpt><trkpt lat="43.961425" lon="12.6860317"><ele>24.0</ele><time>2026-04-30T12:33:31.158Z</time></trkpt><trkpt lat="43.9613717" lon="12.68613"><ele>24.0</ele><time>2026-04-30T12:33:34.157Z</time></trkpt><trkpt lat="43.96131" lon="12.68621"><ele>24.0</ele><time>2026-04-30T12:33:37.159Z</time></trkpt><trkpt lat="43.9612133" lon="12.6862817"><ele>24.0</ele><time>2026-04-30T12:33:39.158Z</time></trkpt><trkpt lat="43.9611567" lon="12.686345"><ele>24.0</ele><time>2026-04-30T12:33:40.158Z</time></trkpt><trkpt lat="43.9610983" lon="12.6864317"><ele>24.0</ele><time>2026-04-30T12:33:41.158Z</time></trkpt><trkpt lat="43.961045" lon="12.6865183"><ele>24.0</ele><time>2026-04-30T12:33:42.158Z</time></trkpt><trkpt lat="43.9609933" lon="12.6866"><ele>24.0</ele><time>2026-04-30T12:33:43.16Z</time></trkpt><trkpt lat="43.960945" lon="12.6866717"><ele>23.999999999999996</ele><time>2026-04-30T12:33:44.158Z</time></trkpt><trkpt lat="43.9608967" lon="12.6867367"><ele>24.0</ele><time>2026-04-30T12:33:45.158Z</time></trkpt><trkpt lat="43.9608467" lon="12.6868017"><ele>24.0</ele><time>2026-04-30T12:33:46.159Z</time></trkpt><trkpt lat="43.960795" lon="12.68687"><ele>24.0</ele><time>2026-04-30T12:33:47.157Z</time></trkpt><trkpt lat="43.9607417" lon="12.6869367"><ele>24.0</ele><time>2026-04-30T12:33:48.158Z</time></trkpt><trkpt lat="43.960685" lon="12.6870017"><ele>23.999999999999996</ele><time>2026-04-30T12:33:49.158Z</time></trkpt><trkpt lat="43.9606267" lon="12.687075"><ele>24.0</ele><time>2026-04-30T12:33:50.158Z</time></trkpt><trkpt lat="43.96057" lon="12.68717"><ele>24.4</ele><time>2026-04-30T12:33:51.158Z</time></trkpt><trkpt lat="43.9605183" lon="12.6872783"><ele>24.799999999999997</ele><time>2026-04-30T12:33:52.158Z</time></trkpt><trkpt lat="43.9604617" lon="12.687385"><ele>25.200000000000003</ele><time>2026-04-30T12:33:53.157Z</time></trkpt><trkpt lat="43.9603933" lon="12.6874833"><ele>25.6</ele><time>2026-04-30T12:33:54.157Z</time></trkpt><trkpt lat="43.9603167" lon="12.6875583"><ele>26.0</ele><time>2026-04-30T12:33:55.158Z</time></trkpt><trkpt lat="43.96025" lon="12.6876317"><ele>25.999999999999996</ele><time>2026-04-30T12:33:56.159Z</time></trkpt><trkpt lat="43.9602017" lon="12.6877183"><ele>26.0</ele><time>2026-04-30T12:33:57.157Z</time></trkpt><trkpt lat="43.9601617" lon="12.68781"><ele>26.0</ele><time>2026-04-30T12:33:58.16Z</time></trkpt><trkpt lat="43.96011" lon="12.6878833"><ele>26.0</ele><time>2026-04-30T12:33:59.157Z</time></trkpt><trkpt lat="43.9600483" lon="12.6879333"><ele>25.999999999999996</ele><time>2026-04-30T12:34:00.159Z</time></trkpt><trkpt lat="43.9599767" lon="12.6879517"><ele>26.0</ele><time>2026-04-30T12:34:01.159Z</time></trkpt><trkpt lat="43.9598917" lon="12.6879333"><ele>26.0</ele><time>2026-04-30T12:34:02.159Z</time></trkpt><trkpt lat="43.9598033" lon="12.6878817"><ele>26.0</ele><time>2026-04-30T12:34:03.158Z</time></trkpt><trkpt lat="43.9597167" lon="12.6878117"><ele>26.0</ele><time>2026-04-30T12:34:04.158Z</time></trkpt><trkpt lat="43.959635" lon="12.687725"><ele>26.0</ele><time>2026-04-30T12:34:05.158Z</time></trkpt><trkpt lat="43.9595533" lon="12.6876267"><ele>26.0</ele><time>2026-04-30T12:34:06.158Z</time></trkpt><trkpt lat="43.95947" lon="12.687525"><ele>25.75</ele><time>2026-04-30T12:34:07.157Z</time></trkpt><trkpt lat="43.9593817" lon="12.6874133"><ele>25.5</ele><time>2026-04-30T12:34:08.159Z</time></trkpt><trkpt lat="43.95929" lon="12.6872933"><ele>25.25</ele><time>2026-04-30T12:34:09.159Z</time></trkpt><trkpt lat="43.9591917" lon="12.687165"><ele>25.0</ele><time>2026-04-30T12:34:10.159Z</time></trkpt><trkpt lat="43.9590917" lon="12.6870317"><ele>25.0</ele><time>2026-04-30T12:34:11.159Z</time></trkpt><trkpt lat="43.9589817" lon="12.6868983"><ele>25.0</ele><time>2026-04-30T12:34:12.157Z</time></trkpt><trkpt lat="43.958865" lon="12.6867567"><ele>25.0</ele><time>2026-04-30T12:34:13.158Z</time></trkpt><trkpt lat="43.9587483" lon="12.68661"><ele>25.0</ele><time>2026-04-30T12:34:14.159Z</time></trkpt><trkpt lat="43.9586333" lon="12.6864667"><ele>25.0</ele><time>2026-04-30T12:34:15.157Z</time></trkpt><trkpt lat="43.9585233" lon="12.6863283"><ele>25.0</ele><time>2026-04-30T12:34:16.158Z</time></trkpt><trkpt lat="43.95841" lon="12.6861967"><ele>25.25</ele><time>2026-04-30T12:34:17.158Z</time></trkpt><trkpt lat="43.9583" lon="12.686065"><ele>25.5</ele><time>2026-04-30T12:34:18.157Z</time></trkpt><trkpt lat="43.9581867" lon="12.6859333"><ele>25.75</ele><time>2026-04-30T12:34:19.158Z</time></trkpt><trkpt lat="43.958075" lon="12.6858017"><ele>26.0</ele><time>2026-04-30T12:34:20.159Z</time></trkpt><trkpt lat="43.9579667" lon="12.68567"><ele>26.0</ele><time>2026-04-30T12:34:21.157Z</time></trkpt><trkpt lat="43.9578583" lon="12.6855367"><ele>26.0</ele><time>2026-04-30T12:34:22.159Z</time></trkpt><trkpt lat="43.9577467" lon="12.6854067"><ele>26.0</ele><time>2026-04-30T12:34:23.157Z</time></trkpt><trkpt lat="43.9576383" lon="12.6852733"><ele>26.0</ele><time>2026-04-30T12:34:24.159Z</time></trkpt><trkpt lat="43.9575283" lon="12.685135"><ele>26.666666666666664</ele><time>2026-04-30T12:34:25.157Z</time></trkpt><trkpt lat="43.9574167" lon="12.6849967"><ele>27.333333333333336</ele><time>2026-04-30T12:34:26.157Z</time></trkpt><trkpt lat="43.9573017" lon="12.6848583"><ele>28.0</ele><time>2026-04-30T12:34:27.158Z</time></trkpt><trkpt lat="43.9571867" lon="12.6847167"><ele>28.0</ele><time>2026-04-30T12:34:28.158Z</time></trkpt><trkpt lat="43.957065" lon="12.6845683"><ele>28.0</ele><time>2026-04-30T12:34:29.16Z</time></trkpt><trkpt lat="43.95694" lon="12.684415"><ele>28.0</ele><time>2026-04-30T12:34:30.158Z</time></trkpt><trkpt lat="43.9568117" lon="12.6842567"><ele>28.333333333333336</ele><time>2026-04-30T12:34:31.158Z</time></trkpt><trkpt lat="43.9566867" lon="12.6840983"><ele>28.666666666666664</ele><time>2026-04-30T12:34:32.158Z</time></trkpt><trkpt lat="43.9565633" lon="12.6839467"><ele>29.0</ele><time>2026-04-30T12:34:33.158Z</time></trkpt><trkpt lat="43.9564533" lon="12.68381"><ele>29.0</ele><time>2026-04-30T12:34:34.157Z</time></trkpt><trkpt lat="43.9563533" lon="12.6836883"><ele>29.0</ele><time>2026-04-30T12:34:35.158Z</time></trkpt><trkpt lat="43.9562683" lon="12.6835783"><ele>29.0</ele><time>2026-04-30T12:34:36.157Z</time></trkpt><trkpt lat="43.9561983" lon="12.6834683"><ele>29.0</ele><time>2026-04-30T12:34:37.157Z</time></trkpt><trkpt lat="43.9561517" lon="12.6833533"><ele>28.999999999999996</ele><time>2026-04-30T12:34:38.159Z</time></trkpt><trkpt lat="43.9561167" lon="12.68324"><ele>29.0</ele><time>2026-04-30T12:34:39.158Z</time></trkpt><trkpt lat="43.95608" lon="12.68315"><ele>29.0</ele><time>2026-04-30T12:34:40.159Z</time></trkpt><trkpt lat="43.9560217" lon="12.6830867"><ele>29.0</ele><time>2026-04-30T12:34:41.157Z</time></trkpt><trkpt lat="43.9559417" lon="12.6830467"><ele>28.999999999999996</ele><time>2026-04-30T12:34:42.158Z</time></trkpt><trkpt lat="43.95585" lon="12.6830067"><ele>29.0</ele><time>2026-04-30T12:34:43.158Z</time></trkpt><trkpt lat="43.95575" lon="12.6829367"><ele>29.0</ele><time>2026-04-30T12:34:44.159Z</time></trkpt><trkpt lat="43.9556483" lon="12.68283"><ele>29.0</ele><time>2026-04-30T12:34:45.158Z</time></trkpt><trkpt lat="43.95554" lon="12.6827067"><ele>29.0</ele><time>2026-04-30T12:34:46.158Z</time></trkpt><trkpt lat="43.95543" lon="12.6825717"><ele>29.0</ele><time>2026-04-30T12:34:47.16Z</time></trkpt><trkpt lat="43.9553133" lon="12.68243"><ele>29.0</ele><time>2026-04-30T12:34:48.159Z</time></trkpt><trkpt lat="43.9551883" lon="12.6822767"><ele>29.0</ele><time>2026-04-30T12:34:49.158Z</time></trkpt><trkpt lat="43.955055" lon="12.6821167"><ele>29.0</ele><time>2026-04-30T12:34:50.158Z</time></trkpt><trkpt lat="43.9549183" lon="12.6819517"><ele>29.333333333333332</ele><time>2026-04-30T12:34:51.159Z</time></trkpt><trkpt lat="43.95478" lon="12.6817867"><ele>29.666666666666664</ele><time>2026-04-30T12:34:52.159Z</time></trkpt><trkpt lat="43.954645" lon="12.681625"><ele>30.0</ele><time>2026-04-30T12:34:53.157Z</time></trkpt><trkpt lat="43.954515" lon="12.6814583"><ele>30.0</ele><time>2026-04-30T12:34:54.157Z</time></trkpt><trkpt lat="43.954385" lon="12.6812917"><ele>30.0</ele><time>2026-04-30T12:34:55.157Z</time></trkpt><trkpt lat="43.954255" lon="12.6811283"><ele>30.0</ele><time>2026-04-30T12:34:56.158Z</time></trkpt><trkpt lat="43.954125" lon="12.68096"><ele>30.333333333333336</ele><time>2026-04-30T12:34:57.157Z</time></trkpt><trkpt lat="43.954005" lon="12.6808"><ele>30.666666666666668</ele><time>2026-04-30T12:34:58.158Z</time></trkpt><trkpt lat="43.9538967" lon="12.6806483"><ele>31.0</ele><time>2026-04-30T12:34:59.158Z</time></trkpt><trkpt lat="43.9538" lon="12.6805017"><ele>31.0</ele><time>2026-04-30T12:35:00.159Z</time></trkpt><trkpt lat="43.9537117" lon="12.6803567"><ele>31.0</ele><time>2026-04-30T12:35:01.158Z</time></trkpt><trkpt lat="43.9536267" lon="12.68021"><ele>31.0</ele><time>2026-04-30T12:35:02.158Z</time></trkpt><trkpt lat="43.953535" lon="12.6800667"><ele>31.0</ele><time>2026-04-30T12:35:03.158Z</time></trkpt><trkpt lat="43.953435" lon="12.679925"><ele>31.666666666666668</ele><time>2026-04-30T12:35:04.158Z</time></trkpt><trkpt lat="43.9533233" lon="12.6797867"><ele>32.333333333333336</ele><time>2026-04-30T12:35:05.158Z</time></trkpt><trkpt lat="43.953195" lon="12.6796433"><ele>33.0</ele><time>2026-04-30T12:35:06.158Z</time></trkpt><trkpt lat="43.95305" lon="12.6794917"><ele>32.666666666666664</ele><time>2026-04-30T12:35:07.158Z</time></trkpt><trkpt lat="43.95289" lon="12.67934"><ele>32.33333333333333</ele><time>2026-04-30T12:35:08.158Z</time></trkpt><trkpt lat="43.9527383" lon="12.6791967"><ele>32.0</ele><time>2026-04-30T12:35:09.158Z</time></trkpt><trkpt lat="43.9525983" lon="12.679065"><ele>32.33333333333333</ele><time>2026-04-30T12:35:10.159Z</time></trkpt><trkpt lat="43.952465" lon="12.6789283"><ele>32.666666666666664</ele><time>2026-04-30T12:35:11.158Z</time></trkpt><trkpt lat="43.9523367" lon="12.6787917"><ele>33.0</ele><time>2026-04-30T12:35:12.158Z</time></trkpt><trkpt lat="43.95221" lon="12.6786483"><ele>33.333333333333336</ele><time>2026-04-30T12:35:13.157Z</time></trkpt><trkpt lat="43.95209" lon="12.6785033"><ele>33.66666666666667</ele><time>2026-04-30T12:35:14.158Z</time></trkpt><trkpt lat="43.9519783" lon="12.6783667"><ele>34.0</ele><time>2026-04-30T12:35:15.157Z</time></trkpt><trkpt lat="43.9518717" lon="12.678235"><ele>34.0</ele><time>2026-04-30T12:35:16.158Z</time></trkpt><trkpt lat="43.9517733" lon="12.6781133"><ele>34.0</ele><time>2026-04-30T12:35:17.158Z</time></trkpt><trkpt lat="43.9516817" lon="12.6779967"><ele>34.0</ele><time>2026-04-30T12:35:18.16Z</time></trkpt><trkpt lat="43.951595" lon="12.677885"><ele>34.0</ele><time>2026-04-30T12:35:19.159Z</time></trkpt><trkpt lat="43.9515083" lon="12.677775"><ele>33.75</ele><time>2026-04-30T12:35:20.159Z</time></trkpt><trkpt lat="43.9514167" lon="12.677665"><ele>33.5</ele><time>2026-04-30T12:35:21.16Z</time></trkpt><trkpt lat="43.9513267" lon="12.6775567"><ele>33.25</ele><time>2026-04-30T12:35:22.157Z</time></trkpt><trkpt lat="43.95124" lon="12.6774533"><ele>33.0</ele><time>2026-04-30T12:35:23.159Z</time></trkpt><trkpt lat="43.95116" lon="12.6773583"><ele>33.0</ele><time>2026-04-30T12:35:24.159Z</time></trkpt><trkpt lat="43.9510833" lon="12.67727"><ele>33.0</ele><time>2026-04-30T12:35:25.157Z</time></trkpt><trkpt lat="43.9510067" lon="12.6771833"><ele>33.0</ele><time>2026-04-30T12:35:26.158Z</time></trkpt><trkpt lat="43.9509333" lon="12.6770967"><ele>33.0</ele><time>2026-04-30T12:35:27.157Z</time></trkpt><trkpt lat="43.9508667" lon="12.677015"><ele>33.0</ele><time>2026-04-30T12:35:28.158Z</time></trkpt><trkpt lat="43.9508083" lon="12.67694"><ele>33.0</ele><time>2026-04-30T12:35:29.157Z</time></trkpt><trkpt lat="43.95076" lon="12.67687"><ele>33.0</ele><time>2026-04-30T12:35:30.157Z</time></trkpt><trkpt lat="43.95072" lon="12.6767967"><ele>33.0</ele><time>2026-04-30T12:35:31.158Z</time></trkpt><trkpt lat="43.9506883" lon="12.6766217"><ele>33.0</ele><time>2026-04-30T12:35:33.158Z</time></trkpt><trkpt lat="43.95071" lon="12.67652"><ele>33.0</ele><time>2026-04-30T12:35:34.157Z</time></trkpt><trkpt lat="43.9507583" lon="12.6764133"><ele>33.0</ele><time>2026-04-30T12:35:35.157Z</time></trkpt><trkpt lat="43.950825" lon="12.676305"><ele>33.0</ele><time>2026-04-30T12:35:36.157Z</time></trkpt><trkpt lat="43.9509" lon="12.6761867"><ele>33.0</ele><time>2026-04-30T12:35:37.159Z</time></trkpt><trkpt lat="43.9509783" lon="12.6760567"><ele>33.0</ele><time>2026-04-30T12:35:38.158Z</time></trkpt><trkpt lat="43.9510567" lon="12.67593"><ele>33.0</ele><time>2026-04-30T12:35:39.159Z</time></trkpt><trkpt lat="43.9511283" lon="12.6758067"><ele>33.0</ele><time>2026-04-30T12:35:40.16Z</time></trkpt><trkpt lat="43.9512" lon="12.6756867"><ele>33.0</ele><time>2026-04-30T12:35:41.159Z</time></trkpt><trkpt lat="43.9512717" lon="12.67557"><ele>33.0</ele><time>2026-04-30T12:35:42.159Z</time></trkpt><trkpt lat="43.95134" lon="12.67545"><ele>33.0</ele><time>2026-04-30T12:35:43.158Z</time></trkpt><trkpt lat="43.9514067" lon="12.67533"><ele>33.0</ele><time>2026-04-30T12:35:44.158Z</time></trkpt><trkpt lat="43.951465" lon="12.6752067"><ele>33.4</ele><time>2026-04-30T12:35:45.16Z</time></trkpt><trkpt lat="43.951515" lon="12.6750817"><ele>33.8</ele><time>2026-04-30T12:35:46.158Z</time></trkpt><trkpt lat="43.9515567" lon="12.674955"><ele>34.2</ele><time>2026-04-30T12:35:47.159Z</time></trkpt><trkpt lat="43.95159" lon="12.6748317"><ele>34.6</ele><time>2026-04-30T12:35:48.16Z</time></trkpt><trkpt lat="43.9516133" lon="12.6747217"><ele>35.0</ele><time>2026-04-30T12:35:49.159Z</time></trkpt><trkpt lat="43.95163" lon="12.674625"><ele>35.0</ele><time>2026-04-30T12:35:50.16Z</time></trkpt><trkpt lat="43.9516533" lon="12.6744667"><ele>35.0</ele><time>2026-04-30T12:35:52.159Z</time></trkpt><trkpt lat="43.95167" lon="12.6743083"><ele>35.0</ele><time>2026-04-30T12:35:54.16Z</time></trkpt><trkpt lat="43.95169" lon="12.6741433"><ele>35.0</ele><time>2026-04-30T12:35:56.158Z</time></trkpt><trkpt lat="43.9517133" lon="12.67398"><ele>34.83333333333333</ele><time>2026-04-30T12:35:58.16Z</time></trkpt><trkpt lat="43.9517333" lon="12.673855"><ele>34.666666666666664</ele><time>2026-04-30T12:36:00.16Z</time></trkpt><trkpt lat="43.951755" lon="12.673755"><ele>34.5</ele><time>2026-04-30T12:36:03.16Z</time></trkpt><trkpt lat="43.951785" lon="12.6736483"><ele>34.333333333333336</ele><time>2026-04-30T12:36:05.16Z</time></trkpt><trkpt lat="43.9517967" lon="12.6735267"><ele>34.16666666666667</ele><time>2026-04-30T12:36:07.161Z</time></trkpt><trkpt lat="43.9517783" lon="12.6733817"><ele>34.0</ele><time>2026-04-30T12:36:09.16Z</time></trkpt><trkpt lat="43.951765" lon="12.67328"><ele>34.0</ele><time>2026-04-30T12:36:10.158Z</time></trkpt><trkpt lat="43.951765" lon="12.673155"><ele>34.0</ele><time>2026-04-30T12:36:11.158Z</time></trkpt><trkpt lat="43.9517717" lon="12.6730067"><ele>34.0</ele><time>2026-04-30T12:36:12.159Z</time></trkpt><trkpt lat="43.9517833" lon="12.6728467"><ele>34.0</ele><time>2026-04-30T12:36:13.16Z</time></trkpt><trkpt lat="43.9517967" lon="12.67268"><ele>34.0</ele><time>2026-04-30T12:36:14.161Z</time></trkpt><trkpt lat="43.9518067" lon="12.67252"><ele>34.2</ele><time>2026-04-30T12:36:15.16Z</time></trkpt><trkpt lat="43.9518117" lon="12.67237"><ele>34.4</ele><time>2026-04-30T12:36:16.158Z</time></trkpt><trkpt lat="43.9518133" lon="12.67223"><ele>34.6</ele><time>2026-04-30T12:36:17.159Z</time></trkpt><trkpt lat="43.9518217" lon="12.6720983"><ele>34.8</ele><time>2026-04-30T12:36:18.16Z</time></trkpt><trkpt lat="43.9518417" lon="12.6719633"><ele>35.0</ele><time>2026-04-30T12:36:19.16Z</time></trkpt><trkpt lat="43.9518733" lon="12.6718067"><ele>35.0</ele><time>2026-04-30T12:36:20.162Z</time></trkpt><trkpt lat="43.9519133" lon="12.6716267"><ele>35.0</ele><time>2026-04-30T12:36:21.161Z</time></trkpt><trkpt lat="43.951955" lon="12.67143"><ele>35.0</ele><time>2026-04-30T12:36:22.161Z</time></trkpt><trkpt lat="43.9519967" lon="12.6712183"><ele>35.0</ele><time>2026-04-30T12:36:23.161Z</time></trkpt><trkpt lat="43.95204" lon="12.671005"><ele>35.0</ele><time>2026-04-30T12:36:24.16Z</time></trkpt><trkpt lat="43.9520833" lon="12.6707983"><ele>35.0</ele><time>2026-04-30T12:36:25.158Z</time></trkpt><trkpt lat="43.95213" lon="12.6705883"><ele>35.0</ele><time>2026-04-30T12:36:26.16Z</time></trkpt><trkpt lat="43.9521733" lon="12.6703767"><ele>35.25</ele><time>2026-04-30T12:36:27.159Z</time></trkpt><trkpt lat="43.952215" lon="12.6701733"><ele>35.5</ele><time>2026-04-30T12:36:28.158Z</time></trkpt><trkpt lat="43.9522517" lon="12.669985"><ele>35.75</ele><time>2026-04-30T12:36:29.159Z</time></trkpt><trkpt lat="43.9522783" lon="12.6698267"><ele>36.0</ele><time>2026-04-30T12:36:30.158Z</time></trkpt><trkpt lat="43.952295" lon="12.6696933"><ele>36.0</ele><time>2026-04-30T12:36:31.159Z</time></trkpt><trkpt lat="43.9522867" lon="12.6695783"><ele>36.0</ele><time>2026-04-30T12:36:32.161Z</time></trkpt><trkpt lat="43.9522533" lon="12.6694633"><ele>36.0</ele><time>2026-04-30T12:36:33.158Z</time></trkpt><trkpt lat="43.95219" lon="12.6693383"><ele>36.0</ele><time>2026-04-30T12:36:34.16Z</time></trkpt><trkpt lat="43.9520983" lon="12.6692067"><ele>36.0</ele><time>2026-04-30T12:36:35.158Z</time></trkpt><trkpt lat="43.9519933" lon="12.6690683"><ele>36.25</ele><time>2026-04-30T12:36:36.158Z</time></trkpt><trkpt lat="43.9519" lon="12.6689383"><ele>36.5</ele><time>2026-04-30T12:36:37.158Z</time></trkpt><trkpt lat="43.9518267" lon="12.6687967"><ele>36.75</ele><time>2026-04-30T12:36:38.159Z</time></trkpt><trkpt lat="43.95178" lon="12.6686267"><ele>37.0</ele><time>2026-04-30T12:36:39.158Z</time></trkpt><trkpt lat="43.951765" lon="12.66843"><ele>37.5</ele><time>2026-04-30T12:36:40.158Z</time></trkpt><trkpt lat="43.9517683" lon="12.6682267"><ele>38.0</ele><time>2026-04-30T12:36:41.159Z</time></trkpt><trkpt lat="43.9517633" lon="12.6680383"><ele>38.5</ele><time>2026-04-30T12:36:42.158Z</time></trkpt><trkpt lat="43.951735" lon="12.6678567"><ele>39.0</ele><time>2026-04-30T12:36:43.159Z</time></trkpt><trkpt lat="43.9516767" lon="12.6676917"><ele>39.0</ele><time>2026-04-30T12:36:44.159Z</time></trkpt><trkpt lat="43.9515883" lon="12.6675367"><ele>39.0</ele><time>2026-04-30T12:36:45.158Z</time></trkpt><trkpt lat="43.9514783" lon="12.6673917"><ele>39.0</ele><time>2026-04-30T12:36:46.158Z</time></trkpt><trkpt lat="43.9513517" lon="12.667265"><ele>39.0</ele><time>2026-04-30T12:36:47.16Z</time></trkpt><trkpt lat="43.9512233" lon="12.66716"><ele>39.0</ele><time>2026-04-30T12:36:48.16Z</time></trkpt><trkpt lat="43.9511033" lon="12.667055"><ele>39.0</ele><time>2026-04-30T12:36:49.161Z</time></trkpt><trkpt lat="43.950995" lon="12.6669283"><ele>39.0</ele><time>2026-04-30T12:36:50.16Z</time></trkpt><trkpt lat="43.9508983" lon="12.666775"><ele>40.666666666666664</ele><time>2026-04-30T12:36:51.161Z</time></trkpt><trkpt lat="43.950805" lon="12.6665983"><ele>42.33333333333333</ele><time>2026-04-30T12:36:52.16Z</time></trkpt><trkpt lat="43.9507117" lon="12.6664083"><ele>44.0</ele><time>2026-04-30T12:36:53.162Z</time></trkpt><trkpt lat="43.9506217" lon="12.6662067"><ele>44.666666666666664</ele><time>2026-04-30T12:36:54.16Z</time></trkpt><trkpt lat="43.9505317" lon="12.6659933"><ele>45.333333333333336</ele><time>2026-04-30T12:36:55.16Z</time></trkpt><trkpt lat="43.9504433" lon="12.66577"><ele>46.0</ele><time>2026-04-30T12:36:56.159Z</time></trkpt><trkpt lat="43.9503583" lon="12.6655517"><ele>46.0</ele><time>2026-04-30T12:36:57.159Z</time></trkpt><trkpt lat="43.9502817" lon="12.665345"><ele>46.0</ele><time>2026-04-30T12:36:58.158Z</time></trkpt><trkpt lat="43.950215" lon="12.66514"><ele>46.0</ele><time>2026-04-30T12:36:59.159Z</time></trkpt><trkpt lat="43.9501683" lon="12.6649233"><ele>46.66666666666667</ele><time>2026-04-30T12:37:00.158Z</time></trkpt><trkpt lat="43.9501483" lon="12.6646967"><ele>47.333333333333336</ele><time>2026-04-30T12:37:01.158Z</time></trkpt><trkpt lat="43.9501417" lon="12.6644583"><ele>48.0</ele><time>2026-04-30T12:37:02.158Z</time></trkpt><trkpt lat="43.9501417" lon="12.66421"><ele>48.66666666666667</ele><time>2026-04-30T12:37:03.158Z</time></trkpt><trkpt lat="43.9501433" lon="12.6639583"><ele>49.333333333333336</ele><time>2026-04-30T12:37:04.159Z</time></trkpt><trkpt lat="43.9501483" lon="12.6637117"><ele>50.0</ele><time>2026-04-30T12:37:05.159Z</time></trkpt><trkpt lat="43.9501567" lon="12.6634617"><ele>50.333333333333336</ele><time>2026-04-30T12:37:06.158Z</time></trkpt><trkpt lat="43.950165" lon="12.6632067"><ele>50.66666666666667</ele><time>2026-04-30T12:37:07.158Z</time></trkpt><trkpt lat="43.9501733" lon="12.6629533"><ele>51.0</ele><time>2026-04-30T12:37:08.159Z</time></trkpt><trkpt lat="43.9501833" lon="12.6626967"><ele>51.66666666666667</ele><time>2026-04-30T12:37:09.16Z</time></trkpt><trkpt lat="43.9501883" lon="12.6624467"><ele>52.333333333333336</ele><time>2026-04-30T12:37:10.158Z</time></trkpt><trkpt lat="43.9501867" lon="12.6622117"><ele>53.0</ele><time>2026-04-30T12:37:11.157Z</time></trkpt><trkpt lat="43.9501783" lon="12.6619917"><ele>55.333333333333336</ele><time>2026-04-30T12:37:12.158Z</time></trkpt><trkpt lat="43.95017" lon="12.661775"><ele>57.66666666666667</ele><time>2026-04-30T12:37:13.158Z</time></trkpt><trkpt lat="43.950175" lon="12.6615533"><ele>60.0</ele><time>2026-04-30T12:37:14.159Z</time></trkpt><trkpt lat="43.9501983" lon="12.6613283"><ele>61.33333333333333</ele><time>2026-04-30T12:37:15.159Z</time></trkpt><trkpt lat="43.95024" lon="12.6610933"><ele>62.666666666666664</ele><time>2026-04-30T12:37:16.159Z</time></trkpt><trkpt lat="43.9502867" lon="12.6608633"><ele>64.0</ele><time>2026-04-30T12:37:17.16Z</time></trkpt><trkpt lat="43.95033" lon="12.6606517"><ele>64.0</ele><time>2026-04-30T12:37:18.16Z</time></trkpt><trkpt lat="43.950375" lon="12.6604467"><ele>64.0</ele><time>2026-04-30T12:37:19.16Z</time></trkpt><trkpt lat="43.9504267" lon="12.660245"><ele>64.0</ele><time>2026-04-30T12:37:20.159Z</time></trkpt><trkpt lat="43.95049" lon="12.660055"><ele>65.33333333333333</ele><time>2026-04-30T12:37:21.161Z</time></trkpt><trkpt lat="43.9505717" lon="12.65987"><ele>66.66666666666667</ele><time>2026-04-30T12:37:22.159Z</time></trkpt><trkpt lat="43.95066" lon="12.659685"><ele>68.0</ele><time>2026-04-30T12:37:23.159Z</time></trkpt><trkpt lat="43.950745" lon="12.6594933"><ele>68.0</ele><time>2026-04-30T12:37:24.159Z</time></trkpt><trkpt lat="43.9508183" lon="12.6593067"><ele>68.0</ele><time>2026-04-30T12:37:25.158Z</time></trkpt><trkpt lat="43.9508783" lon="12.6591217"><ele>68.0</ele><time>2026-04-30T12:37:26.159Z</time></trkpt><trkpt lat="43.9509183" lon="12.6589333"><ele>68.0</ele><time>2026-04-30T12:37:27.158Z</time></trkpt><trkpt lat="43.95094" lon="12.658735"><ele>67.66666666666667</ele><time>2026-04-30T12:37:28.159Z</time></trkpt><trkpt lat="43.95095" lon="12.6585283"><ele>67.33333333333333</ele><time>2026-04-30T12:37:29.158Z</time></trkpt><trkpt lat="43.9509583" lon="12.6583067"><ele>67.0</ele><time>2026-04-30T12:37:30.159Z</time></trkpt><trkpt lat="43.9509667" lon="12.65808"><ele>67.0</ele><time>2026-04-30T12:37:31.158Z</time></trkpt><trkpt lat="43.9509767" lon="12.657855"><ele>67.0</ele><time>2026-04-30T12:37:32.159Z</time></trkpt><trkpt lat="43.95099" lon="12.65765"><ele>67.0</ele><time>2026-04-30T12:37:33.159Z</time></trkpt><trkpt lat="43.9510117" lon="12.65747"><ele>67.0</ele><time>2026-04-30T12:37:34.158Z</time></trkpt><trkpt lat="43.9510433" lon="12.6573067"><ele>68.75</ele><time>2026-04-30T12:37:35.158Z</time></trkpt><trkpt lat="43.9511017" lon="12.6571617"><ele>70.5</ele><time>2026-04-30T12:37:36.159Z</time></trkpt><trkpt lat="43.9511867" lon="12.6570367"><ele>72.25</ele><time>2026-04-30T12:37:37.159Z</time></trkpt><trkpt lat="43.9512867" lon="12.6569217"><ele>74.0</ele><time>2026-04-30T12:37:38.16Z</time></trkpt><trkpt lat="43.9513833" lon="12.6567983"><ele>76.75</ele><time>2026-04-30T12:37:39.16Z</time></trkpt><trkpt lat="43.9514517" lon="12.6566517"><ele>79.5</ele><time>2026-04-30T12:37:40.158Z</time></trkpt><trkpt lat="43.951505" lon="12.656495"><ele>82.25</ele><time>2026-04-30T12:37:41.158Z</time></trkpt><trkpt lat="43.9515483" lon="12.65633"><ele>85.0</ele><time>2026-04-30T12:37:42.158Z</time></trkpt><trkpt lat="43.951595" lon="12.6561517"><ele>85.0</ele><time>2026-04-30T12:37:43.159Z</time></trkpt><trkpt lat="43.9516467" lon="12.6559617"><ele>85.0</ele><time>2026-04-30T12:37:44.158Z</time></trkpt><trkpt lat="43.9517" lon="12.6557617"><ele>85.0</ele><time>2026-04-30T12:37:45.159Z</time></trkpt><trkpt lat="43.9517533" lon="12.6555633"><ele>85.0</ele><time>2026-04-30T12:37:46.157Z</time></trkpt><trkpt lat="43.9518133" lon="12.6553683"><ele>85.0</ele><time>2026-04-30T12:37:47.159Z</time></trkpt><trkpt lat="43.9518817" lon="12.6551817"><ele>85.0</ele><time>2026-04-30T12:37:48.158Z</time></trkpt><trkpt lat="43.9519683" lon="12.6550017"><ele>87.33333333333333</ele><time>2026-04-30T12:37:49.16Z</time></trkpt><trkpt lat="43.9520633" lon="12.6548217"><ele>89.66666666666667</ele><time>2026-04-30T12:37:50.159Z</time></trkpt><trkpt lat="43.9521617" lon="12.6546333"><ele>92.0</ele><time>2026-04-30T12:37:51.159Z</time></trkpt><trkpt lat="43.9522617" lon="12.6544433"><ele>94.33333333333334</ele><time>2026-04-30T12:37:52.16Z</time></trkpt><trkpt lat="43.9523583" lon="12.654245"><ele>96.66666666666667</ele><time>2026-04-30T12:37:53.16Z</time></trkpt><trkpt lat="43.9524467" lon="12.65406"><ele>99.0</ele><time>2026-04-30T12:37:54.16Z</time></trkpt><trkpt lat="43.9525217" lon="12.6538683"><ele>96.66666666666667</ele><time>2026-04-30T12:37:55.159Z</time></trkpt><trkpt lat="43.95259" lon="12.6536717"><ele>94.33333333333334</ele><time>2026-04-30T12:37:56.158Z</time></trkpt><trkpt lat="43.9526583" lon="12.6534683"><ele>92.0</ele><time>2026-04-30T12:37:57.16Z</time></trkpt><trkpt lat="43.95273" lon="12.6532567"><ele>92.0</ele><time>2026-04-30T12:37:58.159Z</time></trkpt><trkpt lat="43.9528067" lon="12.6530567"><ele>92.0</ele><time>2026-04-30T12:37:59.158Z</time></trkpt><trkpt lat="43.952895" lon="12.65288"><ele>92.0</ele><time>2026-04-30T12:38:00.158Z</time></trkpt><trkpt lat="43.9529917" lon="12.65271"><ele>94.0</ele><time>2026-04-30T12:38:01.158Z</time></trkpt><trkpt lat="43.9530867" lon="12.652545"><ele>96.0</ele><time>2026-04-30T12:38:02.16Z</time></trkpt><trkpt lat="43.95318" lon="12.65239"><ele>98.0</ele><time>2026-04-30T12:38:03.158Z</time></trkpt><trkpt lat="43.95327" lon="12.6522383"><ele>100.0</ele><time>2026-04-30T12:38:04.159Z</time></trkpt><trkpt lat="43.9533667" lon="12.6520867"><ele>98.25</ele><time>2026-04-30T12:38:05.159Z</time></trkpt><trkpt lat="43.9534633" lon="12.6519383"><ele>96.5</ele><time>2026-04-30T12:38:06.161Z</time></trkpt><trkpt lat="43.9535583" lon="12.651785"><ele>94.75</ele><time>2026-04-30T12:38:07.159Z</time></trkpt><trkpt lat="43.95365" lon="12.6516217"><ele>93.0</ele><time>2026-04-30T12:38:08.159Z</time></trkpt><trkpt lat="43.95374" lon="12.6514467"><ele>93.0</ele><time>2026-04-30T12:38:09.158Z</time></trkpt><trkpt lat="43.9538283" lon="12.6512667"><ele>93.0</ele><time>2026-04-30T12:38:10.158Z</time></trkpt><trkpt lat="43.95391" lon="12.651075"><ele>93.0</ele><time>2026-04-30T12:38:11.158Z</time></trkpt><trkpt lat="43.9539833" lon="12.65087"><ele>94.66666666666666</ele><time>2026-04-30T12:38:12.158Z</time></trkpt><trkpt lat="43.9540483" lon="12.6506567"><ele>96.33333333333333</ele><time>2026-04-30T12:38:13.16Z</time></trkpt><trkpt lat="43.95411" lon="12.6504417"><ele>98.0</ele><time>2026-04-30T12:38:14.16Z</time></trkpt><trkpt lat="43.9541767" lon="12.6502317"><ele>98.0</ele><time>2026-04-30T12:38:15.159Z</time></trkpt><trkpt lat="43.954255" lon="12.6500283"><ele>98.0</ele><time>2026-04-30T12:38:16.158Z</time></trkpt><trkpt lat="43.9543433" lon="12.64983"><ele>98.0</ele><time>2026-04-30T12:38:17.159Z</time></trkpt><trkpt lat="43.9544383" lon="12.64963"><ele>99.66666666666666</ele><time>2026-04-30T12:38:18.159Z</time></trkpt><trkpt lat="43.9545383" lon="12.6494167"><ele>101.33333333333334</ele><time>2026-04-30T12:38:19.158Z</time></trkpt><trkpt lat="43.9546433" lon="12.64919"><ele>103.0</ele><time>2026-04-30T12:38:20.159Z</time></trkpt><trkpt lat="43.954745" lon="12.64896"><ele>103.0</ele><time>2026-04-30T12:38:21.159Z</time></trkpt><trkpt lat="43.9548433" lon="12.6487417"><ele>103.0</ele><time>2026-04-30T12:38:22.158Z</time></trkpt><trkpt lat="43.9549367" lon="12.648535"><ele>103.0</ele><time>2026-04-30T12:38:23.158Z</time></trkpt><trkpt lat="43.9550333" lon="12.6483317"><ele>101.66666666666667</ele><time>2026-04-30T12:38:24.158Z</time></trkpt><trkpt lat="43.955125" lon="12.6481333"><ele>100.33333333333334</ele><time>2026-04-30T12:38:25.158Z</time></trkpt><trkpt lat="43.9552067" lon="12.6479433"><ele>99.0</ele><time>2026-04-30T12:38:26.159Z</time></trkpt><trkpt lat="43.955275" lon="12.647765"><ele>101.0</ele><time>2026-04-30T12:38:27.158Z</time></trkpt><trkpt lat="43.9553283" lon="12.6475817"><ele>103.0</ele><time>2026-04-30T12:38:28.159Z</time></trkpt><trkpt lat="43.955375" lon="12.6473867"><ele>105.0</ele><time>2026-04-30T12:38:29.158Z</time></trkpt><trkpt lat="43.955415" lon="12.6471833"><ele>107.0</ele><time>2026-04-30T12:38:30.16Z</time></trkpt><trkpt lat="43.9554433" lon="12.6469883"><ele>107.75</ele><time>2026-04-30T12:38:31.159Z</time></trkpt><trkpt lat="43.9554617" lon="12.6468083"><ele>108.5</ele><time>2026-04-30T12:38:32.159Z</time></trkpt><trkpt lat="43.955465" lon="12.6466367"><ele>109.25</ele><time>2026-04-30T12:38:33.159Z</time></trkpt><trkpt lat="43.9554433" lon="12.6464633"><ele>110.0</ele><time>2026-04-30T12:38:34.16Z</time></trkpt><trkpt lat="43.9553983" lon="12.646285"><ele>110.66666666666666</ele><time>2026-04-30T12:38:35.159Z</time></trkpt><trkpt lat="43.9553333" lon="12.6460983"><ele>111.33333333333334</ele><time>2026-04-30T12:38:36.159Z</time></trkpt><trkpt lat="43.9552617" lon="12.6459033"><ele>112.0</ele><time>2026-04-30T12:38:37.158Z</time></trkpt><trkpt lat="43.95519" lon="12.6457167"><ele>112.0</ele><time>2026-04-30T12:38:38.158Z</time></trkpt><trkpt lat="43.9551367" lon="12.6455533"><ele>111.99999999999999</ele><time>2026-04-30T12:38:39.158Z</time></trkpt><trkpt lat="43.9551083" lon="12.6454117"><ele>111.99999999999999</ele><time>2026-04-30T12:38:40.159Z</time></trkpt><trkpt lat="43.9551017" lon="12.6452717"><ele>112.0</ele><time>2026-04-30T12:38:41.16Z</time></trkpt><trkpt lat="43.95512" lon="12.6451217"><ele>112.0</ele><time>2026-04-30T12:38:42.158Z</time></trkpt><trkpt lat="43.9551617" lon="12.6449617"><ele>113.75</ele><time>2026-04-30T12:38:43.158Z</time></trkpt><trkpt lat="43.9552267" lon="12.6447867"><ele>115.5</ele><time>2026-04-30T12:38:44.159Z</time></trkpt><trkpt lat="43.9553033" lon="12.6446083"><ele>117.25</ele><time>2026-04-30T12:38:45.159Z</time></trkpt><trkpt lat="43.955395" lon="12.64443"><ele>119.0</ele><time>2026-04-30T12:38:46.158Z</time></trkpt><trkpt lat="43.9554933" lon="12.644245"><ele>120.66666666666666</ele><time>2026-04-30T12:38:47.158Z</time></trkpt><trkpt lat="43.955595" lon="12.6440533"><ele>122.33333333333334</ele><time>2026-04-30T12:38:48.158Z</time></trkpt><trkpt lat="43.9556983" lon="12.64386"><ele>124.0</ele><time>2026-04-30T12:38:49.158Z</time></trkpt><trkpt lat="43.9558067" lon="12.6436633"><ele>123.66666666666667</ele><time>2026-04-30T12:38:50.158Z</time></trkpt><trkpt lat="43.955915" lon="12.6434617"><ele>123.33333333333334</ele><time>2026-04-30T12:38:51.158Z</time></trkpt><trkpt lat="43.9560217" lon="12.6432617"><ele>123.0</ele><time>2026-04-30T12:38:52.158Z</time></trkpt><trkpt lat="43.9561283" lon="12.6430617"><ele>123.0</ele><time>2026-04-30T12:38:53.158Z</time></trkpt><trkpt lat="43.9562317" lon="12.6428633"><ele>123.0</ele><time>2026-04-30T12:38:54.158Z</time></trkpt><trkpt lat="43.9563333" lon="12.642675"><ele>123.0</ele><time>2026-04-30T12:38:55.158Z</time></trkpt><trkpt lat="43.956425" lon="12.6425033"><ele>124.75</ele><time>2026-04-30T12:38:56.158Z</time></trkpt><trkpt lat="43.9565117" lon="12.64234"><ele>126.5</ele><time>2026-04-30T12:38:57.159Z</time></trkpt><trkpt lat="43.956595" lon="12.6421833"><ele>128.25</ele><time>2026-04-30T12:38:58.158Z</time></trkpt><trkpt lat="43.9566767" lon="12.64204"><ele>130.0</ele><time>2026-04-30T12:38:59.159Z</time></trkpt><trkpt lat="43.95675" lon="12.6419033"><ele>130.0</ele><time>2026-04-30T12:39:00.159Z</time></trkpt><trkpt lat="43.9568267" lon="12.6417683"><ele>130.0</ele><time>2026-04-30T12:39:01.158Z</time></trkpt><trkpt lat="43.9568967" lon="12.64164"><ele>130.0</ele><time>2026-04-30T12:39:02.159Z</time></trkpt><trkpt lat="43.956955" lon="12.6415167"><ele>130.0</ele><time>2026-04-30T12:39:03.16Z</time></trkpt><trkpt lat="43.9569967" lon="12.6413867"><ele>130.0</ele><time>2026-04-30T12:39:04.159Z</time></trkpt><trkpt lat="43.9570117" lon="12.6412433"><ele>128.6</ele><time>2026-04-30T12:39:05.159Z</time></trkpt><trkpt lat="43.95701" lon="12.641095"><ele>127.2</ele><time>2026-04-30T12:39:06.159Z</time></trkpt><trkpt lat="43.9569933" lon="12.6409567"><ele>125.80000000000001</ele><time>2026-04-30T12:39:07.158Z</time></trkpt><trkpt lat="43.9569717" lon="12.640825"><ele>124.4</ele><time>2026-04-30T12:39:08.158Z</time></trkpt><trkpt lat="43.9569533" lon="12.6407183"><ele>123.0</ele><time>2026-04-30T12:39:09.158Z</time></trkpt><trkpt lat="43.95695" lon="12.640585"><ele>123.0</ele><time>2026-04-30T12:39:11.158Z</time></trkpt><trkpt lat="43.9569933" lon="12.6404883"><ele>123.00000000000001</ele><time>2026-04-30T12:39:14.158Z</time></trkpt><trkpt lat="43.95698" lon="12.6403083"><ele>123.00000000000001</ele><time>2026-04-30T12:39:16.158Z</time></trkpt><trkpt lat="43.9569433" lon="12.6401767"><ele>123.0</ele><time>2026-04-30T12:39:17.159Z</time></trkpt><trkpt lat="43.9569017" lon="12.6400417"><ele>123.0</ele><time>2026-04-30T12:39:18.157Z</time></trkpt><trkpt lat="43.9568567" lon="12.6399133"><ele>122.75</ele><time>2026-04-30T12:39:19.159Z</time></trkpt><trkpt lat="43.956805" lon="12.639785"><ele>122.5</ele><time>2026-04-30T12:39:20.161Z</time></trkpt><trkpt lat="43.9567483" lon="12.6396467"><ele>122.25</ele><time>2026-04-30T12:39:21.159Z</time></trkpt><trkpt lat="43.9566867" lon="12.639495"><ele>122.0</ele><time>2026-04-30T12:39:22.16Z</time></trkpt><trkpt lat="43.956625" lon="12.63935"><ele>122.0</ele><time>2026-04-30T12:39:23.16Z</time></trkpt><trkpt lat="43.9565633" lon="12.63921"><ele>121.99999999999999</ele><time>2026-04-30T12:39:24.158Z</time></trkpt><trkpt lat="43.9565033" lon="12.63907"><ele>121.99999999999999</ele><time>2026-04-30T12:39:25.16Z</time></trkpt><trkpt lat="43.9564517" lon="12.638945"><ele>122.0</ele><time>2026-04-30T12:39:26.159Z</time></trkpt><trkpt lat="43.9564117" lon="12.6388317"><ele>122.0</ele><time>2026-04-30T12:39:27.161Z</time></trkpt><trkpt lat="43.9563867" lon="12.6387217"><ele>121.66666666666666</ele><time>2026-04-30T12:39:28.157Z</time></trkpt><trkpt lat="43.9563783" lon="12.6386167"><ele>121.33333333333333</ele><time>2026-04-30T12:39:29.16Z</time></trkpt><trkpt lat="43.95638" lon="12.638525"><ele>121.0</ele><time>2026-04-30T12:39:30.159Z</time></trkpt><trkpt lat="43.9563467" lon="12.6383717"><ele>120.66666666666666</ele><time>2026-04-30T12:39:32.159Z</time></trkpt><trkpt lat="43.9562933" lon="12.6383167"><ele>120.33333333333333</ele><time>2026-04-30T12:39:33.158Z</time></trkpt><trkpt lat="43.9562217" lon="12.6382633"><ele>120.0</ele><time>2026-04-30T12:39:34.158Z</time></trkpt><trkpt lat="43.9561467" lon="12.6381833"><ele>120.0</ele><time>2026-04-30T12:39:35.162Z</time></trkpt><trkpt lat="43.9560667" lon="12.638055"><ele>120.0</ele><time>2026-04-30T12:39:36.16Z</time></trkpt><trkpt lat="43.9559683" lon="12.63792"><ele>120.0</ele><time>2026-04-30T12:39:37.158Z</time></trkpt><trkpt lat="43.95584" lon="12.6377833"><ele>120.0</ele><time>2026-04-30T12:39:38.158Z</time></trkpt><trkpt lat="43.9557017" lon="12.63766"><ele>122.25</ele><time>2026-04-30T12:39:39.16Z</time></trkpt><trkpt lat="43.9555733" lon="12.6375533"><ele>124.5</ele><time>2026-04-30T12:39:40.159Z</time></trkpt><trkpt lat="43.9554517" lon="12.6374533"><ele>126.75</ele><time>2026-04-30T12:39:41.158Z</time></trkpt><trkpt lat="43.9553317" lon="12.637355"><ele>129.0</ele><time>2026-04-30T12:39:42.159Z</time></trkpt><trkpt lat="43.9552067" lon="12.6372517"><ele>129.0</ele><time>2026-04-30T12:39:43.16Z</time></trkpt><trkpt lat="43.9550833" lon="12.63714"><ele>129.0</ele><time>2026-04-30T12:39:44.159Z</time></trkpt><trkpt lat="43.9549667" lon="12.6370217"><ele>129.0</ele><time>2026-04-30T12:39:45.158Z</time></trkpt><trkpt lat="43.9548583" lon="12.6368983"><ele>129.0</ele><time>2026-04-30T12:39:46.159Z</time></trkpt><trkpt lat="43.954755" lon="12.6367683"><ele>131.0</ele><time>2026-04-30T12:39:47.158Z</time></trkpt><trkpt lat="43.9546467" lon="12.6366267"><ele>133.0</ele><time>2026-04-30T12:39:48.159Z</time></trkpt><trkpt lat="43.954535" lon="12.6364733"><ele>135.0</ele><time>2026-04-30T12:39:49.16Z</time></trkpt><trkpt lat="43.9544217" lon="12.6363167"><ele>135.0</ele><time>2026-04-30T12:39:50.16Z</time></trkpt><trkpt lat="43.95431" lon="12.636165"><ele>135.0</ele><time>2026-04-30T12:39:51.16Z</time></trkpt><trkpt lat="43.9541983" lon="12.6360183"><ele>135.0</ele><time>2026-04-30T12:39:52.16Z</time></trkpt><trkpt lat="43.9540883" lon="12.6358833"><ele>133.5</ele><time>2026-04-30T12:39:53.159Z</time></trkpt><trkpt lat="43.95398" lon="12.6357583"><ele>132.0</ele><time>2026-04-30T12:39:54.159Z</time></trkpt><trkpt lat="43.953865" lon="12.635645"><ele>130.5</ele><time>2026-04-30T12:39:55.161Z</time></trkpt><trkpt lat="43.9537417" lon="12.635545"><ele>129.0</ele><time>2026-04-30T12:39:56.161Z</time></trkpt><trkpt lat="43.9536117" lon="12.6354567"><ele>129.0</ele><time>2026-04-30T12:39:57.161Z</time></trkpt><trkpt lat="43.953475" lon="12.6353833"><ele>129.0</ele><time>2026-04-30T12:39:58.16Z</time></trkpt><trkpt lat="43.9533283" lon="12.6353267"><ele>129.0</ele><time>2026-04-30T12:39:59.162Z</time></trkpt><trkpt lat="43.9531733" lon="12.635285"><ele>127.33333333333334</ele><time>2026-04-30T12:40:00.16Z</time></trkpt><trkpt lat="43.9530167" lon="12.6352617"><ele>125.66666666666667</ele><time>2026-04-30T12:40:01.158Z</time></trkpt><trkpt lat="43.9528583" lon="12.6352517"><ele>124.0</ele><time>2026-04-30T12:40:02.16Z</time></trkpt><trkpt lat="43.9527033" lon="12.6352517"><ele>124.0</ele><time>2026-04-30T12:40:03.161Z</time></trkpt><trkpt lat="43.952545" lon="12.635255"><ele>124.0</ele><time>2026-04-30T12:40:04.16Z</time></trkpt><trkpt lat="43.9523867" lon="12.6352567"><ele>124.0</ele><time>2026-04-30T12:40:05.16Z</time></trkpt><trkpt lat="43.9522317" lon="12.63526"><ele>122.66666666666667</ele><time>2026-04-30T12:40:06.161Z</time></trkpt><trkpt lat="43.9520767" lon="12.635265"><ele>121.33333333333334</ele><time>2026-04-30T12:40:07.16Z</time></trkpt><trkpt lat="43.9519233" lon="12.63527"><ele>120.0</ele><time>2026-04-30T12:40:08.161Z</time></trkpt><trkpt lat="43.9517717" lon="12.6352767"><ele>120.0</ele><time>2026-04-30T12:40:09.16Z</time></trkpt><trkpt lat="43.95162" lon="12.6352817"><ele>120.0</ele><time>2026-04-30T12:40:10.159Z</time></trkpt><trkpt lat="43.951465" lon="12.6352867"><ele>120.0</ele><time>2026-04-30T12:40:11.16Z</time></trkpt><trkpt lat="43.9513133" lon="12.6352883"><ele>120.0</ele><time>2026-04-30T12:40:12.158Z</time></trkpt><trkpt lat="43.9511583" lon="12.6352917"><ele>120.0</ele><time>2026-04-30T12:40:13.158Z</time></trkpt><trkpt lat="43.951" lon="12.6352967"><ele>120.0</ele><time>2026-04-30T12:40:14.159Z</time></trkpt><trkpt lat="43.9508433" lon="12.6353"><ele>120.66666666666666</ele><time>2026-04-30T12:40:15.158Z</time></trkpt><trkpt lat="43.9506867" lon="12.6353033"><ele>121.33333333333333</ele><time>2026-04-30T12:40:16.159Z</time></trkpt><trkpt lat="43.95053" lon="12.635305"><ele>122.0</ele><time>2026-04-30T12:40:17.158Z</time></trkpt><trkpt lat="43.9503717" lon="12.63531"><ele>122.33333333333333</ele><time>2026-04-30T12:40:18.159Z</time></trkpt><trkpt lat="43.9502133" lon="12.63532"><ele>122.66666666666666</ele><time>2026-04-30T12:40:19.16Z</time></trkpt><trkpt lat="43.9500533" lon="12.635335"><ele>123.0</ele><time>2026-04-30T12:40:20.16Z</time></trkpt><trkpt lat="43.949885" lon="12.6353583"><ele>123.66666666666666</ele><time>2026-04-30T12:40:21.16Z</time></trkpt><trkpt lat="43.94971" lon="12.6353983"><ele>124.33333333333333</ele><time>2026-04-30T12:40:22.159Z</time></trkpt><trkpt lat="43.9495267" lon="12.635455"><ele>125.0</ele><time>2026-04-30T12:40:23.16Z</time></trkpt><trkpt lat="43.9493467" lon="12.63552"><ele>126.33333333333333</ele><time>2026-04-30T12:40:24.16Z</time></trkpt><trkpt lat="43.9491767" lon="12.6355817"><ele>127.66666666666666</ele><time>2026-04-30T12:40:25.161Z</time></trkpt><trkpt lat="43.9490167" lon="12.6356417"><ele>129.0</ele><time>2026-04-30T12:40:26.162Z</time></trkpt><trkpt lat="43.9488617" lon="12.6357"><ele>129.0</ele><time>2026-04-30T12:40:27.16Z</time></trkpt><trkpt lat="43.9487133" lon="12.6357567"><ele>129.0</ele><time>2026-04-30T12:40:28.161Z</time></trkpt><trkpt lat="43.948565" lon="12.63581"><ele>129.0</ele><time>2026-04-30T12:40:29.159Z</time></trkpt><trkpt lat="43.9484117" lon="12.6358617"><ele>129.66666666666666</ele><time>2026-04-30T12:40:30.159Z</time></trkpt><trkpt lat="43.948255" lon="12.6359083"><ele>130.33333333333331</ele><time>2026-04-30T12:40:31.158Z</time></trkpt><trkpt lat="43.948085" lon="12.63594"><ele>131.0</ele><time>2026-04-30T12:40:32.16Z</time></trkpt><trkpt lat="43.9479" lon="12.6359417"><ele>131.0</ele><time>2026-04-30T12:40:33.158Z</time></trkpt><trkpt lat="43.947705" lon="12.6359133"><ele>131.0</ele><time>2026-04-30T12:40:34.16Z</time></trkpt><trkpt lat="43.9475017" lon="12.6358567"><ele>131.0</ele><time>2026-04-30T12:40:35.161Z</time></trkpt><trkpt lat="43.9473033" lon="12.6357867"><ele>132.66666666666666</ele><time>2026-04-30T12:40:36.158Z</time></trkpt><trkpt lat="43.9471133" lon="12.6357133"><ele>134.33333333333334</ele><time>2026-04-30T12:40:37.158Z</time></trkpt><trkpt lat="43.9469283" lon="12.6356383"><ele>136.0</ele><time>2026-04-30T12:40:38.16Z</time></trkpt><trkpt lat="43.94674" lon="12.6355683"><ele>138.0</ele><time>2026-04-30T12:40:39.16Z</time></trkpt><trkpt lat="43.9465617" lon="12.635505"><ele>140.0</ele><time>2026-04-30T12:40:40.16Z</time></trkpt><trkpt lat="43.94639" lon="12.6354483"><ele>142.0</ele><time>2026-04-30T12:40:41.159Z</time></trkpt><trkpt lat="43.9462233" lon="12.6353983"><ele>142.0</ele><time>2026-04-30T12:40:42.158Z</time></trkpt><trkpt lat="43.9460517" lon="12.63536"><ele>142.0</ele><time>2026-04-30T12:40:43.159Z</time></trkpt><trkpt lat="43.9458783" lon="12.6353267"><ele>142.0</ele><time>2026-04-30T12:40:44.159Z</time></trkpt><trkpt lat="43.9457133" lon="12.6352983"><ele>142.25</ele><time>2026-04-30T12:40:45.159Z</time></trkpt><trkpt lat="43.9455583" lon="12.63527"><ele>142.5</ele><time>2026-04-30T12:40:46.158Z</time></trkpt><trkpt lat="43.9454167" lon="12.635235"><ele>142.75</ele><time>2026-04-30T12:40:47.159Z</time></trkpt><trkpt lat="43.94528" lon="12.6351883"><ele>143.0</ele><time>2026-04-30T12:40:48.16Z</time></trkpt><trkpt lat="43.9451533" lon="12.63512"><ele>144.0</ele><time>2026-04-30T12:40:49.16Z</time></trkpt><trkpt lat="43.9450383" lon="12.635035"><ele>145.0</ele><time>2026-04-30T12:40:50.161Z</time></trkpt><trkpt lat="43.9449333" lon="12.6349483"><ele>146.0</ele><time>2026-04-30T12:40:51.161Z</time></trkpt><trkpt lat="43.9448367" lon="12.6348683"><ele>147.0</ele><time>2026-04-30T12:40:52.16Z</time></trkpt><trkpt lat="43.9447517" lon="12.6347933"><ele>147.0</ele><time>2026-04-30T12:40:53.161Z</time></trkpt><trkpt lat="43.9446717" lon="12.6347217"><ele>147.0</ele><time>2026-04-30T12:40:54.159Z</time></trkpt><trkpt lat="43.944595" lon="12.6346517"><ele>147.0</ele><time>2026-04-30T12:40:55.159Z</time></trkpt><trkpt lat="43.9445133" lon="12.6345717"><ele>147.0</ele><time>2026-04-30T12:40:56.161Z</time></trkpt><trkpt lat="43.9444317" lon="12.63449"><ele>147.0</ele><time>2026-04-30T12:40:57.16Z</time></trkpt><trkpt lat="43.9443483" lon="12.6344017"><ele>146.5</ele><time>2026-04-30T12:40:58.159Z</time></trkpt><trkpt lat="43.944265" lon="12.6343"><ele>146.0</ele><time>2026-04-30T12:40:59.16Z</time></trkpt><trkpt lat="43.9441867" lon="12.6341883"><ele>145.5</ele><time>2026-04-30T12:41:00.158Z</time></trkpt><trkpt lat="43.94411" lon="12.6340683"><ele>145.0</ele><time>2026-04-30T12:41:01.158Z</time></trkpt><trkpt lat="43.94403" lon="12.63395"><ele>145.0</ele><time>2026-04-30T12:41:02.159Z</time></trkpt><trkpt lat="43.9439483" lon="12.6338383"><ele>145.0</ele><time>2026-04-30T12:41:03.158Z</time></trkpt><trkpt lat="43.9438683" lon="12.6337433"><ele>145.0</ele><time>2026-04-30T12:41:04.158Z</time></trkpt><trkpt lat="43.94379" lon="12.63366"><ele>145.0</ele><time>2026-04-30T12:41:05.158Z</time></trkpt><trkpt lat="43.94371" lon="12.633585"><ele>145.0</ele><time>2026-04-30T12:41:06.158Z</time></trkpt><trkpt lat="43.9436267" lon="12.63352"><ele>144.4</ele><time>2026-04-30T12:41:07.158Z</time></trkpt><trkpt lat="43.943545" lon="12.63346"><ele>143.8</ele><time>2026-04-30T12:41:08.159Z</time></trkpt><trkpt lat="43.9434633" lon="12.6334"><ele>143.2</ele><time>2026-04-30T12:41:09.159Z</time></trkpt><trkpt lat="43.94338" lon="12.6333383"><ele>142.6</ele><time>2026-04-30T12:41:10.158Z</time></trkpt><trkpt lat="43.9432917" lon="12.6332733"><ele>142.0</ele><time>2026-04-30T12:41:11.158Z</time></trkpt><trkpt lat="43.9431967" lon="12.633205"><ele>142.0</ele><time>2026-04-30T12:41:12.158Z</time></trkpt><trkpt lat="43.943095" lon="12.6331267"><ele>142.0</ele><time>2026-04-30T12:41:13.159Z</time></trkpt><trkpt lat="43.9429917" lon="12.6330367"><ele>142.0</ele><time>2026-04-30T12:41:14.161Z</time></trkpt><trkpt lat="43.942885" lon="12.6329267"><ele>142.0</ele><time>2026-04-30T12:41:15.16Z</time></trkpt><trkpt lat="43.94277" lon="12.6328033"><ele>141.66666666666669</ele><time>2026-04-30T12:41:16.158Z</time></trkpt><trkpt lat="43.9426467" lon="12.6326667"><ele>141.33333333333334</ele><time>2026-04-30T12:41:17.159Z</time></trkpt><trkpt lat="43.9425267" lon="12.6325267"><ele>141.0</ele><time>2026-04-30T12:41:18.162Z</time></trkpt><trkpt lat="43.9424133" lon="12.6323933"><ele>141.0</ele><time>2026-04-30T12:41:19.16Z</time></trkpt><trkpt lat="43.94231" lon="12.6322667"><ele>141.0</ele><time>2026-04-30T12:41:20.16Z</time></trkpt><trkpt lat="43.9422133" lon="12.6321467"><ele>141.0</ele><time>2026-04-30T12:41:21.16Z</time></trkpt><trkpt lat="43.9421217" lon="12.63203"><ele>141.0</ele><time>2026-04-30T12:41:22.159Z</time></trkpt><trkpt lat="43.9420283" lon="12.6319083"><ele>141.0</ele><time>2026-04-30T12:41:23.159Z</time></trkpt><trkpt lat="43.9419333" lon="12.63178"><ele>141.0</ele><time>2026-04-30T12:41:24.159Z</time></trkpt><trkpt lat="43.94184" lon="12.6316467"><ele>141.0</ele><time>2026-04-30T12:41:25.158Z</time></trkpt><trkpt lat="43.94175" lon="12.631505"><ele>141.0</ele><time>2026-04-30T12:41:26.159Z</time></trkpt><trkpt lat="43.94166" lon="12.6313583"><ele>141.0</ele><time>2026-04-30T12:41:27.159Z</time></trkpt><trkpt lat="43.94157" lon="12.6312017"><ele>141.0</ele><time>2026-04-30T12:41:28.16Z</time></trkpt><trkpt lat="43.9414833" lon="12.6310383"><ele>141.0</ele><time>2026-04-30T12:41:29.158Z</time></trkpt><trkpt lat="43.9414" lon="12.6308733"><ele>141.0</ele><time>2026-04-30T12:41:30.158Z</time></trkpt><trkpt lat="43.9413183" lon="12.6307117"><ele>141.25</ele><time>2026-04-30T12:41:31.159Z</time></trkpt><trkpt lat="43.9412417" lon="12.6305533"><ele>141.5</ele><time>2026-04-30T12:41:32.158Z</time></trkpt><trkpt lat="43.9411683" lon="12.630395"><ele>141.75</ele><time>2026-04-30T12:41:33.159Z</time></trkpt><trkpt lat="43.9410917" lon="12.6302333"><ele>142.0</ele><time>2026-04-30T12:41:34.158Z</time></trkpt><trkpt lat="43.9410133" lon="12.63007"><ele>141.0</ele><time>2026-04-30T12:41:35.159Z</time></trkpt><trkpt lat="43.9409283" lon="12.6299"><ele>140.0</ele><time>2026-04-30T12:41:36.158Z</time></trkpt><trkpt lat="43.9408383" lon="12.62972"><ele>139.0</ele><time>2026-04-30T12:41:37.157Z</time></trkpt><trkpt lat="43.94075" lon="12.629525"><ele>140.33333333333334</ele><time>2026-04-30T12:41:38.159Z</time></trkpt><trkpt lat="43.9406683" lon="12.6293183"><ele>141.66666666666666</ele><time>2026-04-30T12:41:39.159Z</time></trkpt><trkpt lat="43.9405917" lon="12.6291017"><ele>143.0</ele><time>2026-04-30T12:41:40.159Z</time></trkpt><trkpt lat="43.940515" lon="12.6288867"><ele>143.0</ele><time>2026-04-30T12:41:41.158Z</time></trkpt><trkpt lat="43.9404367" lon="12.6286717"><ele>143.0</ele><time>2026-04-30T12:41:42.159Z</time></trkpt><trkpt lat="43.94036" lon="12.6284567"><ele>143.0</ele><time>2026-04-30T12:41:43.158Z</time></trkpt><trkpt lat="43.9402833" lon="12.62824"><ele>142.66666666666666</ele><time>2026-04-30T12:41:44.159Z</time></trkpt><trkpt lat="43.9402117" lon="12.6280367"><ele>142.33333333333334</ele><time>2026-04-30T12:41:45.158Z</time></trkpt><trkpt lat="43.940145" lon="12.62784"><ele>142.0</ele><time>2026-04-30T12:41:46.158Z</time></trkpt><trkpt lat="43.94008" lon="12.6276517"><ele>144.0</ele><time>2026-04-30T12:41:47.158Z</time></trkpt><trkpt lat="43.940015" lon="12.6274767"><ele>146.0</ele><time>2026-04-30T12:41:48.16Z</time></trkpt><trkpt lat="43.93995" lon="12.627325"><ele>148.0</ele><time>2026-04-30T12:41:49.161Z</time></trkpt><trkpt lat="43.9398783" lon="12.627195"><ele>150.0</ele><time>2026-04-30T12:41:50.16Z</time></trkpt><trkpt lat="43.9398" lon="12.6270967"><ele>150.0</ele><time>2026-04-30T12:41:51.16Z</time></trkpt><trkpt lat="43.9397083" lon="12.6270267"><ele>150.0</ele><time>2026-04-30T12:41:52.16Z</time></trkpt><trkpt lat="43.939605" lon="12.62698"><ele>150.0</ele><time>2026-04-30T12:41:53.159Z</time></trkpt><trkpt lat="43.9394917" lon="12.626945"><ele>150.0</ele><time>2026-04-30T12:41:54.159Z</time></trkpt><trkpt lat="43.9393767" lon="12.626915"><ele>150.0</ele><time>2026-04-30T12:41:55.16Z</time></trkpt><trkpt lat="43.93927" lon="12.6268833"><ele>150.6</ele><time>2026-04-30T12:41:56.158Z</time></trkpt><trkpt lat="43.93919" lon="12.62686"><ele>151.2</ele><time>2026-04-30T12:41:57.159Z</time></trkpt><trkpt lat="43.9391083" lon="12.62683"><ele>151.8</ele><time>2026-04-30T12:41:59.159Z</time></trkpt><trkpt lat="43.938995" lon="12.6267983"><ele>152.4</ele><time>2026-04-30T12:42:58.159Z</time></trkpt><trkpt lat="43.9389033" lon="12.62678"><ele>153.0</ele><time>2026-04-30T12:42:59.158Z</time></trkpt><trkpt lat="43.9387833" lon="12.62675"><ele>153.0</ele><time>2026-04-30T12:43:00.158Z</time></trkpt><trkpt lat="43.9386417" lon="12.6267167"><ele>153.0</ele><time>2026-04-30T12:43:01.157Z</time></trkpt><trkpt lat="43.938485" lon="12.6266783"><ele>153.0</ele><time>2026-04-30T12:43:02.159Z</time></trkpt><trkpt lat="43.93834" lon="12.6266417"><ele>152.75</ele><time>2026-04-30T12:43:03.158Z</time></trkpt><trkpt lat="43.9382083" lon="12.626605"><ele>152.5</ele><time>2026-04-30T12:43:04.159Z</time></trkpt><trkpt lat="43.938085" lon="12.6265717"><ele>152.25</ele><time>2026-04-30T12:43:05.16Z</time></trkpt><trkpt lat="43.9379717" lon="12.6265367"><ele>152.0</ele><time>2026-04-30T12:43:06.159Z</time></trkpt><trkpt lat="43.937855" lon="12.6265017"><ele>152.0</ele><time>2026-04-30T12:43:07.16Z</time></trkpt><trkpt lat="43.93773" lon="12.6264683"><ele>152.0</ele><time>2026-04-30T12:43:08.159Z</time></trkpt><trkpt lat="43.9376067" lon="12.626435"><ele>152.0</ele><time>2026-04-30T12:43:09.157Z</time></trkpt><trkpt lat="43.93749" lon="12.6264017"><ele>152.0</ele><time>2026-04-30T12:43:10.159Z</time></trkpt><trkpt lat="43.9373717" lon="12.6263683"><ele>150.75</ele><time>2026-04-30T12:43:11.159Z</time></trkpt><trkpt lat="43.9372533" lon="12.626325"><ele>149.5</ele><time>2026-04-30T12:43:12.158Z</time></trkpt><trkpt lat="43.9371367" lon="12.62627"><ele>148.25</ele><time>2026-04-30T12:43:13.159Z</time></trkpt><trkpt lat="43.9370267" lon="12.62619"><ele>147.0</ele><time>2026-04-30T12:43:14.158Z</time></trkpt><trkpt lat="43.936925" lon="12.6260833"><ele>149.25</ele><time>2026-04-30T12:43:15.158Z</time></trkpt><trkpt lat="43.9368267" lon="12.6259483"><ele>151.5</ele><time>2026-04-30T12:43:16.158Z</time></trkpt><trkpt lat="43.936735" lon="12.6257867"><ele>153.75</ele><time>2026-04-30T12:43:17.157Z</time></trkpt><trkpt lat="43.936655" lon="12.6256217"><ele>156.0</ele><time>2026-04-30T12:43:18.157Z</time></trkpt><trkpt lat="43.9365833" lon="12.6254717"><ele>156.0</ele><time>2026-04-30T12:43:19.158Z</time></trkpt><trkpt lat="43.9365117" lon="12.6253267"><ele>156.0</ele><time>2026-04-30T12:43:20.159Z</time></trkpt><trkpt lat="43.9364433" lon="12.6251867"><ele>156.0</ele><time>2026-04-30T12:43:21.158Z</time></trkpt><trkpt lat="43.9363633" lon="12.625065"><ele>156.0</ele><time>2026-04-30T12:43:22.159Z</time></trkpt><trkpt lat="43.936265" lon="12.6249683"><ele>156.0</ele><time>2026-04-30T12:43:23.157Z</time></trkpt><trkpt lat="43.9361517" lon="12.6248967"><ele>156.0</ele><time>2026-04-30T12:43:24.159Z</time></trkpt><trkpt lat="43.9360283" lon="12.62485"><ele>156.0</ele><time>2026-04-30T12:43:25.159Z</time></trkpt><trkpt lat="43.9358933" lon="12.6248183"><ele>156.0</ele><time>2026-04-30T12:43:26.159Z</time></trkpt><trkpt lat="43.9357433" lon="12.6247883"><ele>156.0</ele><time>2026-04-30T12:43:27.159Z</time></trkpt><trkpt lat="43.935595" lon="12.6247583"><ele>156.0</ele><time>2026-04-30T12:43:28.159Z</time></trkpt><trkpt lat="43.9354533" lon="12.6247367"><ele>156.0</ele><time>2026-04-30T12:43:29.158Z</time></trkpt><trkpt lat="43.9353117" lon="12.624725"><ele>156.0</ele><time>2026-04-30T12:43:30.158Z</time></trkpt><trkpt lat="43.9351633" lon="12.62473"><ele>156.66666666666666</ele><time>2026-04-30T12:43:31.158Z</time></trkpt><trkpt lat="43.9350133" lon="12.62475"><ele>157.33333333333331</ele><time>2026-04-30T12:43:32.159Z</time></trkpt><trkpt lat="43.9348633" lon="12.6247817"><ele>158.0</ele><time>2026-04-30T12:43:33.158Z</time></trkpt><trkpt lat="43.9347117" lon="12.6248167"><ele>158.0</ele><time>2026-04-30T12:43:34.158Z</time></trkpt><trkpt lat="43.9345617" lon="12.6248517"><ele>158.0</ele><time>2026-04-30T12:43:35.158Z</time></trkpt><trkpt lat="43.9344183" lon="12.6248917"><ele>158.0</ele><time>2026-04-30T12:43:36.159Z</time></trkpt><trkpt lat="43.9342883" lon="12.624925"><ele>158.0</ele><time>2026-04-30T12:43:37.158Z</time></trkpt><trkpt lat="43.934165" lon="12.6249517"><ele>159.75</ele><time>2026-04-30T12:43:38.158Z</time></trkpt><trkpt lat="43.9340433" lon="12.62498"><ele>161.5</ele><time>2026-04-30T12:43:39.159Z</time></trkpt><trkpt lat="43.9339233" lon="12.6250083"><ele>163.25</ele><time>2026-04-30T12:43:40.159Z</time></trkpt><trkpt lat="43.9338067" lon="12.6250367"><ele>165.0</ele><time>2026-04-30T12:43:41.158Z</time></trkpt><trkpt lat="43.9337033" lon="12.6250483"><ele>165.0</ele><time>2026-04-30T12:43:42.158Z</time></trkpt><trkpt lat="43.9336167" lon="12.6250517"><ele>165.0</ele><time>2026-04-30T12:43:43.157Z</time></trkpt><trkpt lat="43.9335417" lon="12.6250483"><ele>165.0</ele><time>2026-04-30T12:43:44.16Z</time></trkpt><trkpt lat="43.9334683" lon="12.6250483"><ele>165.0</ele><time>2026-04-30T12:43:45.159Z</time></trkpt><trkpt lat="43.9334" lon="12.625065"><ele>165.0</ele><time>2026-04-30T12:43:46.158Z</time></trkpt><trkpt lat="43.9333333" lon="12.6251133"><ele>165.0</ele><time>2026-04-30T12:43:47.158Z</time></trkpt><trkpt lat="43.9332633" lon="12.625185"><ele>166.0</ele><time>2026-04-30T12:43:48.159Z</time></trkpt><trkpt lat="43.93319" lon="12.6252667"><ele>167.0</ele><time>2026-04-30T12:43:49.158Z</time></trkpt><trkpt lat="43.9331017" lon="12.62537"><ele>168.0</ele><time>2026-04-30T12:43:50.159Z</time></trkpt><trkpt lat="43.9330033" lon="12.6254867"><ele>169.0</ele><time>2026-04-30T12:43:51.158Z</time></trkpt><trkpt lat="43.9329033" lon="12.6256067"><ele>169.0</ele><time>2026-04-30T12:43:52.159Z</time></trkpt><trkpt lat="43.9328017" lon="12.6257167"><ele>169.0</ele><time>2026-04-30T12:43:53.159Z</time></trkpt><trkpt lat="43.9327117" lon="12.6258133"><ele>169.0</ele><time>2026-04-30T12:43:54.16Z</time></trkpt><trkpt lat="43.9326367" lon="12.62589"><ele>169.0</ele><time>2026-04-30T12:43:55.158Z</time></trkpt><trkpt lat="43.9325767" lon="12.6259533"><ele>169.0</ele><time>2026-04-30T12:43:56.158Z</time></trkpt><trkpt lat="43.9324983" lon="12.62603"><ele>169.5</ele><time>2026-04-30T12:43:58.158Z</time></trkpt><trkpt lat="43.93243" lon="12.6260417"><ele>170.0</ele><time>2026-04-30T12:44:52.158Z</time></trkpt><trkpt lat="43.93234" lon="12.6261283"><ele>170.5</ele><time>2026-04-30T12:44:54.158Z</time></trkpt><trkpt lat="43.9322767" lon="12.626185"><ele>171.0</ele><time>2026-04-30T12:44:55.158Z</time></trkpt><trkpt lat="43.93221" lon="12.626235"><ele>171.5</ele><time>2026-04-30T12:44:56.159Z</time></trkpt><trkpt lat="43.9321483" lon="12.6262717"><ele>172.0</ele><time>2026-04-30T12:44:57.159Z</time></trkpt><trkpt lat="43.93209" lon="12.62631"><ele>172.0</ele><time>2026-04-30T12:44:58.16Z</time></trkpt><trkpt lat="43.9320333" lon="12.6263517"><ele>172.0</ele><time>2026-04-30T12:44:59.158Z</time></trkpt><trkpt lat="43.9319783" lon="12.6264167"><ele>172.0</ele><time>2026-04-30T12:45:00.158Z</time></trkpt><trkpt lat="43.9319317" lon="12.6265083"><ele>172.0</ele><time>2026-04-30T12:45:01.159Z</time></trkpt><trkpt lat="43.9318833" lon="12.62662"><ele>172.0</ele><time>2026-04-30T12:45:02.16Z</time></trkpt><trkpt lat="43.93185" lon="12.6267517"><ele>172.0</ele><time>2026-04-30T12:45:03.159Z</time></trkpt><trkpt lat="43.9318183" lon="12.6268933"><ele>172.0</ele><time>2026-04-30T12:45:04.16Z</time></trkpt><trkpt lat="43.93179" lon="12.6270533"><ele>172.0</ele><time>2026-04-30T12:45:05.159Z</time></trkpt><trkpt lat="43.9317633" lon="12.6272183"><ele>172.0</ele><time>2026-04-30T12:45:06.159Z</time></trkpt><trkpt lat="43.9317367" lon="12.6273933"><ele>172.0</ele><time>2026-04-30T12:45:07.16Z</time></trkpt><trkpt lat="43.9317117" lon="12.627575"><ele>172.0</ele><time>2026-04-30T12:45:08.16Z</time></trkpt><trkpt lat="43.9316883" lon="12.627755"><ele>172.0</ele><time>2026-04-30T12:45:09.16Z</time></trkpt><trkpt lat="43.931665" lon="12.6279383"><ele>172.0</ele><time>2026-04-30T12:45:10.157Z</time></trkpt><trkpt lat="43.9316433" lon="12.6281233"><ele>172.0</ele><time>2026-04-30T12:45:11.16Z</time></trkpt><trkpt lat="43.9316183" lon="12.6283133"><ele>171.75</ele><time>2026-04-30T12:45:12.158Z</time></trkpt><trkpt lat="43.931595" lon="12.628505"><ele>171.5</ele><time>2026-04-30T12:45:13.158Z</time></trkpt><trkpt lat="43.93157" lon="12.6286967"><ele>171.25</ele><time>2026-04-30T12:45:14.159Z</time></trkpt><trkpt lat="43.93155" lon="12.6288883"><ele>171.0</ele><time>2026-04-30T12:45:15.158Z</time></trkpt><trkpt lat="43.93153" lon="12.6290833"><ele>170.66666666666666</ele><time>2026-04-30T12:45:16.157Z</time></trkpt><trkpt lat="43.9315117" lon="12.6292883"><ele>170.33333333333331</ele><time>2026-04-30T12:45:17.158Z</time></trkpt><trkpt lat="43.9314917" lon="12.6294967"><ele>170.0</ele><time>2026-04-30T12:45:18.159Z</time></trkpt><trkpt lat="43.9314733" lon="12.62971"><ele>169.33333333333331</ele><time>2026-04-30T12:45:19.159Z</time></trkpt><trkpt lat="43.93146" lon="12.6299217"><ele>168.66666666666666</ele><time>2026-04-30T12:45:20.158Z</time></trkpt><trkpt lat="43.9314433" lon="12.63013"><ele>168.0</ele><time>2026-04-30T12:45:21.158Z</time></trkpt><trkpt lat="43.9314267" lon="12.6303333"><ele>166.66666666666666</ele><time>2026-04-30T12:45:22.158Z</time></trkpt><trkpt lat="43.9314133" lon="12.63055"><ele>165.33333333333331</ele><time>2026-04-30T12:45:23.158Z</time></trkpt><trkpt lat="43.9314" lon="12.6307667"><ele>164.0</ele><time>2026-04-30T12:45:24.158Z</time></trkpt><trkpt lat="43.93139" lon="12.6309833"><ele>162.66666666666666</ele><time>2026-04-30T12:45:25.157Z</time></trkpt><trkpt lat="43.931375" lon="12.631195"><ele>161.33333333333334</ele><time>2026-04-30T12:45:26.159Z</time></trkpt><trkpt lat="43.93136" lon="12.6314"><ele>160.0</ele><time>2026-04-30T12:45:27.158Z</time></trkpt><trkpt lat="43.9313483" lon="12.631605"><ele>160.0</ele><time>2026-04-30T12:45:28.157Z</time></trkpt><trkpt lat="43.9313333" lon="12.63181"><ele>160.0</ele><time>2026-04-30T12:45:29.158Z</time></trkpt><trkpt lat="43.9313117" lon="12.6320067"><ele>160.0</ele><time>2026-04-30T12:45:30.158Z</time></trkpt><trkpt lat="43.931275" lon="12.6322067"><ele>160.0</ele><time>2026-04-30T12:45:31.157Z</time></trkpt><trkpt lat="43.931225" lon="12.6324083"><ele>159.0</ele><time>2026-04-30T12:45:32.158Z</time></trkpt><trkpt lat="43.9311617" lon="12.632605"><ele>158.0</ele><time>2026-04-30T12:45:33.158Z</time></trkpt><trkpt lat="43.9310917" lon="12.6327967"><ele>157.0</ele><time>2026-04-30T12:45:34.157Z</time></trkpt><trkpt lat="43.9310167" lon="12.6329783"><ele>156.25</ele><time>2026-04-30T12:45:35.158Z</time></trkpt><trkpt lat="43.930945" lon="12.6331517"><ele>155.5</ele><time>2026-04-30T12:45:36.16Z</time></trkpt><trkpt lat="43.9308733" lon="12.6333183"><ele>154.75</ele><time>2026-04-30T12:45:37.157Z</time></trkpt><trkpt lat="43.9308067" lon="12.6334783"><ele>154.0</ele><time>2026-04-30T12:45:38.159Z</time></trkpt><trkpt lat="43.930755" lon="12.6336333"><ele>153.75</ele><time>2026-04-30T12:45:39.157Z</time></trkpt><trkpt lat="43.9307267" lon="12.6337933"><ele>153.5</ele><time>2026-04-30T12:45:40.158Z</time></trkpt><trkpt lat="43.9307033" lon="12.6339567"><ele>153.25</ele><time>2026-04-30T12:45:41.158Z</time></trkpt><trkpt lat="43.9306667" lon="12.6341217"><ele>153.0</ele><time>2026-04-30T12:45:42.157Z</time></trkpt><trkpt lat="43.93062" lon="12.6342917"><ele>153.0</ele><time>2026-04-30T12:45:43.158Z</time></trkpt><trkpt lat="43.93056" lon="12.63447"><ele>153.0</ele><time>2026-04-30T12:45:44.157Z</time></trkpt><trkpt lat="43.9304967" lon="12.6346567"><ele>153.0</ele><time>2026-04-30T12:45:45.158Z</time></trkpt><trkpt lat="43.9304333" lon="12.63485"><ele>153.0</ele><time>2026-04-30T12:45:46.158Z</time></trkpt><trkpt lat="43.93037" lon="12.63505"><ele>152.0</ele><time>2026-04-30T12:45:47.157Z</time></trkpt><trkpt lat="43.9303033" lon="12.6352533"><ele>151.0</ele><time>2026-04-30T12:45:48.158Z</time></trkpt><trkpt lat="43.9302333" lon="12.63546"><ele>150.0</ele><time>2026-04-30T12:45:49.159Z</time></trkpt><trkpt lat="43.9301633" lon="12.6356683"><ele>149.75</ele><time>2026-04-30T12:45:50.159Z</time></trkpt><trkpt lat="43.9301" lon="12.6358717"><ele>149.5</ele><time>2026-04-30T12:45:51.158Z</time></trkpt><trkpt lat="43.9300417" lon="12.6360533"><ele>149.25</ele><time>2026-04-30T12:45:52.157Z</time></trkpt><trkpt lat="43.929985" lon="12.636215"><ele>149.0</ele><time>2026-04-30T12:45:53.158Z</time></trkpt><trkpt lat="43.9299233" lon="12.6363517"><ele>151.4</ele><time>2026-04-30T12:45:54.157Z</time></trkpt><trkpt lat="43.9298433" lon="12.6364617"><ele>153.8</ele><time>2026-04-30T12:45:55.158Z</time></trkpt><trkpt lat="43.9297567" lon="12.636555"><ele>156.20000000000002</ele><time>2026-04-30T12:45:56.159Z</time></trkpt><trkpt lat="43.929675" lon="12.6366333"><ele>158.60000000000002</ele><time>2026-04-30T12:45:57.159Z</time></trkpt><trkpt lat="43.9296" lon="12.6367017"><ele>161.0</ele><time>2026-04-30T12:45:58.16Z</time></trkpt><trkpt lat="43.929535" lon="12.63676"><ele>161.0</ele><time>2026-04-30T12:45:59.157Z</time></trkpt><trkpt lat="43.9294767" lon="12.636825"><ele>161.0</ele><time>2026-04-30T12:46:00.159Z</time></trkpt><trkpt lat="43.9294267" lon="12.636905"><ele>161.0</ele><time>2026-04-30T12:46:01.157Z</time></trkpt><trkpt lat="43.929385" lon="12.6370033"><ele>161.0</ele><time>2026-04-30T12:46:02.158Z</time></trkpt><trkpt lat="43.9293533" lon="12.6371317"><ele>161.0</ele><time>2026-04-30T12:46:03.158Z</time></trkpt><trkpt lat="43.9293517" lon="12.637295"><ele>161.0</ele><time>2026-04-30T12:46:04.159Z</time></trkpt><trkpt lat="43.9293483" lon="12.6374683"><ele>160.0</ele><time>2026-04-30T12:46:05.158Z</time></trkpt><trkpt lat="43.9293483" lon="12.6376433"><ele>159.0</ele><time>2026-04-30T12:46:06.158Z</time></trkpt><trkpt lat="43.929345" lon="12.63782"><ele>158.0</ele><time>2026-04-30T12:46:07.16Z</time></trkpt><trkpt lat="43.929335" lon="12.6379883"><ele>157.0</ele><time>2026-04-30T12:46:08.159Z</time></trkpt><trkpt lat="43.92932" lon="12.6381483"><ele>156.5</ele><time>2026-04-30T12:46:09.156Z</time></trkpt><trkpt lat="43.9293033" lon="12.6383167"><ele>156.0</ele><time>2026-04-30T12:46:10.157Z</time></trkpt><trkpt lat="43.92928" lon="12.638485"><ele>155.5</ele><time>2026-04-30T12:46:11.157Z</time></trkpt><trkpt lat="43.9292517" lon="12.6386483"><ele>155.0</ele><time>2026-04-30T12:46:12.159Z</time></trkpt><trkpt lat="43.9292183" lon="12.6388033"><ele>155.0</ele><time>2026-04-30T12:46:13.158Z</time></trkpt><trkpt lat="43.9291733" lon="12.638955"><ele>155.0</ele><time>2026-04-30T12:46:14.16Z</time></trkpt><trkpt lat="43.929115" lon="12.6391083"><ele>155.0</ele><time>2026-04-30T12:46:15.159Z</time></trkpt><trkpt lat="43.9290467" lon="12.6392617"><ele>155.0</ele><time>2026-04-30T12:46:16.158Z</time></trkpt><trkpt lat="43.9289767" lon="12.6394117"><ele>154.2</ele><time>2026-04-30T12:46:17.158Z</time></trkpt><trkpt lat="43.9289067" lon="12.6395467"><ele>153.4</ele><time>2026-04-30T12:46:18.159Z</time></trkpt><trkpt lat="43.928845" lon="12.6396767"><ele>152.6</ele><time>2026-04-30T12:46:19.157Z</time></trkpt><trkpt lat="43.928795" lon="12.6398033"><ele>151.8</ele><time>2026-04-30T12:46:20.158Z</time></trkpt><trkpt lat="43.92876" lon="12.63994"><ele>151.0</ele><time>2026-04-30T12:46:21.158Z</time></trkpt><trkpt lat="43.9287567" lon="12.6400817"><ele>151.0</ele><time>2026-04-30T12:46:22.157Z</time></trkpt><trkpt lat="43.92878" lon="12.64022"><ele>151.0</ele><time>2026-04-30T12:46:23.158Z</time></trkpt><trkpt lat="43.92883" lon="12.6403567"><ele>151.0</ele><time>2026-04-30T12:46:24.158Z</time></trkpt><trkpt lat="43.9288967" lon="12.64049"><ele>151.0</ele><time>2026-04-30T12:46:25.157Z</time></trkpt><trkpt lat="43.92897" lon="12.6406333"><ele>150.25</ele><time>2026-04-30T12:46:26.159Z</time></trkpt><trkpt lat="43.929045" lon="12.6407767"><ele>149.5</ele><time>2026-04-30T12:46:27.157Z</time></trkpt><trkpt lat="43.9291233" lon="12.6409233"><ele>148.75</ele><time>2026-04-30T12:46:28.158Z</time></trkpt><trkpt lat="43.9292017" lon="12.64107"><ele>148.0</ele><time>2026-04-30T12:46:29.158Z</time></trkpt><trkpt lat="43.929285" lon="12.6412233"><ele>145.75</ele><time>2026-04-30T12:46:30.158Z</time></trkpt><trkpt lat="43.9293717" lon="12.6413783"><ele>143.5</ele><time>2026-04-30T12:46:31.158Z</time></trkpt><trkpt lat="43.9294617" lon="12.6415317"><ele>141.25</ele><time>2026-04-30T12:46:32.16Z</time></trkpt><trkpt lat="43.92955" lon="12.6416783"><ele>139.0</ele><time>2026-04-30T12:46:33.159Z</time></trkpt><trkpt lat="43.92964" lon="12.6418267"><ele>139.0</ele><time>2026-04-30T12:46:34.159Z</time></trkpt><trkpt lat="43.929735" lon="12.6419767"><ele>139.0</ele><time>2026-04-30T12:46:35.158Z</time></trkpt><trkpt lat="43.9298283" lon="12.6421233"><ele>139.0</ele><time>2026-04-30T12:46:36.158Z</time></trkpt><trkpt lat="43.9299167" lon="12.6422683"><ele>139.0</ele><time>2026-04-30T12:46:37.159Z</time></trkpt><trkpt lat="43.9300033" lon="12.64242"><ele>135.5</ele><time>2026-04-30T12:46:38.158Z</time></trkpt><trkpt lat="43.9300867" lon="12.6425833"><ele>132.0</ele><time>2026-04-30T12:46:39.159Z</time></trkpt><trkpt lat="43.9301667" lon="12.642755"><ele>128.5</ele><time>2026-04-30T12:46:40.159Z</time></trkpt><trkpt lat="43.9302383" lon="12.6429383"><ele>125.0</ele><time>2026-04-30T12:46:41.159Z</time></trkpt><trkpt lat="43.9303033" lon="12.6431317"><ele>125.0</ele><time>2026-04-30T12:46:42.159Z</time></trkpt><trkpt lat="43.9303583" lon="12.6433317"><ele>125.0</ele><time>2026-04-30T12:46:43.158Z</time></trkpt><trkpt lat="43.9304" lon="12.6435417"><ele>125.0</ele><time>2026-04-30T12:46:44.16Z</time></trkpt><trkpt lat="43.9304283" lon="12.6437533"><ele>124.33333333333333</ele><time>2026-04-30T12:46:45.159Z</time></trkpt><trkpt lat="43.93044" lon="12.643965"><ele>123.66666666666666</ele><time>2026-04-30T12:46:46.159Z</time></trkpt><trkpt lat="43.9304433" lon="12.6441783"><ele>123.0</ele><time>2026-04-30T12:46:47.158Z</time></trkpt><trkpt lat="43.9304367" lon="12.64439"><ele>121.5</ele><time>2026-04-30T12:46:48.159Z</time></trkpt><trkpt lat="43.930425" lon="12.6445917"><ele>120.0</ele><time>2026-04-30T12:46:49.16Z</time></trkpt><trkpt lat="43.9304033" lon="12.6447783"><ele>118.5</ele><time>2026-04-30T12:46:50.158Z</time></trkpt><trkpt lat="43.9303733" lon="12.64496"><ele>117.0</ele><time>2026-04-30T12:46:51.158Z</time></trkpt><trkpt lat="43.93033" lon="12.645135"><ele>115.66666666666666</ele><time>2026-04-30T12:46:52.158Z</time></trkpt><trkpt lat="43.9302717" lon="12.6453117"><ele>114.33333333333333</ele><time>2026-04-30T12:46:53.158Z</time></trkpt><trkpt lat="43.9301983" lon="12.6454967"><ele>113.0</ele><time>2026-04-30T12:46:54.159Z</time></trkpt><trkpt lat="43.9301183" lon="12.6456883"><ele>113.33333333333333</ele><time>2026-04-30T12:46:55.158Z</time></trkpt><trkpt lat="43.93004" lon="12.6458733"><ele>113.66666666666666</ele><time>2026-04-30T12:46:56.16Z</time></trkpt><trkpt lat="43.9299667" lon="12.6460567"><ele>114.0</ele><time>2026-04-30T12:46:57.158Z</time></trkpt><trkpt lat="43.9298933" lon="12.6462367"><ele>113.0</ele><time>2026-04-30T12:46:58.16Z</time></trkpt><trkpt lat="43.9298233" lon="12.6464083"><ele>112.0</ele><time>2026-04-30T12:46:59.159Z</time></trkpt><trkpt lat="43.9297583" lon="12.6465683"><ele>111.0</ele><time>2026-04-30T12:47:00.158Z</time></trkpt><trkpt lat="43.9296967" lon="12.6467183"><ele>110.0</ele><time>2026-04-30T12:47:01.159Z</time></trkpt><trkpt lat="43.9296383" lon="12.6468417"><ele>109.99999999999999</ele><time>2026-04-30T12:47:02.159Z</time></trkpt><trkpt lat="43.9295883" lon="12.6469417"><ele>110.0</ele><time>2026-04-30T12:47:03.157Z</time></trkpt><trkpt lat="43.92955" lon="12.6470233"><ele>110.0</ele><time>2026-04-30T12:47:04.158Z</time></trkpt><trkpt lat="43.929515" lon="12.6471"><ele>110.0</ele><time>2026-04-30T12:47:05.159Z</time></trkpt><trkpt lat="43.9294767" lon="12.647175"><ele>110.0</ele><time>2026-04-30T12:47:06.158Z</time></trkpt><trkpt lat="43.9294283" lon="12.64725"><ele>109.99999999999999</ele><time>2026-04-30T12:47:07.158Z</time></trkpt><trkpt lat="43.9293683" lon="12.647325"><ele>110.0</ele><time>2026-04-30T12:47:08.158Z</time></trkpt><trkpt lat="43.9293033" lon="12.647405"><ele>108.8</ele><time>2026-04-30T12:47:09.159Z</time></trkpt><trkpt lat="43.92923" lon="12.647495"><ele>107.6</ele><time>2026-04-30T12:47:10.158Z</time></trkpt><trkpt lat="43.9291483" lon="12.6475867"><ele>106.4</ele><time>2026-04-30T12:47:11.159Z</time></trkpt><trkpt lat="43.929065" lon="12.647685"><ele>105.2</ele><time>2026-04-30T12:47:12.16Z</time></trkpt><trkpt lat="43.9289817" lon="12.6477817"><ele>104.0</ele><time>2026-04-30T12:47:13.158Z</time></trkpt><trkpt lat="43.9289" lon="12.64788"><ele>103.0</ele><time>2026-04-30T12:47:14.158Z</time></trkpt><trkpt lat="43.9288183" lon="12.6479783"><ele>102.0</ele><time>2026-04-30T12:47:15.159Z</time></trkpt><trkpt lat="43.92874" lon="12.6480733"><ele>101.0</ele><time>2026-04-30T12:47:16.158Z</time></trkpt><trkpt lat="43.9286667" lon="12.6481683"><ele>100.0</ele><time>2026-04-30T12:47:17.158Z</time></trkpt><trkpt lat="43.9285983" lon="12.6482617"><ele>99.0</ele><time>2026-04-30T12:47:18.159Z</time></trkpt><trkpt lat="43.9285283" lon="12.6483533"><ele>99.0</ele><time>2026-04-30T12:47:19.158Z</time></trkpt><trkpt lat="43.9284567" lon="12.64844"><ele>99.0</ele><time>2026-04-30T12:47:20.16Z</time></trkpt><trkpt lat="43.9283883" lon="12.648525"><ele>99.0</ele><time>2026-04-30T12:47:21.158Z</time></trkpt><trkpt lat="43.9283217" lon="12.6486083"><ele>99.0</ele><time>2026-04-30T12:47:22.158Z</time></trkpt><trkpt lat="43.9282633" lon="12.648685"><ele>99.0</ele><time>2026-04-30T12:47:23.158Z</time></trkpt><trkpt lat="43.9281983" lon="12.6487567"><ele>99.0</ele><time>2026-04-30T12:47:24.159Z</time></trkpt><trkpt lat="43.9281383" lon="12.6488283"><ele>97.5</ele><time>2026-04-30T12:47:25.157Z</time></trkpt><trkpt lat="43.9280767" lon="12.6488983"><ele>96.0</ele><time>2026-04-30T12:47:26.158Z</time></trkpt><trkpt lat="43.92802" lon="12.6489717"><ele>94.5</ele><time>2026-04-30T12:47:27.158Z</time></trkpt><trkpt lat="43.927955" lon="12.6490517"><ele>93.0</ele><time>2026-04-30T12:47:28.159Z</time></trkpt><trkpt lat="43.9278867" lon="12.649125"><ele>91.5</ele><time>2026-04-30T12:47:29.159Z</time></trkpt><trkpt lat="43.9278217" lon="12.64919"><ele>90.0</ele><time>2026-04-30T12:47:30.159Z</time></trkpt><trkpt lat="43.9277633" lon="12.6492567"><ele>90.0</ele><time>2026-04-30T12:47:31.158Z</time></trkpt><trkpt lat="43.9277083" lon="12.6493233"><ele>90.0</ele><time>2026-04-30T12:47:32.159Z</time></trkpt><trkpt lat="43.92765" lon="12.6493917"><ele>90.0</ele><time>2026-04-30T12:47:33.159Z</time></trkpt><trkpt lat="43.92759" lon="12.6494633"><ele>90.0</ele><time>2026-04-30T12:47:34.158Z</time></trkpt><trkpt lat="43.927535" lon="12.6495233"><ele>90.0</ele><time>2026-04-30T12:47:35.159Z</time></trkpt><trkpt lat="43.9274367" lon="12.6496117"><ele>90.0</ele><time>2026-04-30T12:47:37.159Z</time></trkpt><trkpt lat="43.9273417" lon="12.6496617"><ele>89.4</ele><time>2026-04-30T12:47:39.158Z</time></trkpt><trkpt lat="43.9273" lon="12.6497633"><ele>88.8</ele><time>2026-04-30T12:47:41.161Z</time></trkpt><trkpt lat="43.92734" lon="12.6498483"><ele>88.19999999999999</ele><time>2026-04-30T12:47:43.158Z</time></trkpt><trkpt lat="43.92747" lon="12.64991"><ele>87.6</ele><time>2026-04-30T12:47:45.156Z</time></trkpt><trkpt lat="43.9275583" lon="12.64997"><ele>87.0</ele><time>2026-04-30T12:47:46.16Z</time></trkpt><trkpt lat="43.92766" lon="12.650065"><ele>87.0</ele><time>2026-04-30T12:47:47.159Z</time></trkpt><trkpt lat="43.927765" lon="12.650165"><ele>87.0</ele><time>2026-04-30T12:47:48.16Z</time></trkpt><trkpt lat="43.92786" lon="12.6502567"><ele>87.0</ele><time>2026-04-30T12:47:49.161Z</time></trkpt><trkpt lat="43.92795" lon="12.6503483"><ele>87.0</ele><time>2026-04-30T12:47:50.16Z</time></trkpt><trkpt lat="43.9280367" lon="12.6504333"><ele>86.5</ele><time>2026-04-30T12:47:51.16Z</time></trkpt><trkpt lat="43.92811" lon="12.65051"><ele>86.0</ele><time>2026-04-30T12:47:52.16Z</time></trkpt><trkpt lat="43.9281767" lon="12.6505783"><ele>85.5</ele><time>2026-04-30T12:47:53.16Z</time></trkpt><trkpt lat="43.9282433" lon="12.6506433"><ele>85.0</ele><time>2026-04-30T12:47:54.161Z</time></trkpt><trkpt lat="43.9283067" lon="12.6507067"><ele>84.5</ele><time>2026-04-30T12:47:55.162Z</time></trkpt><trkpt lat="43.9283633" lon="12.65077"><ele>84.0</ele><time>2026-04-30T12:47:56.16Z</time></trkpt><trkpt lat="43.9284183" lon="12.6508267"><ele>84.0</ele><time>2026-04-30T12:47:57.158Z</time></trkpt><trkpt lat="43.9285167" lon="12.6509217"><ele>84.0</ele><time>2026-04-30T12:47:59.159Z</time></trkpt><trkpt lat="43.928605" lon="12.651"><ele>84.0</ele><time>2026-04-30T12:48:01.159Z</time></trkpt><trkpt lat="43.92867" lon="12.6510667"><ele>84.0</ele><time>2026-04-30T12:48:03.16Z</time></trkpt><trkpt lat="43.9287267" lon="12.651115"><ele>84.0</ele><time>2026-04-30T12:48:05.16Z</time></trkpt><trkpt lat="43.9287667" lon="12.6512033"><ele>84.0</ele><time>2026-04-30T12:49:01.158Z</time></trkpt><trkpt lat="43.9288267" lon="12.6512567"><ele>83.2</ele><time>2026-04-30T12:49:02.159Z</time></trkpt><trkpt lat="43.92889" lon="12.65132"><ele>82.4</ele><time>2026-04-30T12:49:03.159Z</time></trkpt><trkpt lat="43.92896" lon="12.6513917"><ele>81.6</ele><time>2026-04-30T12:49:04.158Z</time></trkpt><trkpt lat="43.9290367" lon="12.65147"><ele>80.8</ele><time>2026-04-30T12:49:05.158Z</time></trkpt><trkpt lat="43.92912" lon="12.6515583"><ele>80.0</ele><time>2026-04-30T12:49:06.161Z</time></trkpt><trkpt lat="43.92921" lon="12.65165"><ele>80.25</ele><time>2026-04-30T12:49:07.161Z</time></trkpt><trkpt lat="43.9292983" lon="12.65174"><ele>80.5</ele><time>2026-04-30T12:49:08.159Z</time></trkpt><trkpt lat="43.9293867" lon="12.651835"><ele>80.75</ele><time>2026-04-30T12:49:09.159Z</time></trkpt><trkpt lat="43.929485" lon="12.6519283"><ele>81.0</ele><time>2026-04-30T12:49:10.157Z</time></trkpt><trkpt lat="43.9295817" lon="12.6520217"><ele>80.6</ele><time>2026-04-30T12:49:11.159Z</time></trkpt><trkpt lat="43.9296767" lon="12.65211"><ele>80.19999999999999</ele><time>2026-04-30T12:49:12.16Z</time></trkpt><trkpt lat="43.9297583" lon="12.6521933"><ele>79.80000000000001</ele><time>2026-04-30T12:49:13.158Z</time></trkpt><trkpt lat="43.9298417" lon="12.6522767"><ele>79.4</ele><time>2026-04-30T12:49:14.16Z</time></trkpt><trkpt lat="43.9299283" lon="12.6523633"><ele>79.0</ele><time>2026-04-30T12:49:15.158Z</time></trkpt><trkpt lat="43.9300167" lon="12.6524517"><ele>78.4</ele><time>2026-04-30T12:49:16.158Z</time></trkpt><trkpt lat="43.9301" lon="12.6525367"><ele>77.80000000000001</ele><time>2026-04-30T12:49:17.158Z</time></trkpt><trkpt lat="43.9301783" lon="12.6526183"><ele>77.19999999999999</ele><time>2026-04-30T12:49:18.159Z</time></trkpt><trkpt lat="43.9302567" lon="12.652695"><ele>76.6</ele><time>2026-04-30T12:49:19.16Z</time></trkpt><trkpt lat="43.9303417" lon="12.6527733"><ele>76.0</ele><time>2026-04-30T12:49:20.16Z</time></trkpt><trkpt lat="43.930435" lon="12.6528617"><ele>75.5</ele><time>2026-04-30T12:49:21.16Z</time></trkpt><trkpt lat="43.9305367" lon="12.6529617"><ele>75.0</ele><time>2026-04-30T12:49:22.159Z</time></trkpt><trkpt lat="43.9306433" lon="12.6530683"><ele>74.5</ele><time>2026-04-30T12:49:23.16Z</time></trkpt><trkpt lat="43.9307567" lon="12.6531817"><ele>74.0</ele><time>2026-04-30T12:49:24.158Z</time></trkpt><trkpt lat="43.93087" lon="12.6532967"><ele>74.0</ele><time>2026-04-30T12:49:25.158Z</time></trkpt><trkpt lat="43.93098" lon="12.6534133"><ele>74.0</ele><time>2026-04-30T12:49:26.159Z</time></trkpt><trkpt lat="43.9310867" lon="12.6535183"><ele>74.0</ele><time>2026-04-30T12:49:27.158Z</time></trkpt><trkpt lat="43.93119" lon="12.65362"><ele>74.0</ele><time>2026-04-30T12:49:28.157Z</time></trkpt><trkpt lat="43.9312867" lon="12.6537167"><ele>74.33333333333334</ele><time>2026-04-30T12:49:29.157Z</time></trkpt><trkpt lat="43.93137" lon="12.653805"><ele>74.66666666666667</ele><time>2026-04-30T12:49:30.158Z</time></trkpt><trkpt lat="43.9314433" lon="12.65388"><ele>75.0</ele><time>2026-04-30T12:49:31.159Z</time></trkpt><trkpt lat="43.9315067" lon="12.653945"><ele>75.33333333333333</ele><time>2026-04-30T12:49:32.158Z</time></trkpt><trkpt lat="43.93156" lon="12.654005"><ele>75.66666666666666</ele><time>2026-04-30T12:49:33.158Z</time></trkpt><trkpt lat="43.9316267" lon="12.6541167"><ele>76.0</ele><time>2026-04-30T12:49:35.158Z</time></trkpt><trkpt lat="43.931645" lon="12.6542217"><ele>76.0</ele><time>2026-04-30T12:49:37.158Z</time></trkpt><trkpt lat="43.93166" lon="12.6543617"><ele>76.0</ele><time>2026-04-30T12:49:39.158Z</time></trkpt><trkpt lat="43.9317317" lon="12.6544633"><ele>76.0</ele><time>2026-04-30T12:49:41.158Z</time></trkpt><trkpt lat="43.9318733" lon="12.65447"><ele>76.0</ele><time>2026-04-30T12:49:43.159Z</time></trkpt><trkpt lat="43.931965" lon="12.654475"><ele>76.0</ele><time>2026-04-30T12:49:44.159Z</time></trkpt><trkpt lat="43.93206" lon="12.6545133"><ele>76.75</ele><time>2026-04-30T12:49:45.158Z</time></trkpt><trkpt lat="43.9321483" lon="12.65459"><ele>77.5</ele><time>2026-04-30T12:49:46.159Z</time></trkpt><trkpt lat="43.9322367" lon="12.6546867"><ele>78.25</ele><time>2026-04-30T12:49:47.159Z</time></trkpt><trkpt lat="43.932335" lon="12.6548017"><ele>79.0</ele><time>2026-04-30T12:49:48.158Z</time></trkpt><trkpt lat="43.932445" lon="12.654925"><ele>78.75</ele><time>2026-04-30T12:49:49.16Z</time></trkpt><trkpt lat="43.93256" lon="12.6550367"><ele>78.5</ele><time>2026-04-30T12:49:50.159Z</time></trkpt><trkpt lat="43.9326783" lon="12.6551467"><ele>78.25</ele><time>2026-04-30T12:49:51.158Z</time></trkpt><trkpt lat="43.9327883" lon="12.6552533"><ele>78.0</ele><time>2026-04-30T12:49:52.157Z</time></trkpt><trkpt lat="43.9328967" lon="12.6553583"><ele>77.5</ele><time>2026-04-30T12:49:53.158Z</time></trkpt><trkpt lat="43.9330017" lon="12.655465"><ele>77.0</ele><time>2026-04-30T12:49:54.159Z</time></trkpt><trkpt lat="43.9331017" lon="12.6555667"><ele>76.5</ele><time>2026-04-30T12:49:55.159Z</time></trkpt><trkpt lat="43.9331917" lon="12.6556567"><ele>76.0</ele><time>2026-04-30T12:49:56.158Z</time></trkpt><trkpt lat="43.933275" lon="12.65574"><ele>76.0</ele><time>2026-04-30T12:49:57.159Z</time></trkpt><trkpt lat="43.9333517" lon="12.6558117"><ele>76.0</ele><time>2026-04-30T12:49:58.157Z</time></trkpt><trkpt lat="43.93342" lon="12.6558817"><ele>76.0</ele><time>2026-04-30T12:49:59.159Z</time></trkpt><trkpt lat="43.9334833" lon="12.655945"><ele>76.0</ele><time>2026-04-30T12:50:00.158Z</time></trkpt><trkpt lat="43.93354" lon="12.6560017"><ele>76.0</ele><time>2026-04-30T12:50:01.159Z</time></trkpt><trkpt lat="43.933605" lon="12.6560683"><ele>76.0</ele><time>2026-04-30T12:50:03.158Z</time></trkpt><trkpt lat="43.9336783" lon="12.6561383"><ele>76.0</ele><time>2026-04-30T12:50:12.157Z</time></trkpt><trkpt lat="43.9337333" lon="12.6561917"><ele>76.0</ele><time>2026-04-30T12:50:13.158Z</time></trkpt><trkpt lat="43.933795" lon="12.6562533"><ele>76.0</ele><time>2026-04-30T12:50:14.158Z</time></trkpt><trkpt lat="43.9338733" lon="12.6563283"><ele>76.0</ele><time>2026-04-30T12:50:15.157Z</time></trkpt><trkpt lat="43.9339633" lon="12.65642"><ele>76.0</ele><time>2026-04-30T12:50:16.157Z</time></trkpt><trkpt lat="43.9340633" lon="12.6565233"><ele>76.0</ele><time>2026-04-30T12:50:17.159Z</time></trkpt><trkpt lat="43.9341733" lon="12.6566333"><ele>76.0</ele><time>2026-04-30T12:50:18.157Z</time></trkpt><trkpt lat="43.9342933" lon="12.6567533"><ele>76.0</ele><time>2026-04-30T12:50:19.157Z</time></trkpt><trkpt lat="43.9344267" lon="12.65689"><ele>76.0</ele><time>2026-04-30T12:50:20.158Z</time></trkpt><trkpt lat="43.9345733" lon="12.6570433"><ele>74.66666666666666</ele><time>2026-04-30T12:50:21.159Z</time></trkpt><trkpt lat="43.93473" lon="12.6572083"><ele>73.33333333333333</ele><time>2026-04-30T12:50:22.158Z</time></trkpt><trkpt lat="43.93488" lon="12.6573683"><ele>72.0</ele><time>2026-04-30T12:50:23.158Z</time></trkpt><trkpt lat="43.93502" lon="12.6575233"><ele>71.66666666666667</ele><time>2026-04-30T12:50:24.159Z</time></trkpt><trkpt lat="43.9351417" lon="12.65767"><ele>71.33333333333334</ele><time>2026-04-30T12:50:25.159Z</time></trkpt><trkpt lat="43.9352567" lon="12.6578067"><ele>71.0</ele><time>2026-04-30T12:50:26.158Z</time></trkpt><trkpt lat="43.9353683" lon="12.6579367"><ele>71.0</ele><time>2026-04-30T12:50:27.159Z</time></trkpt><trkpt lat="43.9354683" lon="12.6580567"><ele>71.0</ele><time>2026-04-30T12:50:28.158Z</time></trkpt><trkpt lat="43.9355583" lon="12.6581567"><ele>71.0</ele><time>2026-04-30T12:50:29.158Z</time></trkpt><trkpt lat="43.9356383" lon="12.6582433"><ele>71.0</ele><time>2026-04-30T12:50:30.157Z</time></trkpt><trkpt lat="43.9357117" lon="12.65832"><ele>71.0</ele><time>2026-04-30T12:50:31.157Z</time></trkpt><trkpt lat="43.93578" lon="12.6584033"><ele>71.0</ele><time>2026-04-30T12:50:32.159Z</time></trkpt><trkpt lat="43.935855" lon="12.658505"><ele>71.0</ele><time>2026-04-30T12:50:33.159Z</time></trkpt><trkpt lat="43.9359417" lon="12.658625"><ele>71.0</ele><time>2026-04-30T12:50:34.157Z</time></trkpt><trkpt lat="43.9360517" lon="12.65876"><ele>71.0</ele><time>2026-04-30T12:50:35.159Z</time></trkpt><trkpt lat="43.9361817" lon="12.6589083"><ele>70.33333333333334</ele><time>2026-04-30T12:50:36.158Z</time></trkpt><trkpt lat="43.9363267" lon="12.6590717"><ele>69.66666666666667</ele><time>2026-04-30T12:50:37.158Z</time></trkpt><trkpt lat="43.93647" lon="12.6592367"><ele>69.0</ele><time>2026-04-30T12:50:38.158Z</time></trkpt><trkpt lat="43.936605" lon="12.659395"><ele>67.66666666666667</ele><time>2026-04-30T12:50:39.16Z</time></trkpt><trkpt lat="43.9367333" lon="12.6595517"><ele>66.33333333333334</ele><time>2026-04-30T12:50:40.157Z</time></trkpt><trkpt lat="43.93686" lon="12.6597083"><ele>65.0</ele><time>2026-04-30T12:50:41.158Z</time></trkpt><trkpt lat="43.93699" lon="12.6598617"><ele>65.0</ele><time>2026-04-30T12:50:42.158Z</time></trkpt><trkpt lat="43.93712" lon="12.6600133"><ele>65.0</ele><time>2026-04-30T12:50:43.157Z</time></trkpt><trkpt lat="43.9372483" lon="12.6601617"><ele>65.0</ele><time>2026-04-30T12:50:44.158Z</time></trkpt><trkpt lat="43.9373733" lon="12.6603083"><ele>64.33333333333334</ele><time>2026-04-30T12:50:45.157Z</time></trkpt><trkpt lat="43.9375" lon="12.66046"><ele>63.66666666666667</ele><time>2026-04-30T12:50:46.157Z</time></trkpt><trkpt lat="43.9376267" lon="12.6606133"><ele>63.0</ele><time>2026-04-30T12:50:47.157Z</time></trkpt><trkpt lat="43.93776" lon="12.6607683"><ele>63.0</ele><time>2026-04-30T12:50:48.157Z</time></trkpt><trkpt lat="43.9378917" lon="12.6609133"><ele>63.0</ele><time>2026-04-30T12:50:49.158Z</time></trkpt><trkpt lat="43.938015" lon="12.661055"><ele>63.0</ele><time>2026-04-30T12:50:50.159Z</time></trkpt><trkpt lat="43.93813" lon="12.6611917"><ele>62.75</ele><time>2026-04-30T12:50:51.158Z</time></trkpt><trkpt lat="43.93824" lon="12.6613183"><ele>62.5</ele><time>2026-04-30T12:50:52.158Z</time></trkpt><trkpt lat="43.938345" lon="12.66144"><ele>62.25</ele><time>2026-04-30T12:50:53.158Z</time></trkpt><trkpt lat="43.9384467" lon="12.6615583"><ele>62.0</ele><time>2026-04-30T12:50:54.157Z</time></trkpt><trkpt lat="43.9385383" lon="12.6616667"><ele>62.00000000000001</ele><time>2026-04-30T12:50:55.159Z</time></trkpt><trkpt lat="43.938615" lon="12.66176"><ele>62.0</ele><time>2026-04-30T12:50:56.158Z</time></trkpt><trkpt lat="43.93868" lon="12.6618433"><ele>62.0</ele><time>2026-04-30T12:50:57.157Z</time></trkpt><trkpt lat="43.93873" lon="12.6619233"><ele>62.0</ele><time>2026-04-30T12:50:58.158Z</time></trkpt><trkpt lat="43.9387583" lon="12.6620133"><ele>62.00000000000001</ele><time>2026-04-30T12:50:59.157Z</time></trkpt><trkpt lat="43.9387667" lon="12.662115"><ele>62.0</ele><time>2026-04-30T12:51:00.157Z</time></trkpt><trkpt lat="43.9387767" lon="12.662215"><ele>61.66666666666667</ele><time>2026-04-30T12:51:01.158Z</time></trkpt><trkpt lat="43.9388067" lon="12.6623033"><ele>61.333333333333336</ele><time>2026-04-30T12:51:02.158Z</time></trkpt><trkpt lat="43.93885" lon="12.6623733"><ele>61.0</ele><time>2026-04-30T12:51:03.158Z</time></trkpt><trkpt lat="43.9389183" lon="12.6624183"><ele>60.66666666666667</ele><time>2026-04-30T12:51:04.158Z</time></trkpt><trkpt lat="43.9390083" lon="12.6624283"><ele>60.333333333333336</ele><time>2026-04-30T12:51:05.157Z</time></trkpt><trkpt lat="43.9391167" lon="12.6624517"><ele>60.0</ele><time>2026-04-30T12:51:06.158Z</time></trkpt><trkpt lat="43.9392317" lon="12.6625183"><ele>59.33333333333333</ele><time>2026-04-30T12:51:07.157Z</time></trkpt><trkpt lat="43.93935" lon="12.6626283"><ele>58.666666666666664</ele><time>2026-04-30T12:51:08.159Z</time></trkpt><trkpt lat="43.9394767" lon="12.6627767"><ele>58.0</ele><time>2026-04-30T12:51:09.157Z</time></trkpt><trkpt lat="43.93962" lon="12.662945"><ele>57.666666666666664</ele><time>2026-04-30T12:51:10.157Z</time></trkpt><trkpt lat="43.939775" lon="12.6631167"><ele>57.33333333333333</ele><time>2026-04-30T12:51:11.158Z</time></trkpt><trkpt lat="43.9399333" lon="12.66329"><ele>57.0</ele><time>2026-04-30T12:51:12.158Z</time></trkpt><trkpt lat="43.9400917" lon="12.663465"><ele>57.0</ele><time>2026-04-30T12:51:13.157Z</time></trkpt><trkpt lat="43.9402467" lon="12.66364"><ele>57.0</ele><time>2026-04-30T12:51:14.159Z</time></trkpt><trkpt lat="43.9403967" lon="12.66382"><ele>57.0</ele><time>2026-04-30T12:51:15.156Z</time></trkpt><trkpt lat="43.9405483" lon="12.6640067"><ele>57.0</ele><time>2026-04-30T12:51:16.157Z</time></trkpt><trkpt lat="43.9406967" lon="12.6641917"><ele>57.0</ele><time>2026-04-30T12:51:17.159Z</time></trkpt><trkpt lat="43.9408417" lon="12.6643667"><ele>57.0</ele><time>2026-04-30T12:51:18.158Z</time></trkpt><trkpt lat="43.9409833" lon="12.6645317"><ele>56.33333333333333</ele><time>2026-04-30T12:51:19.159Z</time></trkpt><trkpt lat="43.94112" lon="12.66469"><ele>55.666666666666664</ele><time>2026-04-30T12:51:20.159Z</time></trkpt><trkpt lat="43.9412533" lon="12.6648433"><ele>55.0</ele><time>2026-04-30T12:51:21.159Z</time></trkpt><trkpt lat="43.941385" lon="12.6649983"><ele>55.0</ele><time>2026-04-30T12:51:22.158Z</time></trkpt><trkpt lat="43.9415167" lon="12.6651533"><ele>55.0</ele><time>2026-04-30T12:51:23.16Z</time></trkpt><trkpt lat="43.94165" lon="12.6653067"><ele>55.0</ele><time>2026-04-30T12:51:24.159Z</time></trkpt><trkpt lat="43.941785" lon="12.6654633"><ele>54.666666666666664</ele><time>2026-04-30T12:51:25.16Z</time></trkpt><trkpt lat="43.94192" lon="12.66562"><ele>54.33333333333333</ele><time>2026-04-30T12:51:26.16Z</time></trkpt><trkpt lat="43.9420567" lon="12.66578"><ele>54.0</ele><time>2026-04-30T12:51:27.159Z</time></trkpt><trkpt lat="43.9421933" lon="12.6659417"><ele>54.0</ele><time>2026-04-30T12:51:28.159Z</time></trkpt><trkpt lat="43.9423333" lon="12.6661033"><ele>54.0</ele><time>2026-04-30T12:51:29.157Z</time></trkpt><trkpt lat="43.9424717" lon="12.6662633"><ele>54.0</ele><time>2026-04-30T12:51:30.158Z</time></trkpt><trkpt lat="43.9426083" lon="12.66643"><ele>54.33333333333333</ele><time>2026-04-30T12:51:31.158Z</time></trkpt><trkpt lat="43.9427467" lon="12.6665933"><ele>54.666666666666664</ele><time>2026-04-30T12:51:32.159Z</time></trkpt><trkpt lat="43.942885" lon="12.6667567"><ele>55.0</ele><time>2026-04-30T12:51:33.157Z</time></trkpt><trkpt lat="43.943025" lon="12.6669217"><ele>54.666666666666664</ele><time>2026-04-30T12:51:34.158Z</time></trkpt><trkpt lat="43.943165" lon="12.6670883"><ele>54.33333333333333</ele><time>2026-04-30T12:51:35.161Z</time></trkpt><trkpt lat="43.943305" lon="12.6672533"><ele>54.0</ele><time>2026-04-30T12:51:36.159Z</time></trkpt><trkpt lat="43.94344" lon="12.6674117"><ele>53.66666666666667</ele><time>2026-04-30T12:51:37.158Z</time></trkpt><trkpt lat="43.94357" lon="12.6675617"><ele>53.333333333333336</ele><time>2026-04-30T12:51:38.16Z</time></trkpt><trkpt lat="43.943695" lon="12.6677033"><ele>53.0</ele><time>2026-04-30T12:51:39.158Z</time></trkpt><trkpt lat="43.943815" lon="12.6678417"><ele>52.66666666666667</ele><time>2026-04-30T12:51:40.158Z</time></trkpt><trkpt lat="43.9439317" lon="12.6679817"><ele>52.33333333333333</ele><time>2026-04-30T12:51:41.157Z</time></trkpt><trkpt lat="43.9440517" lon="12.668125"><ele>52.0</ele><time>2026-04-30T12:51:42.157Z</time></trkpt><trkpt lat="43.9441767" lon="12.6682717"><ele>52.0</ele><time>2026-04-30T12:51:43.158Z</time></trkpt><trkpt lat="43.9443067" lon="12.6684183"><ele>52.0</ele><time>2026-04-30T12:51:44.158Z</time></trkpt><trkpt lat="43.9444383" lon="12.66857"><ele>52.0</ele><time>2026-04-30T12:51:45.159Z</time></trkpt><trkpt lat="43.9445717" lon="12.6687217"><ele>52.0</ele><time>2026-04-30T12:51:46.158Z</time></trkpt><trkpt lat="43.944705" lon="12.6688767"><ele>52.0</ele><time>2026-04-30T12:51:47.158Z</time></trkpt><trkpt lat="43.9448367" lon="12.6690283"><ele>52.0</ele><time>2026-04-30T12:51:48.159Z</time></trkpt><trkpt lat="43.9449617" lon="12.6691733"><ele>51.75</ele><time>2026-04-30T12:51:49.158Z</time></trkpt><trkpt lat="43.9450817" lon="12.6693083"><ele>51.5</ele><time>2026-04-30T12:51:50.159Z</time></trkpt><trkpt lat="43.9451983" lon="12.6694317"><ele>51.25</ele><time>2026-04-30T12:51:51.159Z</time></trkpt><trkpt lat="43.945315" lon="12.6695433"><ele>51.0</ele><time>2026-04-30T12:51:52.158Z</time></trkpt><trkpt lat="43.9454383" lon="12.6696467"><ele>50.75</ele><time>2026-04-30T12:51:53.159Z</time></trkpt><trkpt lat="43.9455667" lon="12.669745"><ele>50.5</ele><time>2026-04-30T12:51:54.161Z</time></trkpt><trkpt lat="43.945695" lon="12.6698383"><ele>50.25</ele><time>2026-04-30T12:51:55.158Z</time></trkpt><trkpt lat="43.94582" lon="12.6699233"><ele>50.0</ele><time>2026-04-30T12:51:56.16Z</time></trkpt><trkpt lat="43.9459417" lon="12.67"><ele>49.75</ele><time>2026-04-30T12:51:57.158Z</time></trkpt><trkpt lat="43.9460567" lon="12.6700733"><ele>49.5</ele><time>2026-04-30T12:51:58.158Z</time></trkpt><trkpt lat="43.9461667" lon="12.6701417"><ele>49.25</ele><time>2026-04-30T12:51:59.16Z</time></trkpt><trkpt lat="43.94627" lon="12.670205"><ele>49.0</ele><time>2026-04-30T12:52:00.159Z</time></trkpt><trkpt lat="43.9463717" lon="12.6702683"><ele>48.800000000000004</ele><time>2026-04-30T12:52:01.158Z</time></trkpt><trkpt lat="43.9464633" lon="12.670325"><ele>48.6</ele><time>2026-04-30T12:52:02.158Z</time></trkpt><trkpt lat="43.94655" lon="12.670375"><ele>48.4</ele><time>2026-04-30T12:52:03.157Z</time></trkpt><trkpt lat="43.94664" lon="12.6704217"><ele>48.2</ele><time>2026-04-30T12:52:04.158Z</time></trkpt><trkpt lat="43.94673" lon="12.6704683"><ele>48.0</ele><time>2026-04-30T12:52:05.157Z</time></trkpt><trkpt lat="43.9468167" lon="12.6705183"><ele>47.75</ele><time>2026-04-30T12:52:06.158Z</time></trkpt><trkpt lat="43.9469033" lon="12.6705833"><ele>47.5</ele><time>2026-04-30T12:52:07.158Z</time></trkpt><trkpt lat="43.947" lon="12.6706567"><ele>47.25</ele><time>2026-04-30T12:52:08.158Z</time></trkpt><trkpt lat="43.9471083" lon="12.67073"><ele>47.0</ele><time>2026-04-30T12:52:09.157Z</time></trkpt><trkpt lat="43.9472283" lon="12.6708067"><ele>47.0</ele><time>2026-04-30T12:52:10.157Z</time></trkpt><trkpt lat="43.94736" lon="12.670885"><ele>47.0</ele><time>2026-04-30T12:52:11.157Z</time></trkpt><trkpt lat="43.9474867" lon="12.6709633"><ele>47.0</ele><time>2026-04-30T12:52:12.157Z</time></trkpt><trkpt lat="43.9476067" lon="12.6710433"><ele>47.0</ele><time>2026-04-30T12:52:13.157Z</time></trkpt><trkpt lat="43.9477267" lon="12.6711183"><ele>46.25</ele><time>2026-04-30T12:52:14.158Z</time></trkpt><trkpt lat="43.94784" lon="12.6711917"><ele>45.5</ele><time>2026-04-30T12:52:15.157Z</time></trkpt><trkpt lat="43.9479517" lon="12.6712617"><ele>44.75</ele><time>2026-04-30T12:52:16.159Z</time></trkpt><trkpt lat="43.9480633" lon="12.6713333"><ele>44.0</ele><time>2026-04-30T12:52:17.158Z</time></trkpt><trkpt lat="43.9481767" lon="12.671405"><ele>44.0</ele><time>2026-04-30T12:52:18.16Z</time></trkpt><trkpt lat="43.9482933" lon="12.6714767"><ele>44.0</ele><time>2026-04-30T12:52:19.159Z</time></trkpt><trkpt lat="43.948415" lon="12.67155"><ele>44.0</ele><time>2026-04-30T12:52:20.159Z</time></trkpt><trkpt lat="43.9485383" lon="12.671625"><ele>44.0</ele><time>2026-04-30T12:52:21.16Z</time></trkpt><trkpt lat="43.9486617" lon="12.6717"><ele>43.75</ele><time>2026-04-30T12:52:22.158Z</time></trkpt><trkpt lat="43.9487867" lon="12.6717783"><ele>43.5</ele><time>2026-04-30T12:52:23.159Z</time></trkpt><trkpt lat="43.9489167" lon="12.6718583"><ele>43.25</ele><time>2026-04-30T12:52:24.158Z</time></trkpt><trkpt lat="43.9490483" lon="12.67194"><ele>43.0</ele><time>2026-04-30T12:52:25.158Z</time></trkpt><trkpt lat="43.949175" lon="12.6720167"><ele>42.75</ele><time>2026-04-30T12:52:26.161Z</time></trkpt><trkpt lat="43.9493017" lon="12.6720967"><ele>42.5</ele><time>2026-04-30T12:52:27.157Z</time></trkpt><trkpt lat="43.94943" lon="12.6721783"><ele>42.25</ele><time>2026-04-30T12:52:28.158Z</time></trkpt><trkpt lat="43.94956" lon="12.67226"><ele>42.0</ele><time>2026-04-30T12:52:29.159Z</time></trkpt><trkpt lat="43.949695" lon="12.6723417"><ele>42.0</ele><time>2026-04-30T12:52:30.157Z</time></trkpt><trkpt lat="43.9498283" lon="12.672425"><ele>42.0</ele><time>2026-04-30T12:52:31.158Z</time></trkpt><trkpt lat="43.9499633" lon="12.6725083"><ele>42.0</ele><time>2026-04-30T12:52:32.158Z</time></trkpt><trkpt lat="43.9501" lon="12.6725933"><ele>42.0</ele><time>2026-04-30T12:52:33.159Z</time></trkpt><trkpt lat="43.9502283" lon="12.672675"><ele>41.25</ele><time>2026-04-30T12:52:34.158Z</time></trkpt><trkpt lat="43.9503533" lon="12.6727533"><ele>40.5</ele><time>2026-04-30T12:52:35.159Z</time></trkpt><trkpt lat="43.95047" lon="12.672825"><ele>39.75</ele><time>2026-04-30T12:52:36.158Z</time></trkpt><trkpt lat="43.9505783" lon="12.6728933"><ele>39.0</ele><time>2026-04-30T12:52:37.157Z</time></trkpt><trkpt lat="43.9506817" lon="12.6729583"><ele>38.8</ele><time>2026-04-30T12:52:38.158Z</time></trkpt><trkpt lat="43.9507817" lon="12.6730167"><ele>38.599999999999994</ele><time>2026-04-30T12:52:39.159Z</time></trkpt><trkpt lat="43.9508783" lon="12.6730733"><ele>38.4</ele><time>2026-04-30T12:52:40.158Z</time></trkpt><trkpt lat="43.950975" lon="12.6731283"><ele>38.199999999999996</ele><time>2026-04-30T12:52:41.159Z</time></trkpt><trkpt lat="43.9510767" lon="12.673185"><ele>38.0</ele><time>2026-04-30T12:52:42.158Z</time></trkpt><trkpt lat="43.9511717" lon="12.6732417"><ele>37.666666666666664</ele><time>2026-04-30T12:52:43.158Z</time></trkpt><trkpt lat="43.9512583" lon="12.6732933"><ele>37.33333333333333</ele><time>2026-04-30T12:52:44.159Z</time></trkpt><trkpt lat="43.9513367" lon="12.673345"><ele>37.0</ele><time>2026-04-30T12:52:45.157Z</time></trkpt><trkpt lat="43.95141" lon="12.6733883"><ele>36.666666666666664</ele><time>2026-04-30T12:52:46.158Z</time></trkpt><trkpt lat="43.9514867" lon="12.6734333"><ele>36.333333333333336</ele><time>2026-04-30T12:52:47.161Z</time></trkpt><trkpt lat="43.9515617" lon="12.6734683"><ele>36.0</ele><time>2026-04-30T12:52:48.159Z</time></trkpt><trkpt lat="43.9516217" lon="12.6735117"><ele>36.2</ele><time>2026-04-30T12:52:49.158Z</time></trkpt><trkpt lat="43.951695" lon="12.6736317"><ele>36.400000000000006</ele><time>2026-04-30T12:52:51.159Z</time></trkpt><trkpt lat="43.9517133" lon="12.6737183"><ele>36.6</ele><time>2026-04-30T12:52:52.158Z</time></trkpt><trkpt lat="43.9517133" lon="12.6738333"><ele>36.800000000000004</ele><time>2026-04-30T12:52:53.158Z</time></trkpt><trkpt lat="43.95169" lon="12.6739783"><ele>37.0</ele><time>2026-04-30T12:52:54.158Z</time></trkpt><trkpt lat="43.9516617" lon="12.6741467"><ele>37.0</ele><time>2026-04-30T12:52:55.159Z</time></trkpt><trkpt lat="43.9516333" lon="12.674325"><ele>37.0</ele><time>2026-04-30T12:52:56.158Z</time></trkpt><trkpt lat="43.9516083" lon="12.6745067"><ele>37.0</ele><time>2026-04-30T12:52:57.158Z</time></trkpt><trkpt lat="43.9515817" lon="12.6746867"><ele>37.0</ele><time>2026-04-30T12:52:58.16Z</time></trkpt><trkpt lat="43.9515483" lon="12.6748583"><ele>36.5</ele><time>2026-04-30T12:52:59.158Z</time></trkpt><trkpt lat="43.9515017" lon="12.6750317"><ele>36.0</ele><time>2026-04-30T12:53:00.159Z</time></trkpt><trkpt lat="43.9514283" lon="12.675205"><ele>35.5</ele><time>2026-04-30T12:53:01.158Z</time></trkpt><trkpt lat="43.9513483" lon="12.6753733"><ele>35.0</ele><time>2026-04-30T12:53:02.159Z</time></trkpt><trkpt lat="43.9512617" lon="12.6755333"><ele>34.33333333333333</ele><time>2026-04-30T12:53:03.158Z</time></trkpt><trkpt lat="43.9511683" lon="12.6756933"><ele>33.666666666666664</ele><time>2026-04-30T12:53:04.157Z</time></trkpt><trkpt lat="43.9510717" lon="12.6758567"><ele>33.0</ele><time>2026-04-30T12:53:05.158Z</time></trkpt><trkpt lat="43.9509733" lon="12.6760233"><ele>33.0</ele><time>2026-04-30T12:53:06.157Z</time></trkpt><trkpt lat="43.95088" lon="12.67618"><ele>33.0</ele><time>2026-04-30T12:53:07.157Z</time></trkpt><trkpt lat="43.9508017" lon="12.676315"><ele>33.0</ele><time>2026-04-30T12:53:08.158Z</time></trkpt><trkpt lat="43.95074" lon="12.676425"><ele>33.0</ele><time>2026-04-30T12:53:09.16Z</time></trkpt><trkpt lat="43.9506917" lon="12.6765233"><ele>33.0</ele><time>2026-04-30T12:53:10.158Z</time></trkpt><trkpt lat="43.9506567" lon="12.6766117"><ele>33.0</ele><time>2026-04-30T12:53:11.158Z</time></trkpt><trkpt lat="43.9506467" lon="12.6767"><ele>33.0</ele><time>2026-04-30T12:53:12.159Z</time></trkpt><trkpt lat="43.9506667" lon="12.6767983"><ele>33.0</ele><time>2026-04-30T12:53:13.158Z</time></trkpt><trkpt lat="43.9507183" lon="12.6768967"><ele>33.0</ele><time>2026-04-30T12:53:14.158Z</time></trkpt><trkpt lat="43.9508033" lon="12.677005"><ele>33.0</ele><time>2026-04-30T12:53:15.158Z</time></trkpt><trkpt lat="43.950915" lon="12.67713"><ele>33.0</ele><time>2026-04-30T12:53:16.157Z</time></trkpt><trkpt lat="43.9510417" lon="12.6772767"><ele>33.0</ele><time>2026-04-30T12:53:17.157Z</time></trkpt><trkpt lat="43.9511833" lon="12.677445"><ele>33.0</ele><time>2026-04-30T12:53:18.159Z</time></trkpt><trkpt lat="43.95134" lon="12.67763"><ele>33.333333333333336</ele><time>2026-04-30T12:53:19.158Z</time></trkpt><trkpt lat="43.9515083" lon="12.6778317"><ele>33.66666666666667</ele><time>2026-04-30T12:53:20.16Z</time></trkpt><trkpt lat="43.9516733" lon="12.6780333"><ele>34.0</ele><time>2026-04-30T12:53:21.158Z</time></trkpt><trkpt lat="43.9518267" lon="12.6782267"><ele>34.0</ele><time>2026-04-30T12:53:22.16Z</time></trkpt><trkpt lat="43.9519717" lon="12.6784033"><ele>34.0</ele><time>2026-04-30T12:53:23.16Z</time></trkpt><trkpt lat="43.952115" lon="12.67857"><ele>34.0</ele><time>2026-04-30T12:53:24.158Z</time></trkpt><trkpt lat="43.9522517" lon="12.67873"><ele>33.66666666666667</ele><time>2026-04-30T12:53:25.158Z</time></trkpt><trkpt lat="43.9523917" lon="12.6788867"><ele>33.333333333333336</ele><time>2026-04-30T12:53:26.159Z</time></trkpt><trkpt lat="43.9525333" lon="12.67904"><ele>33.0</ele><time>2026-04-30T12:53:27.157Z</time></trkpt><trkpt lat="43.9526733" lon="12.6791817"><ele>33.0</ele><time>2026-04-30T12:53:28.157Z</time></trkpt><trkpt lat="43.9528117" lon="12.6793133"><ele>33.0</ele><time>2026-04-30T12:53:29.159Z</time></trkpt><trkpt lat="43.95295" lon="12.679445"><ele>33.0</ele><time>2026-04-30T12:53:30.158Z</time></trkpt><trkpt lat="43.9530867" lon="12.67958"><ele>33.0</ele><time>2026-04-30T12:53:31.157Z</time></trkpt><trkpt lat="43.95322" lon="12.6797167"><ele>33.0</ele><time>2026-04-30T12:53:32.158Z</time></trkpt><trkpt lat="43.9533533" lon="12.6798633"><ele>33.0</ele><time>2026-04-30T12:53:33.158Z</time></trkpt><trkpt lat="43.953485" lon="12.6800317"><ele>32.333333333333336</ele><time>2026-04-30T12:53:34.157Z</time></trkpt><trkpt lat="43.9536133" lon="12.6802217"><ele>31.666666666666668</ele><time>2026-04-30T12:53:35.157Z</time></trkpt><trkpt lat="43.9537417" lon="12.680435"><ele>31.0</ele><time>2026-04-30T12:53:36.157Z</time></trkpt><trkpt lat="43.953875" lon="12.6806433"><ele>31.0</ele><time>2026-04-30T12:53:37.157Z</time></trkpt><trkpt lat="43.95401" lon="12.6808367"><ele>31.0</ele><time>2026-04-30T12:53:38.159Z</time></trkpt><trkpt lat="43.9541467" lon="12.6810233"><ele>31.0</ele><time>2026-04-30T12:53:39.159Z</time></trkpt><trkpt lat="43.9542933" lon="12.6812117"><ele>30.666666666666668</ele><time>2026-04-30T12:53:40.158Z</time></trkpt><trkpt lat="43.9544417" lon="12.6814"><ele>30.333333333333336</ele><time>2026-04-30T12:53:41.159Z</time></trkpt><trkpt lat="43.954595" lon="12.6815917"><ele>30.0</ele><time>2026-04-30T12:53:42.158Z</time></trkpt><trkpt lat="43.9547517" lon="12.6817833"><ele>29.666666666666664</ele><time>2026-04-30T12:53:43.158Z</time></trkpt><trkpt lat="43.9548983" lon="12.6819633"><ele>29.333333333333332</ele><time>2026-04-30T12:53:44.157Z</time></trkpt><trkpt lat="43.955035" lon="12.6821267"><ele>29.0</ele><time>2026-04-30T12:53:45.158Z</time></trkpt><trkpt lat="43.95516" lon="12.6822767"><ele>29.0</ele><time>2026-04-30T12:53:46.157Z</time></trkpt><trkpt lat="43.9552767" lon="12.6824167"><ele>29.0</ele><time>2026-04-30T12:53:47.158Z</time></trkpt><trkpt lat="43.9553883" lon="12.6825467"><ele>29.0</ele><time>2026-04-30T12:53:48.16Z</time></trkpt><trkpt lat="43.9554933" lon="12.68267"><ele>29.0</ele><time>2026-04-30T12:53:49.158Z</time></trkpt><trkpt lat="43.95559" lon="12.682785"><ele>29.0</ele><time>2026-04-30T12:53:50.159Z</time></trkpt><trkpt lat="43.9556767" lon="12.6828917"><ele>29.0</ele><time>2026-04-30T12:53:51.158Z</time></trkpt><trkpt lat="43.955755" lon="12.6829867"><ele>29.0</ele><time>2026-04-30T12:53:52.158Z</time></trkpt><trkpt lat="43.95582" lon="12.6830767"><ele>29.0</ele><time>2026-04-30T12:53:53.158Z</time></trkpt><trkpt lat="43.9558833" lon="12.683175"><ele>29.0</ele><time>2026-04-30T12:53:54.157Z</time></trkpt><trkpt lat="43.9559483" lon="12.6832733"><ele>29.0</ele><time>2026-04-30T12:53:55.157Z</time></trkpt><trkpt lat="43.9560317" lon="12.683365"><ele>29.0</ele><time>2026-04-30T12:53:56.159Z</time></trkpt><trkpt lat="43.9561283" lon="12.683465"><ele>29.0</ele><time>2026-04-30T12:53:57.159Z</time></trkpt><trkpt lat="43.95624" lon="12.6835883"><ele>29.0</ele><time>2026-04-30T12:53:58.158Z</time></trkpt><trkpt lat="43.9563617" lon="12.6837367"><ele>29.0</ele><time>2026-04-30T12:53:59.159Z</time></trkpt><trkpt lat="43.956485" lon="12.6838917"><ele>29.0</ele><time>2026-04-30T12:54:00.157Z</time></trkpt><trkpt lat="43.9566067" lon="12.68404"><ele>29.0</ele><time>2026-04-30T12:54:01.159Z</time></trkpt><trkpt lat="43.9567267" lon="12.6841883"><ele>28.666666666666664</ele><time>2026-04-30T12:54:02.158Z</time></trkpt><trkpt lat="43.956845" lon="12.6843383"><ele>28.333333333333336</ele><time>2026-04-30T12:54:03.159Z</time></trkpt><trkpt lat="43.956965" lon="12.6844917"><ele>28.0</ele><time>2026-04-30T12:54:04.157Z</time></trkpt><trkpt lat="43.95709" lon="12.6846417"><ele>28.0</ele><time>2026-04-30T12:54:05.158Z</time></trkpt><trkpt lat="43.9572117" lon="12.6847933"><ele>28.0</ele><time>2026-04-30T12:54:06.159Z</time></trkpt><trkpt lat="43.957335" lon="12.6849467"><ele>28.0</ele><time>2026-04-30T12:54:07.159Z</time></trkpt><trkpt lat="43.95746" lon="12.6851033"><ele>27.333333333333336</ele><time>2026-04-30T12:54:08.158Z</time></trkpt><trkpt lat="43.957585" lon="12.6852583"><ele>26.666666666666664</ele><time>2026-04-30T12:54:09.158Z</time></trkpt><trkpt lat="43.9577017" lon="12.6854017"><ele>26.0</ele><time>2026-04-30T12:54:10.159Z</time></trkpt><trkpt lat="43.957815" lon="12.68554"><ele>26.0</ele><time>2026-04-30T12:54:11.159Z</time></trkpt><trkpt lat="43.95793" lon="12.68568"><ele>26.0</ele><time>2026-04-30T12:54:12.157Z</time></trkpt><trkpt lat="43.9580417" lon="12.6858133"><ele>26.0</ele><time>2026-04-30T12:54:13.159Z</time></trkpt><trkpt lat="43.95815" lon="12.6859417"><ele>26.0</ele><time>2026-04-30T12:54:14.159Z</time></trkpt><trkpt lat="43.95825" lon="12.6860617"><ele>26.25</ele><time>2026-04-30T12:54:15.158Z</time></trkpt><trkpt lat="43.95835" lon="12.686185"><ele>26.5</ele><time>2026-04-30T12:54:16.157Z</time></trkpt><trkpt lat="43.9584567" lon="12.6863117"><ele>26.75</ele><time>2026-04-30T12:54:17.157Z</time></trkpt><trkpt lat="43.9585683" lon="12.6864433"><ele>27.0</ele><time>2026-04-30T12:54:18.157Z</time></trkpt><trkpt lat="43.958685" lon="12.68658"><ele>26.333333333333336</ele><time>2026-04-30T12:54:19.158Z</time></trkpt><trkpt lat="43.95881" lon="12.6867283"><ele>25.666666666666668</ele><time>2026-04-30T12:54:20.158Z</time></trkpt><trkpt lat="43.9589367" lon="12.686885"><ele>25.0</ele><time>2026-04-30T12:54:21.157Z</time></trkpt><trkpt lat="43.9590567" lon="12.68704"><ele>25.0</ele><time>2026-04-30T12:54:22.157Z</time></trkpt><trkpt lat="43.9591733" lon="12.6871883"><ele>25.0</ele><time>2026-04-30T12:54:23.158Z</time></trkpt><trkpt lat="43.9592917" lon="12.6873383"><ele>25.0</ele><time>2026-04-30T12:54:24.158Z</time></trkpt><trkpt lat="43.9594067" lon="12.6874783"><ele>25.0</ele><time>2026-04-30T12:54:25.157Z</time></trkpt><trkpt lat="43.9595183" lon="12.6876117"><ele>25.0</ele><time>2026-04-30T12:54:26.157Z</time></trkpt><trkpt lat="43.959625" lon="12.6877317"><ele>25.0</ele><time>2026-04-30T12:54:27.159Z</time></trkpt><trkpt lat="43.9597217" lon="12.6878367"><ele>25.0</ele><time>2026-04-30T12:54:28.157Z</time></trkpt><trkpt lat="43.9598083" lon="12.6879283"><ele>25.166666666666668</ele><time>2026-04-30T12:54:29.157Z</time></trkpt><trkpt lat="43.9598767" lon="12.6880117"><ele>25.333333333333336</ele><time>2026-04-30T12:54:30.158Z</time></trkpt><trkpt lat="43.95993" lon="12.6880967"><ele>25.5</ele><time>2026-04-30T12:54:31.159Z</time></trkpt><trkpt lat="43.9599783" lon="12.6881767"><ele>25.666666666666664</ele><time>2026-04-30T12:54:32.159Z</time></trkpt><trkpt lat="43.9600267" lon="12.6882433"><ele>25.833333333333332</ele><time>2026-04-30T12:54:33.16Z</time></trkpt><trkpt lat="43.960135" lon="12.68828"><ele>26.0</ele><time>2026-04-30T12:54:35.159Z</time></trkpt><trkpt lat="43.960195" lon="12.68824"><ele>26.0</ele><time>2026-04-30T12:54:36.157Z</time></trkpt><trkpt lat="43.9602433" lon="12.6881483"><ele>26.0</ele><time>2026-04-30T12:54:37.158Z</time></trkpt><trkpt lat="43.9603017" lon="12.6880433"><ele>26.0</ele><time>2026-04-30T12:54:38.158Z</time></trkpt><trkpt lat="43.9603733" lon="12.6879367"><ele>26.0</ele><time>2026-04-30T12:54:39.157Z</time></trkpt><trkpt lat="43.9604417" lon="12.687815"><ele>26.0</ele><time>2026-04-30T12:54:40.157Z</time></trkpt><trkpt lat="43.9605117" lon="12.6876833"><ele>26.0</ele><time>2026-04-30T12:54:41.158Z</time></trkpt><trkpt lat="43.9605967" lon="12.6875533"><ele>26.0</ele><time>2026-04-30T12:54:42.161Z</time></trkpt><trkpt lat="43.9606967" lon="12.6874183"><ele>26.0</ele><time>2026-04-30T12:54:43.158Z</time></trkpt><trkpt lat="43.9607883" lon="12.6872717"><ele>26.0</ele><time>2026-04-30T12:54:44.158Z</time></trkpt><trkpt lat="43.9608717" lon="12.68713"><ele>25.8</ele><time>2026-04-30T12:54:45.157Z</time></trkpt><trkpt lat="43.9609483" lon="12.6869983"><ele>25.6</ele><time>2026-04-30T12:54:46.158Z</time></trkpt><trkpt lat="43.96102" lon="12.6868783"><ele>25.4</ele><time>2026-04-30T12:54:47.158Z</time></trkpt><trkpt lat="43.961085" lon="12.686775"><ele>25.2</ele><time>2026-04-30T12:54:48.157Z</time></trkpt><trkpt lat="43.9611467" lon="12.6866933"><ele>25.0</ele><time>2026-04-30T12:54:49.156Z</time></trkpt><trkpt lat="43.961205" lon="12.6866233"><ele>24.833333333333336</ele><time>2026-04-30T12:54:50.158Z</time></trkpt><trkpt lat="43.96125" lon="12.68656"><ele>24.666666666666668</ele><time>2026-04-30T12:54:51.157Z</time></trkpt><trkpt lat="43.9612967" lon="12.68644"><ele>24.5</ele><time>2026-04-30T12:54:53.159Z</time></trkpt><trkpt lat="43.9613383" lon="12.6863367"><ele>24.333333333333336</ele><time>2026-04-30T12:54:55.158Z</time></trkpt><trkpt lat="43.9613817" lon="12.6862617"><ele>24.166666666666668</ele><time>2026-04-30T12:54:57.159Z</time></trkpt><trkpt lat="43.961425" lon="12.6861967"><ele>24.0</ele><time>2026-04-30T12:55:01.158Z</time></trkpt><trkpt lat="43.96148" lon="12.6861183"><ele>24.0</ele><time>2026-04-30T12:55:05.159Z</time></trkpt><trkpt lat="43.9615317" lon="12.686055"><ele>24.0</ele><time>2026-04-30T12:55:07.158Z</time></trkpt><trkpt lat="43.9616017" lon="12.68598"><ele>24.0</ele><time>2026-04-30T12:55:09.158Z</time></trkpt><trkpt lat="43.9616983" lon="12.68595"><ele>24.0</ele><time>2026-04-30T12:55:11.16Z</time></trkpt><trkpt lat="43.9618033" lon="12.685965"><ele>24.0</ele><time>2026-04-30T12:55:13.158Z</time></trkpt><trkpt lat="43.96193" lon="12.6860033"><ele>24.0</ele><time>2026-04-30T12:55:15.159Z</time></trkpt><trkpt lat="43.962" lon="12.6860267"><ele>24.0</ele><time>2026-04-30T12:55:16.158Z</time></trkpt><trkpt lat="43.9621033" lon="12.686065"><ele>24.0</ele><time>2026-04-30T12:55:18.16Z</time></trkpt><trkpt lat="43.9621767" lon="12.686095"><ele>24.0</ele><time>2026-04-30T12:55:20.159Z</time></trkpt><trkpt lat="43.96226" lon="12.68609"><ele>24.0</ele><time>2026-04-30T12:55:23.158Z</time></trkpt><trkpt lat="43.962325" lon="12.6860933"><ele>24.0</ele><time>2026-04-30T12:55:25.158Z</time></trkpt><trkpt lat="43.9623967" lon="12.6861367"><ele>24.0</ele><time>2026-04-30T12:55:28.158Z</time></trkpt><trkpt lat="43.96247" lon="12.68615"><ele>24.0</ele><time>2026-04-30T12:55:31.158Z</time></trkpt><trkpt lat="43.9625267" lon="12.6861"><ele>24.0</ele><time>2026-04-30T12:55:36.157Z</time></trkpt></trkseg></trk></gpx>